Date StartTime U_cm/s V_cm/s W_cm/s Ustd_cm/s Vstd_cm/s Wstd_cm/s Uvar_(cm/s)^2 Vvar_(cm/s)^2 Wvar_(cm/s)^2 KE_(m/s)^2 TurbulentKE_(m/s)^2 HorizWindSpeed_cm/s FrictionSpeec_cm/s DragCoef SpeedOfSound_m/s SonicTemperature_C Pressure_mb 
08/30/2013  00:00:00      -83.195      -20.288       -9.416       30.824       24.153       15.598      950.099      583.359      243.306        0.460        0.089       85.633        9.799        0.013      343.313       19.337      865.296
08/30/2013  00:01:00     -104.486       -9.577      -14.439       26.972       27.109       18.421      727.506      734.893      339.341        0.651        0.090      104.924       12.727        0.015      343.328       19.362      865.305
08/30/2013  00:02:00     -112.201      -10.696      -18.421       46.493       35.073       21.994     2161.602     1230.101      483.732        0.846        0.194      112.710       24.723        0.048      343.275       19.271      865.326
08/30/2013  00:03:00     -197.084       14.391      -18.139       40.734       24.795       20.765     1659.285      614.790      431.187        2.104        0.135      197.609        7.531        0.001      343.316       19.338      865.324
08/30/2013  00:04:00     -190.969       11.509      -23.349       29.203       23.623       16.296      852.789      558.026      265.571        1.941        0.084      191.315       14.566        0.006      343.297       19.310      865.335
08/30/2013  00:05:00     -181.046       10.405      -11.683       44.391       31.037       21.041     1970.549      963.284      442.712        1.820        0.169      181.345       17.194        0.009      343.257       19.240      865.337
08/30/2013  00:06:00     -145.614       29.225      -10.321       60.531       29.784       17.549     3664.014      887.090      307.977        1.351        0.243      148.518       14.139        0.009      343.270       19.263      865.341
08/30/2013  00:07:00     -130.563        1.619      -16.035       37.522       35.660       22.489     1407.927     1271.619      505.739        1.025        0.159      130.573       15.791        0.015      343.302       19.318      865.362
08/30/2013  00:08:00     -135.613       14.720      -21.014       25.346       30.455       22.911      642.430      927.483      524.892        1.057        0.105      136.409        3.268        0.001      343.356       19.410      865.353
08/30/2013  00:09:00     -119.880        4.717      -17.265       20.692       24.987       16.459      428.157      624.349      270.914        0.801        0.066      119.973       10.989        0.008      343.306       19.325      865.354
08/30/2013  00:10:00     -122.745       -4.372      -17.339       43.501       22.882       21.105     1892.345      523.583      445.426        0.912        0.143      122.822       24.343        0.039      343.203       19.149      865.354
08/30/2013  00:11:00      -78.655       13.079       -2.887       27.976       25.118       19.617      782.683      630.915      384.839        0.408        0.090       79.735        9.836        0.015      343.373       19.439      865.345
08/30/2013  00:12:00      -64.515       10.538      -11.347       22.915       20.529       14.228      525.098      421.423      202.434        0.278        0.057       65.370        7.715        0.014      343.376       19.443      865.360
08/30/2013  00:13:00      -72.819        2.000      -13.241       20.226       17.780       13.248      409.096      316.131      175.522        0.319        0.045       72.846       11.468        0.025      343.411       19.502      865.359
08/30/2013  00:14:00      -65.971       -5.669      -10.294       24.710       23.235       16.876      610.584      539.862      284.788        0.296        0.072       66.214       13.995        0.045      343.429       19.535      865.355
08/30/2013  00:15:00      -69.980       -4.280       -7.657       30.712       27.639       15.681      943.208      763.894      245.895        0.346        0.098       70.111        9.014        0.017      343.298       19.310      865.372
08/30/2013  00:16:00      -44.128       -3.013      -11.136       28.508       19.018       14.377      812.687      361.683      206.696        0.173        0.069       44.230       15.433        0.122      343.218       19.175      865.374
08/30/2013  00:17:00      -40.784      -11.644      -10.926       16.083       21.746       16.789      258.679      472.882      281.879        0.147        0.051       42.413       13.227        0.097      343.295       19.307      865.379
08/30/2013  00:18:00      -63.757      -13.304      -11.291       30.175       21.900       15.361      910.512      479.610      235.970        0.300        0.081       65.130       13.923        0.046      343.496       19.649      865.389
08/30/2013  00:19:00      -62.429      -10.339      -11.401       13.973       15.693       10.002      195.234      246.265      100.039        0.234        0.027       63.279        7.546        0.014      343.304       19.320      865.382
08/30/2013  00:20:00      -84.716       -2.891      -14.139       22.225       23.345       11.848      493.957      544.973      140.379        0.428        0.059       84.765        8.267        0.010      343.311       19.333      865.393
08/30/2013  00:21:00      -89.037      -16.923       -8.024       23.293       21.454       13.309      542.562      460.262      177.120        0.473        0.059       90.631        9.859        0.012      343.222       19.181      865.393
08/30/2013  00:22:00      -82.962       -4.093      -10.369       31.721       23.473       18.968     1006.227      550.967      359.794        0.446        0.096       83.063       17.086        0.042      343.257       19.240      865.404
08/30/2013  00:23:00      -54.717        8.824       -9.275       24.895       26.042       18.276      619.773      678.203      334.008        0.239        0.082       55.424       15.360        0.077      343.210       19.162      865.410
08/30/2013  00:24:00      -71.342       21.736       -4.003       39.063       27.898       18.734     1525.943      778.286      350.967        0.412        0.133       74.580       19.269        0.067      343.122       19.011      865.409
08/30/2013  00:25:00      -63.097       18.225       -3.185       34.744       32.602       21.408     1207.147     1062.910      458.295        0.353        0.136       65.676       19.296        0.086      343.122       19.010      865.414
08/30/2013  00:26:00      -51.538        7.427        4.668       29.273       32.317       22.255      856.937     1044.385      495.281        0.256        0.120       52.071       18.363        0.124      343.095       18.966      865.424
08/30/2013  00:27:00      -60.779       -7.525        5.844       34.602       40.450       24.544     1197.276     1636.174      602.424        0.361        0.172       61.243       20.964        0.117      343.125       19.017      865.428
08/30/2013  00:28:00      -73.888        0.080       -1.460       24.572       30.480       17.660      603.800      929.001      311.891        0.365        0.092       73.888       15.409        0.043      343.079       18.938      865.434
08/30/2013  00:29:00      -97.218      -28.670        1.359       27.623       32.061       18.499      763.010     1027.932      342.203        0.620        0.107      101.357       14.860        0.021      343.127       19.020      865.456
08/30/2013  00:30:00      -51.239      -17.003        7.677       38.062       38.519       19.443     1448.744     1483.682      378.043        0.314        0.166       53.986       16.581        0.094      343.013       18.827      865.456
08/30/2013  00:31:00      -74.544       -1.080       -4.118       32.479       24.457       16.393     1054.902      598.132      268.722        0.375        0.096       74.552       15.698        0.044      343.059       18.904      865.452
08/30/2013  00:32:00      -84.918      -15.518        1.902       31.687       21.431       15.226     1004.062      459.297      231.819        0.458        0.085       86.324       15.194        0.031      343.026       18.848      865.461
08/30/2013  00:33:00      -68.315      -11.646       -5.060       24.248       22.676       11.054      587.971      514.200      122.180        0.303        0.061       69.301       11.115        0.026      343.029       18.853      865.458
08/30/2013  00:34:00      -47.180       -8.848       -1.757       25.560       16.216       12.791      653.331      262.945      163.610        0.169        0.054       48.002       13.669        0.081      343.013       18.826      865.453
08/30/2013  00:35:00      -57.162       -4.520       -2.698       17.339       14.267       11.637      300.630      203.547      135.421        0.197        0.032       57.341       10.035        0.031      343.031       18.857      865.450
08/30/2013  00:36:00      -77.325       -6.126       -4.626       30.362       15.632       11.698      921.840      244.368      136.832        0.367        0.065       77.567       12.513        0.026      343.075       18.929      865.443
08/30/2013  00:37:00      -69.222       -7.897       -0.371       27.283       23.851       14.156      744.385      568.880      200.394        0.318        0.076       69.671       12.179        0.031      343.039       18.870      865.435
08/30/2013  00:38:00      -23.324       -5.745        1.224       13.631       19.529       12.856      185.797      381.365      165.268        0.066        0.037       24.021        6.460        0.072      342.967       18.747      865.446
08/30/2013  00:39:00      -21.400       -1.120       15.015       33.952       22.244       11.569     1152.755      494.778      133.847        0.123        0.089       21.429       15.750        0.540      342.773       18.419      865.442
08/30/2013  00:40:00      -95.957      -34.019      -11.232       15.988       15.408       10.919      255.615      237.416      119.231        0.555        0.031      101.809        6.971        0.005      343.138       19.039      865.444
08/30/2013  00:41:00     -100.487      -45.940       -6.340       22.883       25.377       15.154      523.650      644.010      229.631        0.682        0.070      110.490       13.884        0.016      343.074       18.930      865.449
08/30/2013  00:42:00     -108.213      -58.846       -2.551       26.643       19.815       17.115      709.842      392.625      292.908        0.829        0.070      123.178       15.218        0.015      343.078       18.938      865.449
08/30/2013  00:43:00      -72.133      -37.628       -1.765       40.087       18.437       15.709     1606.975      339.921      246.760        0.441        0.110       81.357       21.178        0.068      343.106       18.984      865.429
08/30/2013  00:44:00       -9.855      -19.548        3.241       22.940       19.048       16.051      526.261      362.845      257.627        0.082        0.057       21.892        9.943        0.206      343.045       18.880      865.430
08/30/2013  00:45:00      -48.341      -36.156        2.743       33.306       27.911       17.137     1109.296      779.019      293.679        0.292        0.109       60.367       13.360        0.049      343.017       18.831      865.436
08/30/2013  00:46:00      -98.752      -56.528       -1.072       36.955       29.948       17.875     1365.670      896.887      319.528        0.776        0.129      113.786       12.565        0.012      342.962       18.739      865.436
08/30/2013  00:47:00     -125.917      -59.110       -0.490       17.142       23.294       10.966      293.864      542.627      120.260        1.015        0.048      139.101        9.079        0.004      342.924       18.675      865.424
08/30/2013  00:48:00     -105.967      -56.525       -3.397       31.858       28.468       15.989     1014.917      810.427      255.635        0.826        0.104      120.100       12.427        0.011      342.849       18.546      865.418
08/30/2013  00:49:00     -124.152      -48.852       -5.913       30.775       22.679       15.072      947.096      514.343      227.153        0.976        0.084      133.418        8.577        0.004      342.795       18.455      865.423
08/30/2013  00:50:00     -144.064      -57.672        0.353       42.018       30.561       22.189     1765.525      933.962      492.331        1.364        0.160      155.179       17.224        0.012      342.781       18.430      865.435
08/30/2013  00:51:00     -120.500      -69.868       -4.377       25.833       30.490       16.168      667.330      929.644      261.417        1.064        0.093      139.290       11.299        0.007      342.782       18.433      865.440
08/30/2013  00:52:00     -108.682      -54.359       -1.845       28.006       25.308       16.830      784.355      640.512      283.244        0.824        0.085      121.518       14.544        0.014      342.731       18.345      865.449
08/30/2013  00:53:00      -86.833      -44.816       -4.070       41.393       31.899       15.076     1713.404     1017.571      227.295        0.626        0.148       97.716       13.504        0.019      342.754       18.385      865.461
08/30/2013  00:54:00     -116.674      -40.494       -3.319       24.746       21.445       13.449      612.384      459.893      180.870        0.826        0.063      123.501       13.251        0.012      342.739       18.358      865.452
08/30/2013  00:55:00      -75.114      -12.526       -0.320       37.074       36.729       18.288     1374.469     1349.054      334.463        0.443        0.153       76.151       17.667        0.054      342.662       18.227      865.448
08/30/2013  00:56:00     -125.547      -30.349      -10.436       36.435       31.993       17.430     1327.494     1023.553      303.811        0.972        0.133      129.163        8.759        0.005      342.652       18.211      865.454
08/30/2013  00:57:00      -92.485      -38.385       -1.859       47.668       39.429       20.950     2272.274     1554.615      438.896        0.715        0.213      100.134       20.689        0.043      342.652       18.211      865.459
08/30/2013  00:58:00     -101.245      -27.851        4.369       35.904       32.959       18.079     1289.117     1086.307      326.846        0.687        0.135      105.006       14.338        0.019      342.552       18.041      865.461
08/30/2013  00:59:00      -98.925      -56.944        1.655       34.484       26.546       23.051     1189.157      704.715      531.335        0.773        0.121      114.144       17.607        0.024      342.580       18.089      865.462
08/30/2013  01:00:00      -92.471      -34.058       -2.913       53.042       43.222       22.252     2813.407     1868.150      495.166        0.745        0.259       98.544       19.242        0.038      342.568       18.067      865.469
08/30/2013  01:01:00      -70.520      -65.602        4.784       38.161       41.872       24.355     1456.260     1753.303      593.171        0.655        0.190       96.315       15.151        0.025      342.508       17.966      865.488
08/30/2013  01:02:00     -100.906      -39.083       -1.195       38.904       30.399       18.849     1513.526      924.124      355.268        0.725        0.140      108.210       19.901        0.034      342.528       18.000      865.490
08/30/2013  01:03:00     -107.554      -25.689       -3.358       28.748       30.060       17.513      826.446      903.616      306.720        0.714        0.102      110.580       12.261        0.012      342.575       18.079      865.488
08/30/2013  01:04:00      -65.058      -17.665        1.069       23.780       20.712       12.345      565.508      428.966      152.400        0.285        0.057       67.414       10.120        0.023      342.584       18.095      865.499
08/30/2013  01:05:00      -76.747      -27.377       -9.931       15.259       16.279       13.466      232.851      265.000      181.344        0.371        0.034       81.484        9.477        0.014      342.692       18.279      865.499
08/30/2013  01:06:00      -84.288      -42.769       -5.222       18.516       16.877       14.460      342.834      284.826      209.080        0.490        0.042       94.518       10.539        0.012      342.702       18.295      865.493
08/30/2013  01:07:00      -74.932      -39.360       -9.794        9.930       12.063        8.363       98.609      145.522       69.943        0.379        0.016       84.641        5.587        0.004      342.725       18.334      865.496
08/30/2013  01:08:00      -74.819      -44.825       -7.902       11.915       15.439        8.629      141.973      238.348       74.457        0.406        0.023       87.219        6.744        0.006      342.769       18.410      865.496
08/30/2013  01:09:00      -73.237      -22.368      -10.013       11.821       11.587        7.441      139.743      134.254       55.372        0.315        0.016       76.576        6.036        0.006      342.795       18.455      865.487
08/30/2013  01:10:00      -52.058      -28.565       -6.749        8.878       12.000       10.433       78.811      143.988      108.840        0.195        0.017       59.380        4.168        0.005      342.851       18.549      865.490
08/30/2013  01:11:00      -39.113      -17.210        0.971       17.981       14.091        9.894      323.330      198.560       97.894        0.122        0.031       42.732       11.290        0.070      342.800       18.464      865.499
08/30/2013  01:12:00      -53.079      -20.162       -5.840       12.512       12.230        8.310      156.556      149.567       69.058        0.182        0.019       56.780        7.110        0.016      342.817       18.492      865.495
08/30/2013  01:13:00      -70.852      -28.269       -7.441        7.894       10.872        7.704       62.310      118.193       59.357        0.306        0.012       76.283        3.922        0.003      342.728       18.340      865.494
08/30/2013  01:14:00      -78.109      -34.543       -8.295       14.736       10.053        7.438      217.155      101.053       55.319        0.387        0.019       85.407        5.346        0.004      342.649       18.205      865.503
08/30/2013  01:15:00      -95.154      -27.308       -4.418        6.489        5.917        4.660       42.105       35.013       21.715        0.496        0.005       98.995        3.907        0.002      342.617       18.149      865.502
08/30/2013  01:16:00     -100.996      -19.032      -10.602       15.410       11.864       10.532      237.482      140.755      110.923        0.558        0.024      102.774        9.232        0.008      342.535       18.012      865.498
08/30/2013  01:17:00     -119.715       -7.722      -10.026       36.229       22.044       14.804     1312.534      485.944      219.144        0.825        0.101      119.964       15.637        0.017      342.484       17.926      865.483
08/30/2013  01:18:00     -132.786      -35.182      -13.999       35.274       27.061       14.910     1244.274      732.291      222.304        1.063        0.110      137.368       12.871        0.009      342.377       17.744      865.481
08/30/2013  01:19:00      -93.219      -30.892        2.226       31.762       37.855       18.014     1008.796     1432.989      324.506        0.621        0.138       98.204       15.737        0.026      342.230       17.494      865.489
08/30/2013  01:20:00      -52.355      -19.132        4.882       36.752       34.216       16.904     1350.733     1170.768      285.755        0.297        0.140       55.741       20.233        0.132      342.209       17.458      865.478
08/30/2013  01:21:00      -34.461       -8.434        8.932       38.806       22.801       22.270     1505.900      519.892      495.934        0.193        0.126       35.478       24.207        0.466      342.181       17.410      865.477
08/30/2013  01:22:00      -29.370      -12.514        4.853       19.821       23.505       19.746      392.883      552.470      389.886        0.119        0.067       31.925       13.934        0.190      342.198       17.440      865.473
08/30/2013  01:23:00      -69.293      -44.545       -8.998       27.543       22.985       13.211      758.622      528.291      174.533        0.416        0.073       82.376       11.058        0.018      342.309       17.628      865.474
08/30/2013  01:24:00      -72.366      -29.454       -6.366       26.378       28.702       14.667      695.799      823.797      215.117        0.394        0.087       78.130        5.590        0.005      342.332       17.667      865.466
08/30/2013  01:25:00      -83.481      -24.413      -13.969       15.707       18.061       10.874      246.701      326.214      118.242        0.423        0.035       86.977        7.796        0.008      342.310       17.630      865.452
08/30/2013  01:26:00      -99.812      -32.832      -13.500       15.835       16.459       11.032      250.747      270.896      121.694        0.593        0.032      105.073        5.797        0.003      342.340       17.679      865.446
08/30/2013  01:27:00     -109.628      -37.776      -10.697       23.026       25.889       13.819      530.202      670.233      190.975        0.748        0.070      115.954       10.949        0.009      342.247       17.522      865.438
08/30/2013  01:28:00      -99.117      -48.205       -5.960       29.178       22.120       16.179      851.354      489.302      261.748        0.689        0.080      110.217       12.664        0.013      342.204       17.450      865.422
08/30/2013  01:29:00     -131.293      -76.303      -10.427       50.211       36.470       31.774     2521.192     1330.083     1009.600        1.401        0.243      151.855       21.602        0.020      342.107       17.286      865.409
08/30/2013  01:30:00     -146.853      -72.378       -1.024       48.412       35.478       22.914     2343.746     1258.695      525.059        1.547        0.206      163.721       24.830        0.023      342.075       17.231      865.403
08/30/2013  01:31:00     -134.674      -21.304       -8.106       24.484       35.707       15.372      599.480     1274.999      236.298        1.038        0.106      136.349        8.618        0.004      342.132       17.329      865.398
08/30/2013  01:32:00      -96.232      -21.705       -4.261       38.441       26.123       17.926     1477.685      682.424      321.351        0.612        0.124       98.650       17.277        0.031      342.231       17.495      865.388
08/30/2013  01:33:00      -72.842      -15.657        0.808       30.360       24.660       16.146      921.705      608.112      260.690        0.367        0.090       74.506       15.810        0.045      342.218       17.474      865.375
08/30/2013  01:34:00      -46.684       -2.791        5.765       32.768       22.568       17.484     1073.732      509.312      305.686        0.205        0.094       46.767       17.142        0.134      342.117       17.303      865.378
08/30/2013  01:35:00      -77.389      -28.883        1.410       27.421       26.313       13.967      751.905      692.376      195.081        0.423        0.082       82.604       13.460        0.027      342.276       17.572      865.377
08/30/2013  01:36:00      -99.541      -35.929       -3.668       43.734       40.023       24.663     1912.690     1601.812      608.241        0.767        0.206      105.826       19.509        0.034      342.197       17.438      865.385
08/30/2013  01:37:00     -114.766      -54.367       -0.551       42.475       31.551       19.495     1804.146      995.446      380.046        0.965        0.159      126.992       19.513        0.024      342.155       17.366      865.404
08/30/2013  01:38:00      -98.475      -52.672       -3.744       34.452       33.154       17.151     1186.919     1099.197      294.155        0.753        0.129      111.676       10.657        0.009      342.046       17.182      865.415
08/30/2013  01:39:00      -50.788       -1.629        2.507       19.822       25.943       14.861      392.918      673.017      220.851        0.194        0.064       50.814       13.643        0.072      342.066       17.216      865.402
08/30/2013  01:40:00      -26.842      -19.284      -12.820       14.096       25.731       17.469      198.709      662.082      305.151        0.121        0.058       33.051       14.429        0.191      342.129       17.322      865.406
08/30/2013  01:41:00      -61.601      -43.423       -7.734       25.531       18.852       16.414      651.857      355.413      269.434        0.351        0.064       75.368       15.623        0.043      342.188       17.424      865.404
08/30/2013  01:42:00      -46.278       -9.733      -11.544       12.469       18.731       12.084      155.473      350.840      146.012        0.151        0.033       47.290        8.982        0.036      342.245       17.520      865.395
08/30/2013  01:43:00      -18.416      -26.261        0.676       12.204       12.387        8.251      148.945      153.434       68.079        0.070        0.019       32.074        4.893        0.023      342.342       17.683      865.382
08/30/2013  01:44:00      -45.202      -24.094       -2.086       38.538       17.836       15.321     1485.200      318.138      234.725        0.233        0.102       51.223       19.014        0.138      342.338       17.678      865.382
08/30/2013  01:45:00      -53.450      -33.157       -9.543       19.300       12.086       13.255      372.489      146.076      175.697        0.237        0.035       62.899        9.455        0.023      342.254       17.535      865.369
08/30/2013  01:46:00      -51.066      -34.397       -6.858       13.415       13.247       10.209      179.968      175.481      104.226        0.215        0.023       61.570        8.058        0.017      342.235       17.502      865.366
08/30/2013  01:47:00      -88.599      -31.281       -7.738       12.701       11.425        7.671      161.316      130.528       58.847        0.462        0.018       93.959        7.550        0.006      342.214       17.467      865.370
08/30/2013  01:48:00     -100.181      -41.243      -12.052       18.743       16.016        9.591      351.291      256.521       91.979        0.629        0.035      108.338        7.162        0.004      342.155       17.367      865.382
08/30/2013  01:49:00     -131.265      -53.842      -11.653       19.747       20.859        9.007      389.931      435.087       81.127        1.059        0.045      141.879       10.055        0.005      342.140       17.340      865.383
08/30/2013  01:50:00     -138.642      -62.353       -3.205       27.130       20.755       17.229      736.029      430.774      296.837        1.229        0.073      152.018        9.182        0.004      342.075       17.232      865.384
08/30/2013  01:51:00     -134.059      -72.111       -1.834       41.368       23.368       23.963     1711.329      546.049      574.237        1.300        0.142      152.223       24.083        0.025      342.054       17.194      865.382
08/30/2013  01:52:00      -84.482      -55.832        0.568       57.816       40.089       26.411     3342.648     1607.153      697.553        0.795        0.282      101.264       31.487        0.097      341.996       17.097      865.383
08/30/2013  01:53:00      -97.104      -74.577        1.902       47.278       43.748       25.781     2235.195     1913.848      664.641        0.990        0.241      122.437       25.271        0.043      341.969       17.052      865.373
08/30/2013  01:54:00     -138.042      -41.586       -4.012       31.066       25.202       17.059      965.084      635.134      291.005        1.135        0.095      144.170       12.402        0.007      342.017       17.133      865.359
08/30/2013  01:55:00     -140.030      -47.521        2.081       52.822       36.224       24.693     2790.175     1312.185      609.754        1.329        0.236      147.874       23.440        0.025      341.932       16.989      865.361
08/30/2013  01:56:00     -137.909      -56.307       -1.152       33.986       28.535       19.385     1155.032      814.236      375.767        1.227        0.117      148.961       19.122        0.016      341.904       16.942      865.347
08/30/2013  01:57:00     -132.415      -72.953       -0.413       40.796       26.649       20.142     1664.299      710.149      405.686        1.282        0.139      151.181       17.449        0.013      341.900       16.933      865.337
08/30/2013  01:58:00     -129.357      -46.809       -3.504       33.302       29.422       19.421     1109.054      865.636      377.182        1.064        0.118      137.566       14.594        0.011      341.914       16.957      865.338
08/30/2013  01:59:00      -88.816      -45.151       -5.865       33.982       25.098       15.352     1154.756      629.904      235.676        0.599        0.101       99.634        9.828        0.010      341.946       17.012      865.340
08/30/2013  02:00:00     -101.038      -60.851        1.339       31.194       26.043       19.769      973.067      678.260      390.798        0.798        0.102      117.947       18.452        0.024      341.886       16.911      865.333
08/30/2013  02:01:00     -135.254      -77.208       -6.468       20.158       24.099       18.128      406.355      580.739      328.639        1.281        0.066      155.739       11.852        0.006      341.866       16.875      865.332
08/30/2013  02:02:00     -119.236      -36.224       -5.678       30.779       38.643       18.154      947.330     1493.304      329.557        0.917        0.139      124.617       12.758        0.010      341.808       16.779      865.348
08/30/2013  02:03:00     -107.963      -17.604       -3.199       48.794       30.706       25.973     2380.872      942.839      674.573        0.799        0.200      109.389       24.722        0.051      341.865       16.874      865.349
08/30/2013  02:04:00      -84.321       -8.642       -0.057       38.136       35.347       24.431     1454.378     1249.400      596.858        0.524        0.165       84.762       18.503        0.048      341.849       16.846      865.352
08/30/2013  02:05:00     -107.669      -66.643       -7.376       45.047       33.919       19.698     2029.256     1150.492      387.998        0.983        0.178      126.625       16.681        0.017      341.898       16.931      865.376
08/30/2013  02:06:00     -138.282      -76.492       -5.580       36.812       25.291       18.264     1355.114      639.659      333.559        1.367        0.116      158.029       16.397        0.011      341.894       16.923      865.394
08/30/2013  02:07:00     -123.446      -72.493       -0.303       40.480       28.532       18.293     1638.658      814.101      334.644        1.164        0.139      143.158       20.469        0.020      341.891       16.918      865.407
08/30/2013  02:08:00     -105.425      -63.509        4.594       43.280       23.864       22.969     1873.180      569.502      527.582        0.907        0.149      123.076       23.602        0.037      341.953       17.024      865.421
08/30/2013  02:09:00      -82.563      -49.142        7.042       56.006       46.464       22.105     3136.673     2158.914      488.627        0.753        0.289       96.081       28.221        0.086      342.067       17.217      865.418
08/30/2013  02:10:00      -89.071      -52.430        1.589       31.986       28.102       14.641     1023.077      789.697      214.367        0.636        0.101      103.357       11.009        0.011      342.126       17.318      865.406
08/30/2013  02:11:00      -82.060      -32.281       -0.290       33.618       25.919       19.230     1130.196      671.802      369.777        0.497        0.109       88.181       18.068        0.042      342.074       17.229      865.388
08/30/2013  02:12:00     -106.652      -25.153       -3.810       40.298       26.722       21.306     1623.943      714.088      453.941        0.741        0.140      109.578       21.152        0.037      341.995       17.095      865.397
08/30/2013  02:13:00      -59.644      -35.645        6.578       46.128       28.643       18.303     2127.768      820.394      334.995        0.408        0.164       69.484       19.842        0.082      341.984       17.075      865.396
08/30/2013  02:14:00      -72.551      -60.714        7.527       69.693       66.097       28.752     4857.169     4368.781      826.689        0.953        0.503       94.604       38.037        0.162      341.848       16.846      865.389
08/30/2013  02:15:00     -158.425     -106.696       -8.993       36.674       32.585       20.880     1345.012     1061.758      435.980        1.970        0.142      191.004       17.321        0.008      341.879       16.898      865.385
08/30/2013  02:16:00     -138.439      -60.250        1.361       52.433       25.239       20.146     2749.260      636.999      405.851        1.329        0.190      150.982       20.584        0.019      341.843       16.838      865.382
08/30/2013  02:17:00     -121.066      -73.284       -6.304       44.854       37.176       27.023     2011.905     1382.091      730.266        1.209        0.206      141.519       16.588        0.014      341.735       16.653      865.373
08/30/2013  02:18:00     -145.322      -29.229       -6.937       46.622       38.066       24.966     2173.628     1449.051      623.286        1.313        0.212      148.233       25.866        0.030      341.757       16.691      865.370
08/30/2013  02:19:00     -131.696      -36.763        6.470       37.569       36.089       24.219     1411.419     1302.391      586.540        1.102        0.165      136.731       21.088        0.024      341.785       16.739      865.381
08/30/2013  02:20:00      -83.713      -51.293        5.854       38.081       28.349       20.558     1450.194      803.663      422.636        0.617        0.134       98.177       19.095        0.038      341.772       16.718      865.385
08/30/2013  02:21:00     -110.710      -60.722      -10.101       22.785       20.639       13.333      519.158      425.985      177.768        0.858        0.056      126.269        6.823        0.003      341.945       17.011      865.380
08/30/2013  02:22:00     -118.762      -44.906       -5.122       36.841       30.574       16.982     1357.282      934.762      288.397        0.936        0.129      126.968       18.269        0.021      342.059       17.204      865.377
08/30/2013  02:23:00     -102.435      -32.308       -9.201       33.920       26.941       16.192     1150.586      725.830      262.171        0.688        0.107      107.409       15.777        0.022      342.075       17.230      865.391
08/30/2013  02:24:00     -120.171      -25.287       -5.310       50.644       39.777       26.148     2564.852     1582.234      683.722        0.997        0.242      122.802       30.223        0.061      341.885       16.909      865.398
08/30/2013  02:25:00     -138.075      -46.045       -3.331       48.586       36.869       21.478     2360.564     1359.330      461.290        1.269        0.209      145.550       21.353        0.022      341.822       16.803      865.402
08/30/2013  02:26:00     -140.123      -82.183       -3.035       53.556       39.389       24.969     2868.279     1551.494      623.431        1.572        0.252      162.445       16.040        0.010      341.794       16.753      865.410
08/30/2013  02:27:00     -153.194     -123.008        2.335       57.429       52.552       32.150     3298.037     2761.708     1033.643        2.285        0.355      196.467       29.385        0.022      341.880       16.898      865.412
08/30/2013  02:28:00     -150.820      -88.295       -4.487       58.020       44.207       31.319     3366.342     1954.299      980.897        1.843        0.315      174.765       28.929        0.027      341.861       16.866      865.406
08/30/2013  02:29:00     -131.915      -98.914        3.431       59.633       43.019       30.946     3556.074     1850.666      957.683        1.678        0.318      164.880       29.779        0.033      341.788       16.742      865.390
08/30/2013  02:30:00     -142.294      -79.830       -2.101       33.848       32.063       23.982     1145.704     1028.033      575.130        1.469        0.137      163.157       18.430        0.013      341.731       16.648      865.368
08/30/2013  02:31:00     -125.612      -81.283       -1.894       51.130       34.395       29.161     2614.294     1183.039      850.358        1.352        0.232      149.617       30.470        0.041      341.756       16.690      865.369
08/30/2013  02:32:00     -159.922      -68.979       -4.206       27.474       24.934       21.185      754.843      621.692      448.802        1.609        0.091      174.164       17.282        0.010      341.816       16.791      865.357
08/30/2013  02:33:00     -149.192      -44.179       -6.506       38.991       34.380       23.428     1520.282     1181.961      548.867        1.375        0.163      155.596       19.771        0.016      341.770       16.713      865.349
08/30/2013  02:34:00     -163.530      -56.079       -5.156       34.023       30.837       19.937     1157.587      950.940      397.485        1.621        0.125      172.878       15.540        0.008      341.739       16.660      865.337
08/30/2013  02:35:00     -182.959      -47.897       -3.550       44.909       43.515       22.109     2016.825     1893.576      488.805        2.009        0.220      189.125       23.456        0.015      341.668       16.539      865.334
08/30/2013  02:36:00     -200.945      -89.394       -1.591       46.185       34.665       24.983     2133.096     1201.685      624.137        2.617        0.198      219.932       23.377        0.011      341.696       16.583      865.336
08/30/2013  02:37:00     -185.315      -65.627       -6.158       41.873       45.600       20.294     1753.361     2079.383      411.855        2.146        0.212      196.592       18.031        0.008      341.676       16.553      865.322
08/30/2013  02:38:00     -179.969      -92.028       -3.537       45.257       28.457       22.463     2048.221      809.813      504.599        2.212        0.168      202.133       20.722        0.011      341.584       16.396      865.317
08/30/2013  02:39:00     -172.652      -72.345       -3.645       37.724       30.367       25.890     1423.110      922.168      670.305        1.904        0.151      187.196       21.864        0.014      341.535       16.314      865.327
08/30/2013  02:40:00      -85.994      -65.272        2.257       55.125       40.163       29.987     3038.762     1613.102      899.213        0.860        0.278      107.960       29.197        0.073      341.599       16.422      865.318
08/30/2013  02:41:00      -96.279      -80.770        8.248       51.384       37.787       30.492     2640.296     1427.857      929.782        1.043        0.250      125.672       25.818        0.042      341.593       16.413      865.305
08/30/2013  02:42:00     -111.601      -71.770       -0.158       51.477       36.095       20.822     2649.859     1302.843      433.557        1.100        0.219      132.686       21.650        0.027      341.645       16.502      865.315
08/30/2013  02:43:00      -91.169      -49.536       -2.008       50.509       29.227       27.598     2551.142      854.240      761.655        0.747        0.208      103.757       30.139        0.084      341.666       16.536      865.319
08/30/2013  02:44:00      -86.557      -65.065        1.294       40.949       33.220       22.417     1676.857     1103.551      502.536        0.750        0.164      108.285       24.549        0.051      341.680       16.560      865.318
08/30/2013  02:45:00     -121.053      -48.469       -1.103       29.454       25.009       18.009      867.540      625.462      324.329        0.941        0.091      130.396       15.885        0.015      341.721       16.630      865.314
08/30/2013  02:46:00     -118.719      -36.126        3.608       49.386       28.486       21.100     2438.959      811.438      445.194        0.955        0.185      124.094       22.925        0.034      341.699       16.593      865.318
08/30/2013  02:47:00      -96.103      -61.420        5.564       52.674       35.938       27.063     2774.579     1291.551      732.382        0.892        0.240      114.053       23.748        0.043      341.629       16.474      865.315
08/30/2013  02:48:00     -129.046      -80.642       -2.037       50.170       34.135       22.407     2516.999     1165.188      502.069        1.367        0.209      152.170       23.175        0.023      341.626       16.470      865.319
08/30/2013  02:49:00     -140.375      -85.661       -0.233       51.105       39.701       27.698     2611.696     1576.195      767.168        1.600        0.248      164.447       24.436        0.022      341.622       16.462      865.326
08/30/2013  02:50:00     -157.506      -80.046       -5.741       31.589       30.720       24.703      997.839      943.715      610.234        1.690        0.128      176.679       20.035        0.013      341.654       16.516      865.339
08/30/2013  02:51:00     -145.499      -57.538       -2.715       33.488       39.533       20.356     1121.468     1562.852      414.374        1.379        0.155      156.463       16.839        0.012      341.576       16.384      865.342
08/30/2013  02:52:00     -130.004      -53.151       -2.073       30.453       31.911       19.174      927.382     1018.320      367.654        1.102        0.116      140.450       13.367        0.009      341.525       16.297      865.329
08/30/2013  02:53:00     -117.777      -65.975       -7.513       29.623       33.313       17.070      877.525     1109.768      291.368        1.028        0.114      134.997       12.491        0.009      341.495       16.246      865.319
08/30/2013  02:54:00      -99.781      -42.510       10.288       38.849       28.138       25.522     1509.245      791.733      651.397        0.741        0.148      108.459       22.535        0.043      341.435       16.146      865.326
08/30/2013  02:55:00     -108.651      -42.400       -3.167       30.708       22.974       14.707      942.976      527.826      216.295        0.765        0.084      116.631       11.813        0.010      341.453       16.176      865.314
08/30/2013  02:56:00      -77.935      -52.783       -5.743       26.431       20.731       17.723      698.597      429.763      314.089        0.517        0.072       94.127       14.966        0.025      341.447       16.165      865.301
08/30/2013  02:57:00      -74.915      -44.307        2.349       47.817       24.522       21.845     2286.438      601.346      477.202        0.547        0.168       87.037       21.787        0.063      341.406       16.095      865.296
08/30/2013  02:58:00      -68.040      -49.287        0.064       43.543       29.444       24.662     1895.982      866.978      608.238        0.521        0.169       84.016       24.617        0.086      341.491       16.239      865.313
08/30/2013  02:59:00      -81.224      -92.749       -5.394       42.834       28.598       18.617     1834.751      817.827      346.610        0.911        0.150      123.287       20.415        0.027      341.615       16.450      865.324
08/30/2013  03:00:00      -72.618      -84.576       -2.587       43.603       25.235       26.378     1901.182      636.789      695.815        0.783        0.162      111.474       25.409        0.052      341.540       16.324      865.321
08/30/2013  03:01:00     -113.163      -62.901       -2.959       40.574       28.704       21.175     1646.236      823.912      448.394        0.984        0.146      129.469       22.107        0.029      341.525       16.300      865.306
08/30/2013  03:02:00     -109.799      -62.507       -3.807       43.492       26.172       26.310     1891.534      684.965      692.241        0.962        0.163      126.345       21.392        0.029      341.443       16.158      865.311
08/30/2013  03:03:00     -113.845      -80.894       -4.855       52.242       35.909       27.450     2729.269     1289.473      753.518        1.215        0.239      139.659       22.201        0.025      341.490       16.236      865.304
08/30/2013  03:04:00     -153.792      -59.310       -5.531       32.211       29.590       21.193     1037.536      875.566      449.129        1.478        0.118      164.832       20.107        0.015      341.500       16.254      865.298
08/30/2013  03:05:00     -155.464      -31.600       -9.717       30.157       24.235       17.671      909.459      587.356      312.279        1.354        0.090      158.643       11.492        0.005      341.479       16.219      865.313
08/30/2013  03:06:00     -142.400      -15.542       -0.488       60.837       43.080       29.845     3701.154     1855.879      890.700        1.348        0.322      143.246       32.392        0.051      341.365       16.026      865.340
08/30/2013  03:07:00     -101.208      -45.394        4.603       46.543       38.424       24.879     2166.284     1476.439      618.945        0.829        0.213      110.922       23.570        0.045      341.364       16.025      865.358
08/30/2013  03:08:00      -94.013      -52.521       -2.537       25.296       23.298       19.745      639.907      542.805      389.883        0.659        0.079      107.689       13.523        0.016      341.376       16.046      865.360
08/30/2013  03:09:00      -99.127      -31.707      -12.862       22.426       13.617       13.390      502.917      185.416      179.291        0.593        0.043      104.075        8.969        0.007      341.400       16.086      865.356
08/30/2013  03:10:00      -57.141      -44.854       -4.276       28.754       17.718       16.942      826.771      313.917      287.016        0.336        0.071       72.643       15.741        0.047      341.403       16.093      865.349
08/30/2013  03:11:00      -82.300      -24.453      -13.823       18.157       14.692       12.843      329.678      215.848      164.935        0.414        0.036       85.856        6.892        0.006      341.480       16.221      865.345
08/30/2013  03:12:00      -97.248      -44.585      -15.461       10.964       12.499        6.896      120.201      156.226       47.551        0.600        0.016      106.981        5.479        0.003      341.372       16.038      865.350
08/30/2013  03:13:00      -79.322      -67.632       -7.067       29.452       25.705       16.000      867.407      660.757      255.985        0.635        0.089      104.240       13.882        0.018      341.406       16.098      865.355
08/30/2013  03:14:00      -40.373      -51.511       14.664       45.902       31.929       27.353     2106.971     1019.490      748.189        0.419        0.194       65.448       27.276        0.174      341.335       15.976      865.363
08/30/2013  03:15:00      -84.057      -75.741        2.951       42.090       34.389       18.191     1771.591     1182.575      330.924        0.805        0.164      113.147       21.692        0.037      341.456       16.179      865.362
08/30/2013  03:16:00      -87.986      -56.559       -6.215       27.102       22.762       18.336      734.506      518.088      336.200        0.628        0.079      104.597       14.676        0.020      341.484       16.228      865.349
08/30/2013  03:17:00     -104.508      -46.447      -14.182       22.035       19.036       11.197      485.541      362.371      125.378        0.713        0.049      114.365        9.117        0.006      341.419       16.118      865.325
08/30/2013  03:18:00      -86.179      -50.697        2.880       33.284       23.114       18.508     1107.813      534.250      342.563        0.599        0.099       99.985       19.145        0.037      341.281       15.884      865.297
08/30/2013  03:19:00      -71.096      -48.838        3.745       33.103       29.588       18.608     1095.839      875.421      346.263        0.489        0.116       86.254       19.117        0.049      341.294       15.906      865.295
08/30/2013  03:20:00     -115.598      -48.597       -7.536       20.105       24.254       12.117      404.228      588.259      146.810        0.846        0.057      125.397       11.884        0.009      341.325       15.960      865.297
08/30/2013  03:21:00     -130.679      -30.125      -12.275       29.218       19.958       13.010      853.703      398.302      169.257        0.978        0.071      134.107       14.934        0.012      341.261       15.850      865.295
08/30/2013  03:22:00     -112.699      -26.800       -9.508       24.752       20.657       14.739      612.660      426.698      217.248        0.738        0.063      115.842       14.044        0.015      341.256       15.842      865.285
08/30/2013  03:23:00     -113.178      -25.142       -9.468       32.666       21.426       16.059     1067.050      459.073      257.893        0.766        0.089      115.937       18.239        0.025      341.265       15.858      865.299
08/30/2013  03:24:00     -119.907      -46.199       -0.190       20.191       21.835       12.845      407.677      476.785      164.984        0.878        0.052      128.499       12.337        0.009      341.277       15.878      865.313
08/30/2013  03:25:00     -126.190      -44.497      -10.987       17.263       14.172       12.455      298.008      200.842      155.116        0.934        0.033      133.806        7.697        0.003      341.211       15.767      865.331
08/30/2013  03:26:00      -96.629      -58.681       -2.527       19.742       16.679       14.073      389.734      278.183      198.041        0.683        0.043      113.051        8.116        0.005      341.165       15.690      865.347
08/30/2013  03:27:00      -74.068      -45.862       -2.837       27.228       17.624       15.138      741.359      310.614      229.147        0.444        0.064       87.117       13.146        0.023      341.180       15.714      865.349
08/30/2013  03:28:00      -77.722      -42.458        0.106       32.542       17.973       13.299     1058.969      323.042      176.874        0.470        0.078       88.563       13.458        0.023      341.220       15.781      865.348
08/30/2013  03:29:00     -103.117      -53.553       -5.822       14.511       23.348       12.544      210.569      545.122      157.346        0.722        0.046      116.194        8.728        0.006      341.302       15.920      865.351
08/30/2013  03:30:00     -118.676      -32.279      -17.356       11.986       12.194        8.495      143.666      148.691       72.161        0.790        0.018      122.987        4.259        0.001      341.168       15.694      865.353
08/30/2013  03:31:00     -106.627      -39.984       -6.605       24.460       15.822       13.515      598.272      250.340      182.664        0.702        0.052      113.877        8.855        0.006      341.151       15.665      865.359
08/30/2013  03:32:00      -61.321      -37.884        2.553       21.451       20.068       17.706      460.155      402.744      313.505        0.319        0.059       72.079       11.133        0.024      341.115       15.603      865.348
08/30/2013  03:33:00      -73.999      -53.276       -5.922       25.464       23.144       18.318      648.435      535.665      335.538        0.493        0.076       91.182       15.134        0.028      341.109       15.594      865.335
08/30/2013  03:34:00      -81.994      -55.014       -7.284       22.851       21.647       15.475      522.171      468.603      239.478        0.552        0.062       98.740       13.477        0.019      341.198       15.744      865.325
08/30/2013  03:35:00     -104.415      -55.041       -4.129       22.851       21.305       16.529      522.177      453.901      273.203        0.760        0.062      118.034       13.850        0.014      341.189       15.729      865.326
08/30/2013  03:36:00     -100.576      -29.892      -13.878       19.252       16.667        9.571      370.647      277.784       91.601        0.597        0.037      104.924        5.658        0.003      341.187       15.726      865.328
08/30/2013  03:37:00      -99.303      -41.346       -2.050       21.759       15.567       11.019      473.439      242.346      121.420        0.621        0.042      107.566       12.250        0.013      341.137       15.641      865.321
08/30/2013  03:38:00      -69.094      -31.794        0.699       34.156       25.318       18.560     1166.663      640.985      344.467        0.397        0.108       76.058       21.140        0.077      341.085       15.553      865.326
08/30/2013  03:39:00      -60.494      -29.148       -2.660       12.490       11.592       10.408      155.997      134.372      108.323        0.246        0.020       67.150        6.190        0.008      341.074       15.536      865.321
08/30/2013  03:40:00      -64.343      -32.635       -9.857        7.721        9.758        6.708       59.615       95.216       44.992        0.275        0.010       72.146        1.680        0.001      341.200       15.749      865.316
08/30/2013  03:41:00      -65.879      -31.720      -11.637        8.090        8.082        7.250       65.447       65.325       52.567        0.283        0.009       73.118        4.867        0.004      341.278       15.880      865.323
08/30/2013  03:42:00      -74.514      -33.198      -16.786        7.414        9.057        8.771       54.965       82.038       76.939        0.358        0.011       81.575        1.959        0.001      341.224       15.789      865.305
08/30/2013  03:43:00     -104.377      -47.977      -14.951       23.688       23.797       11.205      561.099      566.289      125.550        0.734        0.063      114.875       10.195        0.008      341.157       15.675      865.301
08/30/2013  03:44:00     -165.345      -78.902      -13.961       19.461       15.974       13.618      378.730      255.173      185.438        1.729        0.041      183.206       11.265        0.004      341.105       15.585      865.289
08/30/2013  03:45:00     -133.176      -45.151       -1.028       47.598       38.931       23.885     2265.589     1515.643      570.515        1.206        0.218      140.622       27.000        0.037      340.946       15.318      865.285
08/30/2013  03:46:00     -144.940      -25.184       -0.584       51.791       48.761       28.065     2682.323     2377.591      787.623        1.374        0.292      147.112       24.437        0.028      340.831       15.124      865.273
08/30/2013  03:47:00     -122.582      -80.598        0.229       53.736       43.669       29.237     2887.560     1907.003      854.779        1.358        0.282      146.705       26.926        0.034      340.801       15.072      865.281
08/30/2013  03:48:00      -93.230      -80.370       -2.184       50.340       42.704       27.360     2534.116     1823.635      748.578        1.013        0.255      123.091       28.902        0.055      340.835       15.130      865.293
08/30/2013  03:49:00     -113.692      -39.479       -2.068       38.615       33.376       20.247     1491.089     1113.981      409.941        0.875        0.151      120.351       21.360        0.032      340.974       15.365      865.300
08/30/2013  03:50:00     -104.560      -26.449       -3.036       25.324       26.741       16.507      641.318      715.073      272.473        0.663        0.081      107.853       16.197        0.023      340.930       15.289      865.294
08/30/2013  03:51:00      -69.602      -34.287       -3.506       18.703       20.641       14.347      349.803      426.031      205.841        0.351        0.049       77.589       10.560        0.019      340.982       15.379      865.284
08/30/2013  03:52:00      -52.789       20.102       -1.509       28.496       31.567       20.321      811.996      996.476      412.942        0.271        0.111       56.487       10.845        0.037      341.017       15.438      865.266
08/30/2013  03:53:00      -57.952       21.006      -11.332       24.722       26.578       16.710      611.182      706.408      279.218        0.276        0.080       61.642       13.144        0.045      341.119       15.612      865.266
08/30/2013  03:54:00      -20.255       14.391       -5.559       21.054       24.141       12.304      443.251      582.768      151.376        0.091        0.059       24.847       11.380        0.210      341.145       15.655      865.281
08/30/2013  03:55:00        8.069      -23.142       -7.547       15.109       11.700        9.650      228.278      136.901       93.130        0.056        0.023       24.508        7.280        0.088      341.251       15.833      865.296
08/30/2013  03:56:00        1.553      -21.344       -3.802       13.137       11.472       11.468      172.572      131.618      131.524        0.045        0.022       21.401        6.348        0.088      341.251       15.835      865.309
08/30/2013  03:57:00      -19.980      -29.686        0.743       35.839       17.363       12.056     1284.460      301.473      145.339        0.151        0.087       35.783       10.586        0.088      341.220       15.781      865.288
08/30/2013  03:58:00      -35.059      -22.777       -4.807       25.161       13.924       16.016      633.070      193.870      256.514        0.143        0.054       41.808       10.546        0.064      341.147       15.658      865.273
08/30/2013  03:59:00        6.012      -35.333        1.965       19.690       12.494       16.937      387.688      156.107      286.870        0.106        0.042       35.841        6.264        0.031      341.153       15.669      865.265
08/30/2013  04:00:00      -98.193      -44.899      -14.171       19.646       11.489       11.033      385.959      131.987      121.722        0.625        0.032      107.971        8.333        0.006      341.111       15.598      865.254
08/30/2013  04:01:00     -124.722      -40.753      -16.363       10.851       16.002       11.657      117.738      256.060      135.882        0.900        0.025      131.211        4.755        0.001      341.074       15.535      865.230
08/30/2013  04:02:00     -118.659      -25.533      -19.189       13.072        9.495        9.182      170.870       90.159       84.305        0.772        0.017      121.375        3.507        0.001      340.989       15.392      865.210
08/30/2013  04:03:00      -89.205      -35.564       -9.146       16.957       18.552       12.466      287.530      344.181      155.400        0.505        0.039       96.033        8.534        0.008      341.000       15.411      865.196
08/30/2013  04:04:00      -51.702      -28.422       -3.114       19.230       17.274       12.918      369.775      298.396      166.885        0.216        0.042       58.999        4.574        0.006      340.998       15.406      865.202
08/30/2013  04:05:00      -54.702      -38.427      -13.049       34.798       22.284       15.237     1210.888      496.591      232.163        0.329        0.097       66.850        6.808        0.010      341.131       15.630      865.227
08/30/2013  04:06:00      -40.982      -32.518        2.816       33.611       25.466       19.037     1129.673      648.494      362.397        0.244        0.107       52.316       13.303        0.065      341.018       15.440      865.244
08/30/2013  04:07:00      -16.671      -45.942        9.286       27.610       27.673       19.778      762.325      765.802      391.158        0.220        0.096       48.873       16.201        0.110      341.060       15.510      865.255
08/30/2013  04:08:00      -80.841      -72.663       -7.492       35.367       34.960       20.464     1250.845     1222.203      418.758        0.738        0.145      108.697       24.072        0.049      341.057       15.506      865.260
08/30/2013  04:09:00     -106.596      -56.566       -4.413       38.233       27.131       15.994     1461.770      736.096      255.818        0.852        0.123      120.675       12.384        0.011      341.002       15.412      865.264
08/30/2013  04:10:00      -91.854      -57.806       -5.230       35.390       22.310       17.069     1252.480      497.738      291.362        0.692        0.102      108.530       16.214        0.022      340.876       15.201      865.275
08/30/2013  04:11:00      -99.527      -46.162       -6.336       22.487       23.916       17.175      505.687      571.970      294.990        0.672        0.069      109.711       10.484        0.009      340.840       15.137      865.289
08/30/2013  04:12:00      -83.103      -42.000        3.943       53.023       37.088       21.928     2811.426     1375.501      480.849        0.668        0.233       93.114       26.614        0.082      340.756       14.997      865.301
08/30/2013  04:13:00      -70.798      -49.868        2.030       38.483       24.979       22.178     1480.941      623.928      491.874        0.505        0.130       86.598       20.088        0.054      340.809       15.085      865.304
08/30/2013  04:14:00      -10.076      -54.417       11.844       38.164       44.410       26.361     1456.506     1972.283      694.916        0.366        0.206       55.342       24.425        0.195      340.903       15.244      865.310
08/30/2013  04:15:00      -34.751      -79.303       -0.536       39.087       37.205       23.444     1527.802     1384.225      549.606        0.548        0.173       86.583       22.539        0.068      340.953       15.330      865.310
08/30/2013  04:16:00       -6.361      -32.987       -7.674       26.409       20.581       17.983      697.429      423.575      323.384        0.132        0.072       33.595        8.143        0.059      341.137       15.641      865.299
08/30/2013  04:17:00      -45.134      -35.864       -5.675       18.925       19.423       15.734      358.152      377.248      247.564        0.217        0.049       57.648        8.135        0.020      341.159       15.679      865.281
08/30/2013  04:18:00      -53.560      -16.453       -1.923       38.339       22.682       16.737     1469.887      514.450      280.138        0.270        0.113       56.031       14.521        0.067      341.051       15.495      865.280
08/30/2013  04:19:00      -54.111      -30.372       10.873       51.860       29.773       19.620     2689.474      886.443      384.962        0.396        0.198       62.052       20.311        0.107      340.952       15.328      865.282
08/30/2013  04:20:00     -123.016      -54.087       -7.567       29.064       29.845       17.108      844.720      890.724      292.686        1.007        0.101      134.381       13.283        0.010      340.930       15.292      865.276
08/30/2013  04:21:00     -116.194      -77.041       -5.245       23.363       20.857       15.809      545.828      435.011      249.920        1.035        0.062      139.414       12.422        0.008      340.897       15.235      865.274
08/30/2013  04:22:00      -73.156      -78.348       -1.457       55.003       32.943       32.949     3025.348     1085.273     1085.653        0.834        0.260      107.192       29.489        0.076      340.861       15.174      865.288
08/30/2013  04:23:00      -86.726      -68.062        5.490       61.491       41.130       34.209     3781.169     1691.694     1170.248        0.941        0.332      110.244       34.455        0.098      340.832       15.126      865.320
08/30/2013  04:24:00      -93.793      -72.507       -1.458       44.768       36.867       26.928     2004.193     1359.196      725.094        0.907        0.204      118.551       22.829        0.037      340.951       15.326      865.343
08/30/2013  04:25:00     -116.999      -80.470      -12.121       37.893       34.833       23.149     1435.888     1213.364      535.871        1.175        0.159      142.000       11.059        0.006      340.975       15.367      865.339
08/30/2013  04:26:00      -58.651      -66.207       -2.159       43.324       30.805       22.393     1876.987      948.968      501.435        0.558        0.166       88.449       20.589        0.054      340.955       15.334      865.335
08/30/2013  04:27:00      -47.453      -61.733       -0.173       42.381       30.063       22.125     1796.177      903.786      489.527        0.463        0.159       77.863       18.261        0.055      340.956       15.334      865.346
08/30/2013  04:28:00      -52.864      -48.391       -0.431       32.843       31.807       20.382     1078.689     1011.673      415.434        0.382        0.125       71.668       21.122        0.087      340.827       15.114      865.366
08/30/2013  04:29:00      -69.575      -65.847        5.586       43.657       44.418       29.097     1905.919     1972.982      846.643        0.697        0.236       95.794       31.164        0.106      340.795       15.063      865.373
08/30/2013  04:30:00      -81.590      -83.691        7.274       47.751       56.687       30.693     2280.145     3213.421      942.058        1.007        0.322      116.881       26.815        0.053      340.781       15.038      865.373
08/30/2013  04:31:00     -117.765      -84.528        5.414       59.945       39.670       28.273     3593.461     1573.737      799.345        1.350        0.298      144.961       30.827        0.045      340.804       15.076      865.361
08/30/2013  04:32:00      -79.073      -61.056        3.432       41.936       29.402       20.095     1758.636      864.471      403.818        0.651        0.151       99.902       16.122        0.026      340.836       15.131      865.361
08/30/2013  04:33:00      -44.938      -53.199        0.555       20.395       29.028       11.877      415.963      842.617      141.053        0.312        0.070       69.638        9.766        0.020      340.885       15.214      865.367
08/30/2013  04:34:00      -64.397      -44.384      -10.952       12.951       20.205        9.781      167.716      408.248       95.666        0.345        0.034       78.210        9.352        0.014      340.967       15.354      865.366
08/30/2013  04:35:00      -82.559      -22.507       -7.572       11.311       14.313       10.813      127.944      204.869      116.916        0.391        0.022       85.571        3.889        0.002      340.946       15.316      865.345
08/30/2013  04:36:00      -92.535       -4.470      -12.124       16.611       12.635       12.380      275.926      159.633      153.268        0.466        0.029       92.643        9.492        0.010      340.847       15.149      865.323
08/30/2013  04:37:00      -97.836      -25.571       -3.339       16.113       11.897        9.758      259.635      141.547       95.214        0.537        0.025      101.123        8.649        0.007      340.771       15.021      865.320
08/30/2013  04:38:00     -111.990      -13.660      -14.310       12.512       12.467        9.203      156.545      155.420       84.700        0.666        0.020      112.820        4.384        0.002      340.681       14.869      865.329
08/30/2013  04:39:00     -108.123      -45.381      -11.763       25.073       20.004       14.825      628.667      400.169      219.795        0.757        0.062      117.260       12.294        0.011      340.558       14.663      865.332
08/30/2013  04:40:00     -137.428      -27.685      -13.632       24.314       22.564       13.993      591.183      509.138      195.791        1.057        0.065      140.189       11.202        0.006      340.558       14.661      865.340
08/30/2013  04:41:00      -86.325      -34.713       -3.192       36.695       28.207       16.342     1346.551      795.636      267.048        0.554        0.120       93.043       19.418        0.044      340.480       14.530      865.364
08/30/2013  04:42:00     -114.122      -62.127       -0.086       30.583       22.015       16.473      935.322      484.640      271.347        0.929        0.085      129.937       16.747        0.017      340.606       14.742      865.384
08/30/2013  04:43:00     -140.200      -61.118       -8.244       26.256       23.756       17.532      689.354      564.365      307.369        1.251        0.078      152.943       13.566        0.008      340.642       14.803      865.402
08/30/2013  04:44:00     -123.589      -66.653       -0.207       34.385       23.273       17.336     1182.306      541.642      300.533        1.087        0.101      140.417       17.814        0.016      340.644       14.806      865.410
08/30/2013  04:45:00     -102.299      -40.675        7.005       40.810       29.186       18.329     1665.474      851.810      335.944        0.751        0.143      110.089       17.387        0.025      340.720       14.937      865.412
08/30/2013  04:46:00      -74.389      -29.469        4.349       25.485       21.304       14.314      649.482      453.840      204.888        0.386        0.065       80.014       12.266        0.024      340.645       14.808      865.406
08/30/2013  04:47:00      -83.525      -15.461       -3.421       18.715       13.605       10.747      350.242      185.105      115.493        0.394        0.033       84.944        9.083        0.011      340.693       14.889      865.387
08/30/2013  04:48:00      -72.585      -14.202      -14.473       12.910       13.593        9.008      166.676      184.777       81.149        0.306        0.022       73.962        6.537        0.008      340.787       15.050      865.373
08/30/2013  04:49:00      -55.103      -26.245       -7.709        6.517       12.420        6.533       42.466      154.263       42.681        0.201        0.012       61.033        2.536        0.002      340.733       14.957      865.366
08/30/2013  04:50:00      -28.752      -29.189       -4.019       13.386       10.837       10.597      179.177      117.446      112.298        0.105        0.020       40.972        5.446        0.018      340.784       15.045      865.379
08/30/2013  04:51:00      -74.183      -28.485       -7.830       25.946       15.105       11.542      673.214      228.173      133.212        0.370        0.052       79.464        9.398        0.014      340.715       14.927      865.396
08/30/2013  04:52:00     -141.301      -57.801      -17.642       26.314       19.249       12.599      692.418      370.526      158.743        1.242        0.061      152.666       10.708        0.005      340.565       14.674      865.415
08/30/2013  04:53:00     -150.456      -88.198      -13.152       28.875       24.792       18.783      833.793      614.653      352.807        1.619        0.090      174.402       13.374        0.006      340.385       14.369      865.446
08/30/2013  04:54:00      -75.693      -47.307       -3.149       68.612       37.737       27.329     4707.589     1424.096      746.853        0.743        0.344       89.260       28.561        0.102      340.302       14.228      865.467
08/30/2013  04:55:00      -33.665      -30.765        1.833       36.652       33.685       19.179     1343.345     1134.671      367.835        0.246        0.142       45.605       16.727        0.135      340.320       14.259      865.467
08/30/2013  04:56:00      -85.076      -40.095       -4.944       25.827       28.013       15.810      667.015      784.708      249.957        0.529        0.085       94.051       11.759        0.016      340.444       14.469      865.449
08/30/2013  04:57:00      -94.551      -46.842       -7.559       20.297       19.624       11.487      411.963      385.113      131.960        0.606        0.046      105.518       11.689        0.012      340.424       14.433      865.431
08/30/2013  04:58:00      -75.821      -49.503       -1.248       31.517       19.013       13.867      993.346      361.476      192.280        0.487        0.077       90.550       10.422        0.013      340.462       14.500      865.432
08/30/2013  04:59:00      -72.760      -64.013        6.233       39.145       32.223       24.910     1532.339     1038.303      620.527        0.631        0.160       96.910       21.335        0.048      340.548       14.644      865.434
08/30/2013  05:00:00     -121.226      -78.119        1.264       55.091       51.138       26.580     3034.998     2615.130      706.522        1.358        0.318      144.216       28.983        0.040      340.612       14.752      865.431
08/30/2013  05:01:00     -151.797      -94.104       -4.452       57.674       54.121       29.144     3326.265     2929.106      849.393        1.951        0.355      178.600       27.073        0.023      340.630       14.781      865.426
08/30/2013  05:02:00     -141.037      -53.524       -5.454       38.544       37.061       23.502     1485.623     1373.532      552.329        1.310        0.171      150.851       22.165        0.022      340.508       14.578      865.422
08/30/2013  05:03:00     -120.344      -61.778       -9.279       49.557       23.589       16.361     2455.913      556.418      267.677        1.083        0.164      135.275       15.293        0.013      340.528       14.611      865.438
08/30/2013  05:04:00     -123.880      -54.417      -10.031       21.280       16.280       16.419      452.828      265.035      269.586        0.970        0.049      135.305       12.864        0.009      340.584       14.705      865.441
08/30/2013  05:05:00     -123.204      -54.175       -9.488       21.787       22.107       15.660      474.674      488.739      245.247        0.971        0.060      134.589       11.296        0.007      340.553       14.655      865.432
08/30/2013  05:06:00     -134.541      -57.090      -10.656       21.796       19.832       11.818      475.083      393.322      139.654        1.124        0.050      146.153        8.674        0.004      340.525       14.606      865.441
08/30/2013  05:07:00      -78.303      -53.471        9.067       50.580       38.847       23.531     2558.365     1509.057      553.694        0.685        0.231       94.818       22.804        0.058      340.494       14.552      865.444
08/30/2013  05:08:00     -118.507     -103.919        0.758       90.186       50.137       30.518     8133.480     2513.670      931.326        1.821        0.579      157.617       38.415        0.059      340.529       14.611      865.448
08/30/2013  05:09:00     -141.506      -72.852       -9.141       49.211       35.452       22.451     2421.743     1256.823      504.051        1.480        0.209      159.158       25.981        0.027      340.613       14.756      865.459
08/30/2013  05:10:00     -132.117      -58.704       -5.260       39.901       30.352       19.579     1592.089      921.272      383.336        1.191        0.145      144.572       18.147        0.016      340.524       14.604      865.469
08/30/2013  05:11:00      -70.276      -65.533        6.861       54.723       29.877       28.051     2994.616      892.634      786.858        0.698        0.234       96.090       29.224        0.092      340.517       14.591      865.468
08/30/2013  05:12:00     -100.147      -48.155       -2.089       38.130       32.617       22.554     1453.920     1063.891      508.681        0.769        0.151      111.123       19.625        0.031      340.546       14.640      865.451
08/30/2013  05:13:00      -90.006      -25.709       -6.385       16.127       23.747       10.581      260.081      563.921      111.959        0.487        0.047       93.606        5.126        0.003      340.545       14.641      865.430
08/30/2013  05:14:00     -113.803       15.766      -12.479       25.716       18.078       14.615      661.319      326.817      213.603        0.728        0.060      114.890       13.066        0.013      340.503       14.568      865.412
08/30/2013  05:15:00     -124.952        0.087      -11.435       20.635       21.321       12.643      425.804      454.571      159.836        0.839        0.052      124.952       10.063        0.006      340.646       14.810      865.404
08/30/2013  05:16:00      -92.932        4.478       -6.346       35.648       31.657       18.504     1270.785     1002.177      342.398        0.566        0.131       93.040       18.457        0.039      340.581       14.701      865.418
08/30/2013  05:17:00      -24.075       -1.824       12.276       30.110       22.624       18.844      906.629      511.834      355.101        0.125        0.089       24.144       19.259        0.636      340.496       14.557      865.444
08/30/2013  05:18:00      -22.519      -16.646        1.768       23.204       10.505       12.471      538.403      110.350      155.522        0.080        0.040       28.004       12.529        0.200      340.604       14.741      865.451
08/30/2013  05:19:00        2.396        1.982        8.496       16.365       10.607       14.524      267.804      112.499      210.945        0.034        0.030        3.110       14.023       20.335      340.562       14.669      865.459
08/30/2013  05:20:00      -91.767      -46.491      -15.650       26.100       21.941       10.690      681.199      481.410      114.266        0.605        0.064      102.872        7.332        0.005      340.377       14.355      865.479
08/30/2013  05:21:00      -90.302      -47.307      -19.258       19.360       18.207       10.409      374.807      331.487      108.343        0.579        0.041      101.943        7.283        0.005      340.403       14.400      865.494
08/30/2013  05:22:00      -96.337      -41.834      -10.862       20.054       14.661       10.875      402.153      214.934      118.276        0.594        0.037      105.028        8.305        0.006      340.297       14.220      865.497
08/30/2013  05:23:00      -61.818      -53.212       -1.621       40.475       37.819       29.469     1638.224     1430.312      868.446        0.530        0.197       81.566       11.467        0.020      340.298       14.222      865.490
08/30/2013  05:24:00     -102.496      -71.723        3.924       41.081       34.919       27.040     1687.623     1219.339      731.188        0.965        0.182      125.098       21.827        0.030      340.385       14.368      865.511
08/30/2013  05:25:00      -74.961      -63.932        3.576       55.573       42.475       25.465     3088.325     1804.096      648.459        0.763        0.277       98.521       27.939        0.080      340.488       14.542      865.534
08/30/2013  05:26:00     -131.631      -96.890        3.179       52.600       42.778       33.544     2766.717     1829.946     1125.182        1.622        0.286      163.446       28.530        0.030      340.485       14.537      865.558
08/30/2013  05:27:00     -121.707      -67.138        6.800       48.115       38.888       27.574     2315.096     1512.275      760.351        1.198        0.229      138.997       29.844        0.046      340.367       14.338      865.566
08/30/2013  05:28:00     -121.577      -29.676       -7.117       24.288       24.368       13.459      589.930      593.804      181.149        0.854        0.068      125.147       14.367        0.013      340.444       14.468      865.570
08/30/2013  05:29:00     -106.206      -38.891       -7.489       29.468       28.322       15.652      868.392      802.108      244.990        0.738        0.096      113.103       13.942        0.015      340.479       14.528      865.555
08/30/2013  05:30:00     -107.280      -19.691       -0.594       16.718       19.014       13.290      279.483      361.545      176.616        0.636        0.041      109.072        8.153        0.006      340.486       14.538      865.552
08/30/2013  05:31:00      -68.224      -35.424        3.235       20.989       23.660       11.979      440.523      559.772      143.491        0.353        0.057       76.872        9.232        0.014      340.487       14.542      865.561
08/30/2013  05:32:00      -50.943        0.018        0.090       12.441       16.993        8.857      154.781      288.767       78.442        0.156        0.026       50.943        5.817        0.013      340.382       14.363      865.581
08/30/2013  05:33:00      -15.357      -18.180        1.532       17.506       14.302        9.140      306.470      204.539       83.548        0.058        0.030       23.798        6.617        0.077      340.443       14.468      865.588
08/30/2013  05:34:00      -42.226      -17.220       -4.905       23.940       13.897       12.478      573.132      193.126      155.695        0.151        0.046       45.602        6.021        0.017      340.428       14.442      865.593
08/30/2013  05:35:00      -30.781      -18.790        0.830       25.926       15.567        7.244      672.179      242.337       52.470        0.113        0.048       36.063        8.810        0.060      340.457       14.492      865.588
08/30/2013  05:36:00      -61.644      -19.795       -2.236        9.369       15.371        9.195       87.771      236.267       84.546        0.230        0.020       64.744        9.078        0.020      340.533       14.619      865.572
08/30/2013  05:37:00      -24.437      -25.687       -5.865       29.311       12.871       13.038      859.147      165.651      169.981        0.124        0.060       35.454       10.123        0.082      340.544       14.637      865.567
08/30/2013  05:38:00      -14.694      -20.129        4.189       20.382       13.145        6.686      415.419      172.778       44.700        0.064        0.032       24.922        6.035        0.059      340.458       14.494      865.569
08/30/2013  05:39:00     -101.587      -54.588       -2.644       31.025       25.426       19.824      962.531      646.487      392.975        0.765        0.100      115.324       17.163        0.022      340.394       14.384      865.573
08/30/2013  05:40:00     -154.261     -105.503       -8.384       60.510       45.796       23.838     3661.479     2097.301      568.244        2.066        0.316      186.889       27.112        0.021      340.382       14.363      865.577
08/30/2013  05:41:00     -152.176      -55.369      -13.898       36.436       39.206       22.049     1327.556     1537.105      486.153        1.488        0.168      161.936       20.926        0.017      340.306       14.237      865.576
08/30/2013  05:42:00     -167.465      -41.179       -9.862       32.104       28.781       16.972     1030.648      828.359      288.033        1.599        0.107      172.453       11.988        0.005      340.228       14.102      865.584
08/30/2013  05:43:00      -73.210      -54.627        6.262       32.786       33.089       24.190     1074.942     1094.870      585.148        0.557        0.138       91.345       21.699        0.056      340.165       13.998      865.603
08/30/2013  05:44:00      -45.710      -51.252        8.153       49.056       35.023       25.518     2406.478     1226.633      651.193        0.453        0.214       68.675       29.989        0.191      340.263       14.162      865.612
08/30/2013  05:45:00      -93.249      -51.161       -4.254       49.205       20.859       17.215     2421.089      435.115      296.354        0.724        0.158      106.361        9.263        0.008      340.335       14.284      865.611
08/30/2013  05:46:00      -78.642      -41.355        1.944       30.840       25.327       14.926      951.121      641.439      222.792        0.486        0.091       88.853       10.932        0.015      340.353       14.314      865.603
08/30/2013  05:47:00       -7.245      -13.889        7.227       18.227       20.372       15.168      332.221      415.023      230.083        0.064        0.049       15.665        7.245        0.214      340.330       14.276      865.604
08/30/2013  05:48:00      -34.453      -25.703        5.139       23.711       13.028       12.888      562.208      169.726      166.093        0.139        0.045       42.984       12.870        0.090      340.387       14.372      865.617
08/30/2013  05:49:00      -28.175      -23.647       11.901       29.106       16.240       13.720      847.149      263.735      188.228        0.140        0.065       36.783       12.818        0.121      340.309       14.238      865.641
08/30/2013  05:50:00      -68.497      -45.708        1.188       39.632       31.365       18.611     1570.704      983.733      346.351        0.484        0.145       82.347       20.512        0.062      340.229       14.106      865.665
08/30/2013  05:51:00     -129.081      -49.745       -5.693       28.299       23.637       19.945      800.819      558.691      397.795        1.046        0.088      138.335       20.960        0.023      340.250       14.139      865.670
08/30/2013  05:52:00      -53.587      -36.616        2.765       50.700       43.100       22.120     2570.535     1857.638      489.290        0.457        0.246       64.902       25.191        0.151      340.229       14.106      865.657
08/30/2013  05:53:00      -49.339      -24.380        6.986       36.775       31.400       26.347     1352.394      985.974      694.151        0.305        0.152       55.034       25.640        0.217      340.241       14.126      865.641
08/30/2013  05:54:00      -77.798      -52.405        3.474       38.715       37.108       21.998     1498.875     1376.976      483.909        0.608        0.168       93.802       20.957        0.050      340.193       14.044      865.636
08/30/2013  05:55:00      -98.191      -23.917        1.979       47.479       32.857       21.595     2254.281     1079.590      466.338        0.701        0.190      101.062       25.511        0.064      340.196       14.049      865.644
08/30/2013  05:56:00     -104.319      -50.661       -0.554       15.943       27.411       13.092      254.177      751.356      171.411        0.731        0.059      115.970        8.216        0.005      340.186       14.032      865.654
08/30/2013  05:57:00     -121.890      -57.380      -12.544       17.703       20.018       11.072      313.381      400.730      122.578        0.957        0.042      134.721        7.670        0.003      340.204       14.063      865.667
08/30/2013  05:58:00      -93.290      -23.374      -13.867       13.309       11.163       12.663      177.125      124.619      160.362        0.495        0.023       96.174        8.481        0.008      340.169       14.004      865.669
08/30/2013  05:59:00      -20.542      -30.708       -7.366       29.416       15.589        7.517      865.297      243.029       56.506        0.129        0.058       36.946       12.287        0.111      340.251       14.142      865.672
08/30/2013  06:00:00        6.801      -34.520       -1.732       20.473       39.460       17.828      419.125     1557.105      317.839        0.177        0.115       35.183       11.145        0.100      340.386       14.371      865.686
08/30/2013  06:01:00       -0.820      -48.171       -1.107       23.691       16.744       13.674      561.246      280.363      186.990        0.168        0.051       48.178       15.449        0.103      340.336       14.285      865.711
08/30/2013  06:02:00      -26.054      -33.682        4.032       38.711       35.603       19.028     1498.527     1267.569      362.072        0.248        0.156       42.582       22.865        0.288      340.347       14.305      865.737
08/30/2013  06:03:00      -83.744      -83.119      -11.393       44.803       43.431       25.729     2007.346     1886.249      661.998        0.930        0.228      117.991       24.207        0.042      340.299       14.223      865.734
08/30/2013  06:04:00      -95.786      -49.621       -0.126       39.177       38.362       22.769     1534.806     1471.609      518.412        0.758        0.176      107.876       17.146        0.025      340.149       13.970      865.714
08/30/2013  06:05:00      -85.334      -34.713       -7.050       28.147       18.664       16.925      792.244      348.339      286.441        0.498        0.071       92.125       15.566        0.029      340.151       13.973      865.706
08/30/2013  06:06:00      -15.067      -25.433        6.845       20.329       21.768       14.785      413.252      473.829      218.593        0.101        0.055       29.561        4.815        0.027      340.192       14.042      865.721
08/30/2013  06:07:00      -35.557      -43.156        2.166       31.330       24.629       18.944      981.577      606.607      358.889        0.254        0.097       55.917       17.868        0.102      340.216       14.082      865.747
08/30/2013  06:08:00      -74.628      -67.694       -8.689       31.404       21.766       16.152      986.191      473.771      260.873        0.597        0.086      100.756       13.558        0.018      340.244       14.130      865.773
08/30/2013  06:09:00      -63.075      -74.709       -5.356       36.833       33.922       20.786     1356.646     1150.733      432.052        0.626        0.147       97.775       23.371        0.057      340.185       14.033      865.788
08/30/2013  06:10:00      -50.386      -45.574        2.412       24.977       22.782       12.689      623.845      519.017      161.015        0.296        0.065       67.939        9.367        0.019      340.225       14.099      865.800
08/30/2013  06:11:00      -79.651      -26.009       -5.294       18.418       17.153       11.101      339.237      294.241      123.226        0.390        0.038       83.790        9.453        0.013      340.216       14.083      865.807
08/30/2013  06:12:00      -87.319        2.811       -8.080       16.880       15.473        9.364      284.949      239.414       87.685        0.415        0.031       87.364        5.251        0.004      340.004       13.726      865.815
08/30/2013  06:13:00      -91.875       -0.163       -5.792       22.657       18.445       16.982      513.343      340.232      288.403        0.481        0.057       91.875       15.085        0.027      339.965       13.660      865.817
08/30/2013  06:14:00      -95.225        4.142      -13.295       21.204       12.017        8.499      449.601      144.417       72.236        0.496        0.033       95.315        4.727        0.002      339.985       13.692      865.821
08/30/2013  06:15:00      -51.832      -15.057       -5.723       20.426       13.196       12.502      417.205      174.124      156.306        0.185        0.037       53.974       12.286        0.052      339.920       13.583      865.840
08/30/2013  06:16:00      -14.909      -31.669        7.775       27.016       14.770       13.831      729.863      218.149      191.290        0.121        0.057       35.003       12.609        0.130      340.066       13.830      865.865
08/30/2013  06:17:00      -23.893      -52.358        1.777       26.549       26.256       17.423      704.872      689.377      303.550        0.251        0.085       57.552       13.158        0.052      340.162       13.992      865.892
08/30/2013  06:18:00      -42.570      -31.672       -4.741       33.803       22.446       19.568     1142.651      503.824      382.919        0.243        0.101       53.060       21.190        0.159      340.168       14.004      865.894
08/30/2013  06:19:00      -45.023        4.018       -0.217       17.141       13.968       11.728      293.824      195.106      137.545        0.133        0.031       45.202        8.190        0.033      340.101       13.889      865.883
08/30/2013  06:20:00      -36.726       14.692       -2.337        9.284       11.078        4.951       86.189      122.712       24.510        0.090        0.012       39.556        2.674        0.005      340.090       13.872      865.882
08/30/2013  06:21:00      -46.141        0.776       -6.280       12.821        9.642        7.241      164.382       92.976       52.439        0.124        0.015       46.148        6.827        0.022      340.127       13.932      865.879
08/30/2013  06:22:00     -103.370      -23.984       -9.408       19.633       16.644        8.679      385.454      277.026       75.327        0.604        0.037      106.116        8.429        0.006      340.138       13.952      865.890
08/30/2013  06:23:00     -127.856      -56.537       -4.298       16.032       17.148       14.433      257.011      294.062      208.320        1.016        0.038      139.799       10.631        0.006      339.996       13.712      865.908
08/30/2013  06:24:00      -93.961      -12.646       -4.967       35.199       26.858       13.789     1238.938      721.354      190.130        0.558        0.108       94.808       10.127        0.011      339.917       13.578      865.914
08/30/2013  06:25:00     -117.629        9.491      -14.888       13.625       18.385       10.199      185.651      338.009      104.020        0.739        0.031      118.012        7.891        0.004      339.920       13.585      865.902
08/30/2013  06:26:00      -65.788       -7.602       -6.659       21.761       17.585       11.633      473.532      309.230      135.321        0.267        0.046       66.225       10.461        0.025      339.875       13.508      865.880
08/30/2013  06:27:00      -18.936       -6.649       -5.608       17.530       17.986       13.253      307.308      323.480      175.639        0.062        0.040       20.069       12.662        0.398      339.856       13.475      865.878
08/30/2013  06:28:00       13.942      -55.151       -3.687       12.341       17.153       10.657      152.305      294.234      113.580        0.190        0.028       56.886        3.406        0.004      339.976       13.678      865.900
08/30/2013  06:29:00       21.790      -41.194        7.073       15.235       25.518       14.167      232.093      651.187      200.713        0.165        0.054       46.602       11.561        0.062      340.033       13.774      865.922
08/30/2013  06:30:00       -3.047        0.211       10.350       14.462       10.257       11.518      209.148      105.208      132.661        0.028        0.022        3.055        9.597        9.871      339.936       13.610      865.939
08/30/2013  06:31:00      -61.997       -9.944       -7.183       12.501       11.851       10.056      156.268      140.445      101.115        0.220        0.020       62.790        8.865        0.020      340.011       13.736      865.949
08/30/2013  06:32:00      -77.413      -34.520       -1.429       31.162       21.451       15.823      971.066      460.158      250.367        0.443        0.084       84.761        5.543        0.004      340.019       13.751      865.967
08/30/2013  06:33:00      -27.231      -46.283       10.876       30.579       34.456       20.321      935.076     1187.242      412.955        0.277        0.127       53.699       17.967        0.112      339.994       13.710      865.984
08/30/2013  06:34:00      -78.083      -60.279        1.038       43.254       39.621       25.738     1870.869     1569.821      662.462        0.692        0.205       98.643       25.761        0.068      339.979       13.683      865.992
08/30/2013  06:35:00      -81.000      -44.908       -2.955       27.746       30.043       18.483      769.837      902.586      341.633        0.530        0.101       92.616       12.332        0.018      340.034       13.777      865.981
08/30/2013  06:36:00      -39.418       -4.042        0.707       16.338       21.280        9.831      266.916      452.820       96.650        0.119        0.041       39.624        6.342        0.026      339.996       13.714      865.959
08/30/2013  06:37:00      -15.446       15.908        3.429       15.124        9.743        9.547      228.740       94.925       91.151        0.046        0.021       22.173        4.066        0.034      339.997       13.714      865.942
08/30/2013  06:38:00        5.686        3.669        4.819        9.588       20.739        9.337       91.933      430.114       87.186        0.034        0.030        6.767       10.767        2.532      339.956       13.646      865.958
08/30/2013  06:39:00        5.099       -7.595      -14.131       11.532       16.263        9.800      132.995      264.481       96.037        0.039        0.025        9.148        8.156        0.795      339.900       13.549      865.981
08/30/2013  06:40:00      -50.869      -11.340        1.749       37.449       12.899       15.161     1402.455      166.380      229.868        0.226        0.090       52.118       19.091        0.134      340.005       13.726      866.009
08/30/2013  06:41:00      -96.537      -23.465      -11.029       12.194        9.878        7.683      148.697       97.566       59.026        0.515        0.015       99.347        2.798        0.001      340.037       13.781      866.025
08/30/2013  06:42:00      -67.058      -15.474       -7.374       26.316       17.610       14.228      692.557      310.123      202.425        0.300        0.060       68.820        9.023        0.017      339.989       13.700      866.037
08/30/2013  06:43:00      -68.925      -16.781      -10.678       23.664       12.665       12.420      560.002      160.408      154.254        0.301        0.044       70.938       13.325        0.035      339.868       13.497      866.032
08/30/2013  06:44:00      -73.386      -28.206       -9.393       13.885       10.201       10.328      192.796      104.061      106.676        0.334        0.020       78.620        9.095        0.013      339.876       13.508      866.026
08/30/2013  06:45:00      -60.978      -27.790       -9.300       14.607        9.752        6.729      213.364       95.093       45.282        0.247        0.018       67.012        3.944        0.003      339.973       13.674      866.027
08/30/2013  06:46:00      -47.000      -27.170        7.665       40.264       25.192       16.846     1621.170      634.649      283.793        0.277        0.127       54.288       17.122        0.099      339.957       13.647      866.037
08/30/2013  06:47:00     -102.112      -46.516       -7.221       23.639       20.394       13.594      558.790      415.919      184.784        0.690        0.058      112.208        9.484        0.007      340.035       13.779      866.050
08/30/2013  06:48:00      -92.844      -36.831       -2.757       28.346       24.087       19.248      803.501      580.189      370.491        0.587        0.088       99.883       17.731        0.032      340.077       13.848      866.059
08/30/2013  06:49:00      -81.692       -3.337       -5.129       30.659       22.200       17.319      939.974      492.842      299.957        0.422        0.087       81.760       17.102        0.044      339.968       13.666      866.058
08/30/2013  06:50:00     -103.745       -2.226       -8.998       18.437       12.825       11.285      339.939      164.472      127.342        0.574        0.032      103.769        7.926        0.006      339.801       13.384      866.051
08/30/2013  06:51:00      -60.121      -11.877       -1.759       24.641       14.868       11.062      607.181      221.054      122.370        0.235        0.048       61.283       10.879        0.032      339.790       13.366      866.056
08/30/2013  06:52:00      -71.703      -19.901       -8.566       13.637       17.151        9.870      185.967      294.169       97.411        0.309        0.029       74.414        7.587        0.010      339.917       13.578      866.064
08/30/2013  06:53:00      -68.648      -32.258       -4.061       12.605       13.692        9.608      158.889      187.484       92.309        0.310        0.022       75.849        4.380        0.003      339.996       13.713      866.080
08/30/2013  06:54:00      -58.098      -22.783       -2.971       11.487       12.510        7.079      131.950      156.510       50.108        0.212        0.017       62.405        4.936        0.006      340.040       13.787      866.105
08/30/2013  06:55:00      -78.254      -38.414       -3.942       17.623       13.393        8.598      310.558      179.383       73.920        0.409        0.028       87.174        3.870        0.002      340.113       13.909      866.122
08/30/2013  06:56:00      -59.278      -31.416        4.343       37.373       20.282       18.496     1396.773      411.369      342.101        0.333        0.108       67.088       17.869        0.071      340.073       13.841      866.148
08/30/2013  06:57:00     -111.682      -36.876        3.234       35.482       25.507       18.838     1258.944      650.627      354.872        0.805        0.113      117.612       19.556        0.028      340.017       13.747      866.164
08/30/2013  06:58:00      -77.144      -12.481       -1.928       35.856       22.347       22.499     1285.628      499.399      506.203        0.420        0.115       78.147       24.236        0.096      340.001       13.721      866.151
08/30/2013  06:59:00      -63.049       11.511       -7.076       25.835       13.578       12.410      667.424      184.357      154.014        0.258        0.050       64.091        7.190        0.013      339.893       13.539      866.139
08/30/2013  07:00:00      -46.688      -10.368       -4.479       28.524       19.162       12.361      813.625      367.191      152.795        0.182        0.067       47.825       15.125        0.100      339.919       13.583      866.136
08/30/2013  07:01:00      -16.963      -30.561        4.301       30.115       13.208       17.190      906.921      174.445      295.496        0.131        0.069       34.953       16.103        0.212      340.114       13.911      866.163
08/30/2013  07:02:00      -66.568      -42.315       -7.908       25.258       18.834       10.789      637.985      354.734      116.395        0.370        0.055       78.879       10.911        0.019      340.044       13.795      866.191
08/30/2013  07:03:00      -93.318       -4.060      -16.966       13.851       10.467        8.585      191.840      109.557       73.709        0.469        0.019       93.406        2.906        0.001      339.983       13.690      866.197
08/30/2013  07:04:00      -57.083      -10.731       -3.288       19.037       17.821       12.447      362.390      317.585      154.922        0.211        0.042       58.083       10.072        0.030      340.020       13.753      866.179
08/30/2013  07:05:00      -63.355      -18.140       -6.849       11.344       15.789        8.869      128.693      249.288       78.659        0.242        0.023       65.901        6.988        0.011      340.013       13.743      866.173
08/30/2013  07:06:00      -66.227      -35.279      -10.904       12.502       15.794       11.372      156.303      249.463      129.322        0.314        0.027       75.038        6.295        0.007      340.057       13.815      866.188
08/30/2013  07:07:00      -71.666      -44.848       -1.890       25.539       11.614       12.446      652.219      134.879      154.907        0.405        0.047       84.542       14.146        0.028      340.030       13.772      866.207
08/30/2013  07:08:00      -33.651      -26.607        6.440       36.262       21.629       18.461     1314.899      467.794      340.803        0.200        0.106       42.899       21.270        0.246      340.153       13.979      866.235
08/30/2013  07:09:00      -43.521      -44.089        8.281       32.878       25.207       20.185     1080.932      635.399      407.449        0.301        0.106       61.951       20.745        0.112      340.160       13.989      866.264
08/30/2013  07:10:00      -36.437      -43.806       -1.855       25.195       21.576       14.130      634.769      465.529      199.669        0.227        0.065       56.979       10.145        0.032      340.160       13.989      866.264
08/30/2013  07:11:00      -45.349      -24.873        0.847       28.402       21.657       15.780      806.665      469.040      249.013        0.210        0.076       51.723       13.298        0.066      340.222       14.095      866.273
08/30/2013  07:12:00      -58.469      -28.922       -3.907       14.720       20.660       11.173      216.668      426.848      124.833        0.252        0.038       65.231        4.015        0.004      340.233       14.113      866.278
08/30/2013  07:13:00      -82.436       -5.179      -12.516       16.800       10.686       10.650      282.229      114.198      113.417        0.374        0.025       82.598        6.466        0.006      340.257       14.152      866.267
08/30/2013  07:14:00      -70.589       -8.319       -7.152       37.184       14.741       15.411     1382.627      217.300      237.488        0.347        0.092       71.077       17.989        0.064      340.241       14.125      866.272
08/30/2013  07:15:00      -64.415       -8.037       -0.969       46.199       21.442       14.630     2134.348      459.744      214.031        0.351        0.140       64.915       11.411        0.031      340.274       14.182      866.292
08/30/2013  07:16:00     -122.478      -31.583       -8.077       21.660       17.180       10.550      469.167      295.163      111.296        0.847        0.044      126.485       10.653        0.007      340.156       13.982      866.292
08/30/2013  07:17:00     -109.619      -44.302       -0.017       32.159       31.257       17.426     1034.176      977.023      303.669        0.815        0.116      118.232       10.838        0.008      340.227       14.103      866.306
08/30/2013  07:18:00     -146.397      -58.142       -6.988       34.457       34.722       23.715     1187.310     1205.616      562.387        1.391        0.148      157.520       18.958        0.014      340.251       14.141      866.307
08/30/2013  07:19:00     -130.206      -46.870       -0.442       30.849       20.105       12.833      951.646      404.216      164.675        1.034        0.076      138.385       14.646        0.011      340.241       14.125      866.308
08/30/2013  07:20:00      -71.318      -19.745        1.853       35.310       35.229       15.711     1246.818     1241.084      246.838        0.411        0.137       74.001       17.420        0.055      340.320       14.258      866.306
08/30/2013  07:21:00      -42.624       24.010       -9.525       25.781       19.086       14.290      664.676      364.260      204.218        0.186        0.062       48.921       10.405        0.045      340.328       14.270      866.295
08/30/2013  07:22:00      -25.654       -8.472       -1.183       19.729       15.690       10.352      389.225      246.187      107.154        0.074        0.037       27.017        9.100        0.113      340.322       14.263      866.280
08/30/2013  07:23:00      -39.556       11.741       -2.585       19.585       20.526       11.652      383.554      421.300      135.778        0.132        0.047       41.262       11.000        0.071      340.441       14.463      866.278
08/30/2013  07:24:00      -74.387      -20.827       -1.624       22.800       27.573       17.303      519.825      760.282      299.383        0.377        0.079       77.248       10.644        0.019      340.521       14.599      866.303
08/30/2013  07:25:00     -107.444       18.241       -2.255       39.553       23.589       20.082     1564.445      556.440      403.302        0.720        0.126      108.982       19.823        0.033      340.430       14.445      866.330
08/30/2013  07:26:00      -55.646        2.288        0.861       28.583       25.695       20.338      816.980      660.214      413.621        0.250        0.095       55.693       15.961        0.082      340.476       14.522      866.358
08/30/2013  07:27:00      -14.368       -1.490       10.484       34.456       10.556       15.578     1187.210      111.436      242.672        0.093        0.077       14.445       18.466        1.634      340.710       14.918      866.351
08/30/2013  07:28:00       -2.441       -8.516        2.078        9.873        7.853        6.458       97.467       61.677       41.711        0.014        0.010        8.859        1.780        0.040      340.727       14.948      866.351
08/30/2013  07:29:00      -25.380       -2.126        1.045       23.285       10.947        9.753      542.211      119.826       95.118        0.070        0.038       25.469       10.847        0.181      340.824       15.111      866.334
08/30/2013  07:30:00      -66.031      -25.242       -5.466       11.026       15.053        7.355      121.566      226.596       54.096        0.271        0.020       70.691        5.211        0.005      340.723       14.940      866.319
08/30/2013  07:31:00      -60.323      -19.303       -5.624       21.129       10.800        9.537      446.439      116.646       90.960        0.235        0.033       63.336       11.092        0.031      340.790       15.054      866.315
08/30/2013  07:32:00       11.760      -13.944       -6.883       33.510       25.970       21.407     1122.954      674.435      458.240        0.132        0.113       18.241       17.596        0.931      340.756       14.996      866.319
08/30/2013  07:33:00       22.213      -40.013       -8.449       28.742       32.443       19.100      826.101     1052.532      364.821        0.220        0.112       45.765        8.339        0.033      340.611       14.750      866.338
08/30/2013  07:34:00       -9.290        3.185       15.684       23.928       21.367       23.437      572.539      456.530      549.276        0.096        0.079        9.820       21.198        4.659      340.983       15.381      866.355
08/30/2013  07:35:00       16.551        7.029       17.334       15.774       20.439       12.138      248.822      417.762      147.332        0.072        0.041       17.982        9.698        0.291      340.973       15.365      866.366
08/30/2013  07:36:00       10.428      -40.925       -4.991       20.937       13.759       16.391      438.363      189.323      268.663        0.135        0.045       42.233        8.401        0.040      340.907       15.250      866.378
08/30/2013  07:37:00       16.029      -15.063       20.081       13.194       17.942       14.398      174.077      321.917      207.304        0.080        0.035       21.996       11.763        0.286      341.059       15.509      866.378
08/30/2013  07:38:00        0.159        9.845       27.065       15.275       22.683       15.844      233.332      514.529      251.020        0.091        0.050        9.846       14.133        2.060      341.236       15.808      866.376
08/30/2013  07:39:00       -5.948       -7.400        7.900       19.873       13.044       13.685      394.923      170.140      187.291        0.045        0.038        9.495        5.966        0.395      341.300       15.918      866.380
08/30/2013  07:40:00      -35.984      -41.252        1.386       30.845       29.817       19.075      951.419      889.049      363.840        0.260        0.110       54.741       20.997        0.147      341.132       15.634      866.398
08/30/2013  07:41:00      -15.795      -27.620       12.237       19.780       39.744       21.107      391.234     1579.549      445.492        0.179        0.121       31.817       20.806        0.428      341.289       15.899      866.412
08/30/2013  07:42:00      -27.237       -1.973       10.657       17.311       24.466       19.347      299.673      598.561      374.311        0.107        0.064       27.308       16.439        0.362      341.309       15.932      866.401
08/30/2013  07:43:00       18.522       12.199       10.605       24.066       24.716       22.916      579.161      610.860      525.149        0.116        0.086       22.179       15.724        0.503      341.189       15.728      866.379
08/30/2013  07:44:00       28.502      -11.524       11.129       28.090       24.750       23.135      789.023      612.577      535.250        0.150        0.097       30.744       17.433        0.322      341.059       15.510      866.368
08/30/2013  07:45:00       23.905      -22.571       11.666       25.569       20.076       23.148      653.780      403.049      535.809        0.140        0.080       32.877       16.609        0.255      341.063       15.515      866.353
08/30/2013  07:46:00       10.292       17.998        8.820       16.266       15.413       15.285      264.592      237.573      233.637        0.062        0.037       20.733       12.140        0.343      341.289       15.899      866.361
08/30/2013  07:47:00       -6.352        5.374       11.133        9.986       10.906        9.031       99.729      118.950       81.560        0.025        0.015        8.320        3.641        0.192      341.265       15.857      866.396
08/30/2013  07:48:00      -51.776      -12.813       -4.711       18.950       25.848       15.560      359.120      668.097      242.110        0.207        0.063       53.338       15.443        0.084      341.123       15.619      866.445
08/30/2013  07:49:00      -43.515      -41.489       -9.052       26.194       10.962       10.413      686.131      120.162      108.432        0.231        0.046       60.124        5.420        0.008      341.205       15.756      866.479
08/30/2013  07:50:00      -81.741      -55.749       -1.724       44.474       33.107       24.052     1977.942     1096.044      578.505        0.672        0.183       98.942       23.555        0.057      341.300       15.917      866.472
08/30/2013  07:51:00      -82.686      -34.246       -3.411       22.698       25.203       10.380      515.200      635.199      107.745        0.464        0.063       89.497        8.362        0.009      341.308       15.928      866.441
08/30/2013  07:52:00      -12.115        2.037       16.918       24.247       11.334       17.716      587.924      128.466      313.871        0.073        0.052       12.285       18.398        2.243      341.749       16.678      866.405
08/30/2013  07:53:00       11.277       26.764        8.699       14.590       18.603       19.879      212.871      346.075      395.176        0.094        0.048       29.043       14.529        0.250      341.674       16.550      866.391
08/30/2013  07:54:00       60.252       52.559       13.905       25.809       25.833       24.660      666.109      667.318      608.126        0.426        0.097       79.955       13.472        0.028      341.593       16.413      866.381
08/30/2013  07:55:00       42.414       21.000       24.094       19.466       32.129       24.023      378.906     1032.256      577.110        0.240        0.099       47.328       19.692        0.173      341.475       16.212      866.386
08/30/2013  07:56:00       -1.935      -10.553       17.921       11.725       19.138       16.478      137.476      366.259      271.521        0.061        0.039       10.729       14.108        1.729      341.577       16.387      866.398
08/30/2013  07:57:00        0.074       14.108       16.193       15.926       15.955       16.165      253.629      254.574      261.312        0.062        0.038       14.108        7.898        0.313      341.905       16.944      866.412
08/30/2013  07:58:00       -6.501       22.041       -7.792       13.999       16.358       11.480      195.974      267.577      131.797        0.059        0.030       22.980        8.736        0.145      341.647       16.503      866.441
08/30/2013  07:59:00       -8.813       -1.480       14.793       14.816       14.093       13.301      219.505      198.612      176.919        0.045        0.030        8.936       10.319        1.333      342.203       17.449      866.474
08/30/2013  08:00:00      -13.498      -13.981      -13.669       12.735       17.027       11.477      162.187      289.930      131.721        0.057        0.029       19.434        9.360        0.232      341.484       16.228      866.479
08/30/2013  08:01:00       -5.979       15.323       -5.127       17.298       20.624       17.784      299.212      425.364      316.255        0.067        0.052       16.448       12.033        0.535      341.669       16.541      866.441
08/30/2013  08:02:00       17.509       -2.590       10.367       13.505        9.979        8.927      182.384       99.587       79.699        0.039        0.018       17.699        5.300        0.090      341.875       16.892      866.413
08/30/2013  08:03:00       14.190       -3.993       15.910       21.446       29.430       18.741      459.940      866.146      351.219        0.107        0.084       14.741       16.329        1.227      342.038       17.168      866.416
08/30/2013  08:04:00       33.391      -14.465       13.540       29.102       29.843       34.122      846.945      890.595     1164.294        0.220        0.145       36.390       22.471        0.381      341.568       16.370      866.427
08/30/2013  08:05:00      -20.384        7.710        7.525       12.544       10.447       14.269      157.363      109.142      203.610        0.050        0.024       21.794        4.707        0.047      341.649       16.508      866.442
08/30/2013  08:06:00        5.805       -0.933       19.026        9.515        7.295        9.944       90.541       53.218       98.880        0.032        0.012        5.879        6.649        1.279      342.169       17.391      866.447
08/30/2013  08:07:00      -33.600        0.365        3.518       22.303       15.149        6.288      497.413      229.500       39.535        0.095        0.038       33.602        4.656        0.019      341.636       16.486      866.442
08/30/2013  08:08:00      -46.702      -20.172       -6.011       16.031       14.690        9.028      257.005      215.787       81.510        0.159        0.028       50.872        7.104        0.019      341.648       16.507      866.442
08/30/2013  08:09:00      -25.066      -22.019       -7.494       20.183        9.532       10.279      407.361       90.856      105.660        0.089        0.030       33.364        6.201        0.035      341.716       16.624      866.437
08/30/2013  08:10:00       -1.597      -32.425       -7.314       37.833       19.635       16.531     1431.367      385.517      273.281        0.160        0.105       32.464       11.443        0.124      341.569       16.372      866.424
08/30/2013  08:11:00        8.607      -10.858       24.808       22.415       35.422       30.337      502.439     1254.686      920.305        0.174        0.134       13.855       28.776        4.313      341.977       17.067      866.420
08/30/2013  08:12:00       36.227      -21.672        4.981       20.610       25.596       32.778      424.765      655.180     1074.371        0.198        0.108       42.215       20.350        0.232      341.742       16.665      866.421
08/30/2013  08:13:00       -2.657      -15.675      -16.226       25.511       20.930       14.076      650.812      438.061      198.141        0.090        0.064       15.899       10.793        0.461      341.715       16.620      866.417
08/30/2013  08:14:00       18.372        1.140       -4.795       20.981       17.326       21.853      440.210      300.182      477.551        0.079        0.061       18.407       10.928        0.352      341.995       17.094      866.405
08/30/2013  08:15:00       11.223       14.230       27.211       18.276       19.121       16.934      334.004      365.631      286.764        0.103        0.049       18.123       12.661        0.488      342.313       17.635      866.401
08/30/2013  08:16:00       34.872       55.185        3.951       24.175       18.398       20.941      584.424      338.477      438.532        0.282        0.068       65.280       12.380        0.036      341.728       16.642      866.399
08/30/2013  08:17:00       99.004       47.872        7.274       22.749       25.516       19.220      517.499      651.041      369.412        0.684        0.077      109.971        6.122        0.003      341.775       16.722      866.385
08/30/2013  08:18:00      105.562       66.572       -0.094       27.528       29.865       18.502      757.788      891.898      342.320        0.878        0.100      124.800       16.454        0.017      341.950       17.019      866.381
08/30/2013  08:19:00       56.385       38.212       22.438       41.099       26.782       30.443     1689.141      717.263      926.780        0.424        0.167       68.113       23.907        0.123      342.161       17.377      866.389
08/30/2013  08:20:00       75.370       42.042        8.983       28.710       22.354       21.514      824.282      499.717      462.839        0.466        0.089       86.303        4.920        0.003      341.913       16.956      866.399
08/30/2013  08:21:00       54.771       31.780       12.567       22.181       15.089       18.390      492.009      227.671      338.196        0.261        0.053       63.324        7.947        0.016      342.143       17.346      866.406
08/30/2013  08:22:00       55.995       21.396        9.256       31.308       29.104       18.915      980.180      847.042      357.759        0.293        0.109       59.943       13.257        0.049      342.057       17.201      866.409
08/30/2013  08:23:00       93.749       69.891       18.434       18.169       20.525       19.857      330.127      421.270      394.281        0.758        0.057      116.935        8.982        0.006      341.891       16.918      866.409
08/30/2013  08:24:00      100.237       50.698       14.273       44.827       27.052       24.720     2009.480      731.804      611.069        0.809        0.168      112.329       13.253        0.014      341.975       17.060      866.406
08/30/2013  08:25:00       74.830       61.958        6.341       29.652       26.594       22.148      879.237      707.260      490.528        0.578        0.104       97.151       11.214        0.013      342.013       17.126      866.409
08/30/2013  08:26:00       85.507       49.845       25.587       22.618       20.373       26.081      511.580      415.077      680.228        0.603        0.080       98.974       16.095        0.026      342.106       17.283      866.422
08/30/2013  08:27:00      100.453       66.522        5.218       25.110       26.303       26.870      630.505      691.854      721.980        0.829        0.102      120.482       10.976        0.008      342.045       17.180      866.424
08/30/2013  08:28:00        7.003       17.338        6.525       28.540       29.173       30.680      814.559      851.055      941.245        0.150        0.130       18.699       13.655        0.533      342.167       17.387      866.422
08/30/2013  08:29:00       18.765       15.313       37.627       30.149       41.068       25.185      908.978     1686.615      634.266        0.262        0.161       24.220       22.528        0.865      342.237       17.507      866.421
08/30/2013  08:30:00       28.332       29.995       21.475       24.398       29.297       20.715      595.282      858.342      429.116        0.202        0.094       41.260       16.137        0.153      342.205       17.451      866.427
08/30/2013  08:31:00       34.981       36.684       35.291       56.592       50.696       30.889     3202.686     2570.040      954.126        0.527        0.336       50.689       26.579        0.275      342.353       17.703      866.430
08/30/2013  08:32:00       80.364       60.399       40.592       23.366       23.563       22.017      545.976      555.197      484.768        0.667        0.079      100.531       12.425        0.015      342.063       17.210      866.441
08/30/2013  08:33:00       61.073       22.602        3.926       30.757       22.295       16.064      946.004      497.062      258.068        0.298        0.085       65.121       12.480        0.037      342.028       17.150      866.436
08/30/2013  08:34:00       68.934       51.943       17.887       34.010       20.749       23.078     1156.651      430.523      532.576        0.494        0.106       86.313       19.656        0.052      342.189       17.425      866.439
08/30/2013  08:35:00       36.701        8.219        4.219       37.123       41.057       25.182     1378.133     1685.638      634.121        0.256        0.185       37.610       12.647        0.113      342.196       17.437      866.445
08/30/2013  08:36:00        6.171      -46.756       16.708       25.451       32.915       24.578      647.760     1083.392      604.080        0.242        0.117       47.161       14.424        0.094      341.939       17.000      866.460
08/30/2013  08:37:00       38.892      -80.049        3.088       37.184       37.828       24.847     1382.636     1430.972      617.375        0.568        0.172       88.997       17.943        0.041      341.976       17.062      866.466
08/30/2013  08:38:00       58.229       42.376       27.771       28.990       32.803       31.952      840.417     1076.019     1020.934        0.445        0.147       72.017        9.062        0.016      342.233       17.498      866.466
08/30/2013  08:39:00       64.956      -78.045        0.067       58.218       35.991       33.333     3389.377     1295.320     1111.085        0.805        0.290      101.540       36.897        0.132      342.099       17.271      866.468
08/30/2013  08:40:00       69.632      -52.158       -6.975       40.778       28.432       19.152     1662.869      808.389      366.803        0.523        0.142       87.001       14.452        0.028      342.011       17.122      866.469
08/30/2013  08:41:00       75.539      -85.726       -0.999       49.021       38.901       28.726     2403.042     1513.325      825.198        0.890        0.237      114.259       21.198        0.034      341.895       16.927      866.458
08/30/2013  08:42:00       41.823      -74.592       -2.970       32.634       23.874       23.326     1064.985      569.978      544.101        0.475        0.109       85.517       13.254        0.024      342.073       17.228      866.462
08/30/2013  08:43:00       29.429      -25.567       11.702       44.726       37.909       39.649     2000.413     1437.114     1572.014        0.333        0.250       38.984       27.733        0.506      342.550       18.038      866.458
08/30/2013  08:44:00       26.741       -4.303       22.666       25.894       58.190       25.542      670.518     3386.027      652.381        0.298        0.235       27.085       13.362        0.243      342.589       18.105      866.459
08/30/2013  08:45:00       49.621       17.394       10.828       45.862       34.368       28.033     2103.278     1181.187      785.848        0.348        0.204       52.581       27.506        0.274      342.810       18.480      866.468
08/30/2013  08:46:00      122.123       77.665       24.238       31.759       27.659       33.266     1008.638      765.026     1106.646        1.221        0.144      144.727       19.005        0.017      342.494       17.942      866.466
08/30/2013  08:47:00       36.937        5.684       14.800       33.047       67.327       32.501     1092.083     4532.916     1056.343        0.415        0.334       37.372       35.540        0.904      342.255       17.537      866.468
08/30/2013  08:48:00       16.814       24.638       25.958       47.069       53.837       27.322     2215.535     2898.471      746.514        0.371        0.293       29.829       31.809        1.137      342.819       18.495      866.463
08/30/2013  08:49:00       88.791       57.150       20.517       41.397       36.676       34.167     1713.744     1345.165     1167.390        0.790        0.211      105.593       25.930        0.060      342.673       18.247      866.452
08/30/2013  08:50:00       89.685       63.203       10.103       33.689       29.421       35.896     1134.946      865.613     1288.506        0.771        0.164      109.718       24.846        0.051      342.709       18.308      866.436
08/30/2013  08:51:00       57.257       50.224       11.722       37.848       23.377       29.434     1432.448      546.488      866.357        0.439        0.142       76.163       10.168        0.018      342.774       18.420      866.419
08/30/2013  08:52:00       33.293       35.447        7.459       35.337       32.473       33.606     1248.691     1054.487     1129.338        0.293        0.172       48.630       19.890        0.167      342.738       18.358      866.409
08/30/2013  08:53:00       41.288       35.396       12.502       33.974       29.542       23.593     1154.240      872.704      556.628        0.285        0.129       54.383       18.323        0.114      343.087       18.953      866.412
08/30/2013  08:54:00       24.343      -43.332       19.661       32.789       36.937       29.271     1075.118     1364.365      856.801        0.308        0.165       49.701       27.082        0.297      342.865       18.574      866.414
08/30/2013  08:55:00       45.604      -70.735      -11.019       30.551       31.291       24.007      933.387      979.102      576.317        0.485        0.124       84.162       15.258        0.033      342.259       17.543      866.421
08/30/2013  08:56:00       25.091      -15.372       -2.198       23.325       23.512       24.487      544.048      552.825      599.599        0.128        0.085       29.426        7.767        0.070      342.784       18.435      866.422
08/30/2013  08:57:00       34.325       14.934       17.719       31.054       35.358       21.062      964.354     1250.203      443.613        0.219        0.133       37.433       11.696        0.098      343.073       18.928      866.434
08/30/2013  08:58:00       23.086        7.388        2.126       29.292       23.541       20.300      858.024      554.192      412.081        0.121        0.091       24.240       13.311        0.302      343.326       19.358      866.434
08/30/2013  08:59:00       50.512        7.003       14.783       31.547       19.158       23.555      995.228      367.043      554.827        0.237        0.096       50.995       10.840        0.045      343.016       18.831      866.437
08/30/2013  09:00:00       -2.185        5.433       16.086       14.374       14.802       16.069      206.625      219.095      258.201        0.049        0.034        5.856        7.737        1.746      343.614       19.851      866.442
08/30/2013  09:01:00       22.127       35.481        3.884       21.321       33.624       21.410      454.590     1130.592      458.381        0.190        0.102       41.815       15.892        0.144      343.385       19.459      866.443
08/30/2013  09:02:00      -30.656       11.248        8.143       13.593       11.028       14.219      184.760      121.615      202.173        0.082        0.025       32.654        7.432        0.052      343.221       19.180      866.446
08/30/2013  09:03:00      -16.298       16.994       24.637       20.016       25.717       25.231      400.654      661.361      636.583        0.143        0.085       23.546        9.492        0.163      343.756       20.093      866.452
08/30/2013  09:04:00       21.386       25.010       36.825       21.272       21.935       14.892      452.506      481.161      221.777        0.180        0.058       32.907        9.238        0.079      343.887       20.316      866.456
08/30/2013  09:05:00       42.361       33.247       11.231       26.624       21.472       21.961      708.822      461.038      482.271        0.234        0.083       53.850        6.904        0.016      343.290       19.298      866.458
08/30/2013  09:06:00       23.836       14.122       -4.851       19.434       23.597       18.817      377.699      556.818      354.081        0.104        0.064       27.705       14.313        0.267      343.291       19.299      866.451
08/30/2013  09:07:00        4.361       66.430       -9.757       25.919       31.639       23.654      671.803     1001.036      559.503        0.338        0.112       66.573        9.235        0.019      343.372       19.437      866.446
08/30/2013  09:08:00      -11.364       37.575       13.278       13.470       28.308       21.011      181.444      801.367      441.462        0.157        0.071       39.256       15.341        0.153      343.961       20.444      866.445
08/30/2013  09:09:00        3.795       14.862       16.574       14.220       21.616       26.126      202.215      467.246      682.551        0.093        0.068       15.339       16.733        1.190      344.261       20.956      866.432
08/30/2013  09:10:00       -3.335        6.336       24.150       15.389       14.525       12.492      236.822      210.962      156.062        0.062        0.030        7.160        8.013        1.252      344.165       20.791      866.440
08/30/2013  09:11:00      -15.062       17.708       -5.694       22.624       30.111       19.397      511.868      906.668      376.249        0.118        0.090       23.247        6.465        0.077      343.498       19.653      866.442
08/30/2013  09:12:00      -45.558       21.657       -4.795       11.520       14.283       12.661      132.713      204.012      160.302        0.153        0.025       50.444        7.302        0.021      343.194       19.134      866.451
08/30/2013  09:13:00       -8.034        7.613       21.303       17.571       13.002       15.415      308.740      169.039      237.624        0.065        0.036       11.068        9.229        0.695      344.034       20.568      866.460
08/30/2013  09:14:00       -8.242        3.108       15.473       17.770       12.995       17.737      315.775      168.879      314.615        0.056        0.040        8.808       12.008        1.859      343.955       20.432      866.462
08/30/2013  09:15:00       -8.972      -15.010        8.620       17.589       22.389       18.345      309.359      501.266      336.540        0.076        0.057       17.488       10.846        0.385      343.706       20.007      866.461
08/30/2013  09:16:00       49.288       20.429        2.530       25.283       26.819       26.918      639.254      719.266      724.555        0.247        0.104       53.354       16.058        0.091      343.553       19.746      866.455
08/30/2013  09:17:00       30.756       27.718       12.492       24.894       28.454       22.698      619.735      809.625      515.194        0.191        0.097       41.403        5.142        0.015      343.834       20.225      866.446
08/30/2013  09:18:00       58.572       12.208       14.657       23.784       19.863       20.378      565.672      394.527      415.261        0.258        0.069       59.831       11.612        0.038      343.620       19.861      866.439
08/30/2013  09:19:00       43.325       11.834        3.766       19.378       18.556       19.352      375.518      344.313      374.486        0.156        0.055       44.912       10.624        0.056      343.555       19.750      866.435
08/30/2013  09:20:00       28.268        1.217       19.260       22.667       29.408       23.758      513.790      864.834      564.451        0.156        0.097       28.294       16.469        0.339      343.640       19.894      866.443
08/30/2013  09:21:00       12.378       11.447       27.253       21.396       19.617       18.542      457.780      384.810      343.805        0.111        0.059       16.860       11.255        0.446      344.205       20.860      866.450
08/30/2013  09:22:00       10.446       -3.082       19.628       48.868       20.050       14.058     2388.119      402.013      197.638        0.175        0.149       10.891        3.952        0.132      343.600       19.826      866.455
08/30/2013  09:23:00       21.440       11.327       23.600       28.513       21.090       28.554      812.991      444.803      815.319        0.161        0.104       24.248       12.374        0.260      343.650       19.912      866.451
08/30/2013  09:24:00      -13.279       -6.024       24.593       23.009       25.288       18.036      529.428      639.468      325.286        0.116        0.075       14.581       15.688        1.158      343.892       20.325      866.447
08/30/2013  09:25:00       12.755        7.283       -2.519       20.320       22.229       16.802      412.896      494.111      282.313        0.071        0.059       14.688       12.748        0.753      343.719       20.029      866.442
08/30/2013  09:26:00      -29.579        9.863        0.615       20.600       10.971       13.802      424.362      120.355      190.502        0.085        0.037       31.180        7.526        0.058      343.741       20.067      866.437
08/30/2013  09:27:00      -32.661       -5.758      -10.048       17.806       12.962       12.159      317.049      168.009      147.839        0.092        0.032       33.165       12.001        0.131      343.693       19.984      866.438
08/30/2013  09:28:00       -4.472       -6.480       17.595       16.742       16.882       12.975      280.289      285.007      168.349        0.055        0.037        7.873        9.020        1.312      344.166       20.793      866.436
08/30/2013  09:29:00       43.404       -0.420       23.264       33.468       28.253       27.674     1120.074      798.246      765.871        0.255        0.134       43.406       22.112        0.260      343.842       20.241      866.424
08/30/2013  09:30:00       69.051      -40.068       -2.135       29.180       26.936       29.292      851.472      725.570      858.004        0.441        0.122       79.834       14.365        0.032      343.384       19.456      866.407
08/30/2013  09:31:00       20.734       -7.512       15.739       24.547       33.919       28.325      602.565     1150.481      802.295        0.164        0.128       22.053       26.903        1.488      344.083       20.652      866.394
08/30/2013  09:32:00       17.911        8.138       12.080       22.189       30.081       18.459      492.370      904.842      340.750        0.114        0.087       19.673       15.353        0.609      344.205       20.860      866.378
08/30/2013  09:33:00       16.261       41.188       -6.386       25.541       49.791       20.278      652.324     2479.095      411.179        0.277        0.177       44.282       15.812        0.128      344.178       20.812      866.364
08/30/2013  09:34:00       17.363       26.839       20.199       36.911       27.419       21.689     1362.393      751.796      470.411        0.201        0.129       31.966       16.561        0.268      344.743       21.778      866.365
08/30/2013  09:35:00       40.532       11.935       17.995       40.360       21.406       25.486     1628.963      458.210      649.520        0.242        0.137       42.252       21.791        0.266      344.516       21.391      866.364
08/30/2013  09:36:00       26.271        4.115       26.843       32.328       31.690       24.869     1045.124     1004.226      618.487        0.205        0.133       26.592       19.183        0.520      344.324       21.063      866.356
08/30/2013  09:37:00       21.085       15.069       30.972       41.473       34.665       21.769     1719.997     1201.652      473.900        0.251        0.170       25.916       14.862        0.329      344.767       21.822      866.353
08/30/2013  09:38:00       45.640       21.267       26.156       29.527       22.396       25.563      871.867      501.596      653.466        0.262        0.101       50.352       14.479        0.083      344.523       21.404      866.344
08/30/2013  09:39:00       19.691       28.784       31.343       24.960       29.137       23.430      623.005      848.989      548.953        0.211        0.101       34.874       17.626        0.255      344.507       21.376      866.341
08/30/2013  09:40:00       42.154        0.168       29.507       30.282       20.881       23.482      916.971      436.017      551.409        0.228        0.095       42.154       19.535        0.215      344.298       21.017      866.350
08/30/2013  09:41:00       26.688      -13.893       -1.162       19.326       17.141       21.390      373.511      293.826      457.551        0.102        0.056       30.088       14.527        0.233      344.278       20.983      866.354
08/30/2013  09:42:00       44.215       20.420       28.156       48.343       26.170       23.273     2337.081      684.854      541.652        0.336        0.178       48.702       19.001        0.152      344.650       21.619      866.351
08/30/2013  09:43:00       29.493       42.859        7.555       30.811       29.979       30.283      949.308      898.754      917.032        0.276        0.138       52.027       19.599        0.142      344.561       21.467      866.355
08/30/2013  09:44:00       20.994       25.019       -0.914       26.314       24.074       29.362      692.411      579.572      862.101        0.160        0.107       32.660       17.727        0.295      344.491       21.348      866.341
08/30/2013  09:45:00       40.933       37.505       12.946       31.933       22.642       31.312     1019.692      512.676      980.451        0.288        0.126       55.517       16.569        0.089      344.717       21.734      866.328
08/30/2013  09:46:00       77.346       73.400        6.012       44.722       35.913       32.106     2000.092     1289.713     1030.825        0.786        0.216      106.630       28.042        0.069      344.616       21.561      866.312
08/30/2013  09:47:00       86.851       82.019        3.169       35.470       34.935       31.368     1258.127     1220.469      983.952        0.887        0.173      119.458        7.960        0.004      344.447       21.272      866.311
08/30/2013  09:48:00       75.888       49.742       10.956       47.627       38.255       26.700     2268.309     1463.410      712.916        0.640        0.222       90.737       25.237        0.077      344.622       21.571      866.313
08/30/2013  09:49:00      104.332       60.897       15.276       33.010       26.098       27.356     1089.680      681.129      748.368        0.867        0.126      120.804       12.872        0.011      344.181       20.816      866.306
08/30/2013  09:50:00       89.025       56.289       26.481       44.621       34.903       33.045     1991.047     1218.190     1092.002        0.805        0.215      105.328       23.925        0.052      344.385       21.166      866.303
08/30/2013  09:51:00       63.313       62.082       14.625       28.246       28.777       31.068      797.811      828.143      965.197        0.533        0.130       88.672       21.589        0.059      344.431       21.243      866.316
08/30/2013  09:52:00       80.112       61.705        2.380       31.630       30.201       25.190     1000.482      912.102      634.552        0.639        0.127      101.121       19.153        0.036      344.289       21.003      866.314
08/30/2013  09:53:00      113.307       88.631       13.336       69.296       44.255       38.081     4801.946     1958.498     1450.170        1.454        0.411      143.854       34.269        0.057      344.351       21.109      866.321
08/30/2013  09:54:00      123.543       83.785       18.169       30.465       37.481       29.180      928.130     1404.858      851.482        1.290        0.159      149.274       19.651        0.017      344.249       20.935      866.322
08/30/2013  09:55:00       97.362      100.584       43.130       33.521       35.037       39.579     1123.677     1227.596     1566.511        1.269        0.196      139.988       22.372        0.026      344.414       21.215      866.318
08/30/2013  09:56:00       44.710       41.512       34.097       52.097       48.827       35.283     2714.141     2384.083     1244.924        0.561        0.317       61.010       27.911        0.209      344.433       21.247      866.328
08/30/2013  09:57:00       80.690       54.420        5.614       44.302       42.237       26.404     1962.677     1783.956      697.145        0.697        0.222       97.326       16.886        0.030      344.434       21.250      866.318
08/30/2013  09:58:00      104.721       89.667       12.843       33.137       29.265       29.552     1098.075      856.413      873.346        1.100        0.141      137.865       15.859        0.013      344.619       21.567      866.312
08/30/2013  09:59:00       86.251       66.324       16.299       39.076       28.297       31.915     1526.936      800.718     1018.581        0.772        0.167      108.803       13.608        0.016      344.619       21.566      866.318
08/30/2013  10:00:00      101.630       72.377       27.925       49.360       34.577       32.634     2436.373     1195.592     1065.010        1.052        0.235      124.768       29.354        0.055      344.575       21.492      866.312
08/30/2013  10:01:00       41.934       28.004       30.211       34.825       50.543       23.407     1212.797     2554.644      547.907        0.388        0.216       50.425       16.777        0.111      344.769       21.824      866.310
08/30/2013  10:02:00       64.316       95.357       78.479       54.037       30.979       38.226     2920.047      959.672     1461.237        1.236        0.267      115.019       32.809        0.081      344.804       21.884      866.296
08/30/2013  10:03:00       87.879       67.949       48.027       28.177       22.796       29.957      793.927      519.649      897.416        0.843        0.111      111.085       16.158        0.021      344.721       21.742      866.298
08/30/2013  10:04:00       65.517       74.887       24.585       54.636       44.812       32.615     2985.136     2008.123     1063.723        0.828        0.303       99.501       23.688        0.057      345.108       22.404      866.276
08/30/2013  10:05:00        3.681       31.542       10.877       34.430       49.000       25.587     1185.411     2400.970      654.683        0.268        0.212       31.756       28.241        0.791      345.376       22.861      866.271
08/30/2013  10:06:00       -0.643       62.620        6.018       21.616       61.992       26.241      467.260     3843.024      688.608        0.448        0.250       62.623       20.495        0.107      345.431       22.956      866.255
08/30/2013  10:07:00        1.692       23.940       44.650       24.897       34.086       27.305      619.839     1161.876      745.581        0.255        0.126       24.000       16.822        0.491      345.940       23.831      866.246
08/30/2013  10:08:00       89.026       58.159       57.538       61.616       45.641       41.047     3796.545     2083.083     1684.858        1.109        0.378      106.339       35.726        0.113      345.104       22.396      866.232
08/30/2013  10:09:00      110.967       69.232       -8.809       36.241       23.564       25.010     1313.382      555.280      625.489        0.984        0.125      130.793        9.846        0.006      344.885       22.022      866.221
08/30/2013  10:10:00       95.687       71.161       13.023       26.733       27.524       24.728      714.630      757.582      611.483        0.824        0.104      119.247       10.329        0.008      344.913       22.069      866.209
08/30/2013  10:11:00       36.003       37.249       12.235       20.114       19.241       24.444      404.587      370.212      597.526        0.210        0.069       51.804        9.681        0.035      344.978       22.180      866.194
08/30/2013  10:12:00       26.019       58.661        6.449       33.808       36.942       24.693     1143.012     1364.692      609.738        0.364        0.156       64.172       21.468        0.112      345.431       22.956      866.176
08/30/2013  10:13:00       31.048       70.378       18.644       42.408       31.894       32.466     1798.433     1017.252     1054.072        0.507        0.193       76.922       22.100        0.083      345.576       23.206      866.168
08/30/2013  10:14:00       64.175       31.006       20.825       31.351       22.424       31.779      982.862      502.847     1009.930        0.400        0.125       71.273       12.447        0.030      345.477       23.037      866.165
08/30/2013  10:15:00       47.586       52.185       18.041       48.859       30.540       33.046     2387.178      932.685     1092.021        0.486        0.221       70.623       16.355        0.054      345.506       23.086      866.149
08/30/2013  10:16:00       45.427       57.436       54.404       46.867       42.372       39.153     2196.531     1795.410     1532.936        0.692        0.276       73.229       31.915        0.190      345.508       23.088      866.145
08/30/2013  10:17:00       19.617       42.461       16.064       52.576       33.904       28.498     2764.221     1149.473      812.124        0.358        0.236       46.773       20.498        0.192      345.205       22.569      866.142
08/30/2013  10:18:00       25.276       33.604       48.815       52.404       42.950       30.179     2746.186     1844.725      910.780        0.483        0.275       42.048       31.731        0.569      345.501       23.076      866.138
08/30/2013  10:19:00       27.548       61.854       78.338       49.187       46.874       26.914     2419.339     2197.171      724.340        0.803        0.267       67.711       16.854        0.062      345.425       22.945      866.125
08/30/2013  10:20:00       64.575       59.419       53.658       28.343       24.226       26.949      803.318      586.881      726.257        0.635        0.106       87.753       14.789        0.028      345.146       22.469      866.120
08/30/2013  10:21:00       49.549       18.871       15.369       41.509       49.817       25.353     1722.995     2481.740      642.760        0.395        0.242       53.021       16.551        0.097      345.417       22.932      866.110
08/30/2013  10:22:00       27.678      -94.215       16.604       28.356       44.321       35.997      804.056     1964.373     1295.771        0.699        0.203       98.197       19.593        0.040      345.550       23.160      866.113
08/30/2013  10:23:00       23.804      -10.926        8.889       36.130       68.790       25.402     1305.357     4732.034      645.277        0.372        0.334       26.192       20.788        0.630      345.472       23.027      866.102
08/30/2013  10:24:00       47.567       72.158       -6.992       41.189       48.110       20.632     1696.546     2314.526      425.684        0.598        0.222       86.425       16.054        0.035      345.332       22.787      866.093
08/30/2013  10:25:00       -5.405       70.561        9.717       35.977       58.264       29.463     1294.333     3394.645      868.084        0.533        0.278       70.768       28.944        0.167      345.949       23.847      866.080
08/30/2013  10:26:00       77.970       46.234       10.180       45.451       31.914       25.209     2065.801     1018.480      635.476        0.602        0.186       90.647       17.365        0.037      345.677       23.379      866.087
08/30/2013  10:27:00      128.531       76.680       22.368       41.027       32.944       31.947     1683.223     1085.334     1020.618        1.334        0.189      149.666       16.539        0.012      345.288       22.712      866.077
08/30/2013  10:28:00       60.388       72.403       75.285       52.896       50.883       42.901     2797.958     2589.086     1840.529        1.089        0.361       94.281       31.716        0.113      345.855       23.683      866.065
08/30/2013  10:29:00       41.192       49.477       80.389       50.871       44.001       35.295     2587.904     1936.101     1245.709        0.819        0.288       64.380       28.163        0.191      345.924       23.802      866.067
08/30/2013  10:30:00       90.730       67.080       45.670       49.563       32.773       32.088     2456.442     1074.052     1029.663        0.969        0.228      112.834       23.053        0.042      345.399       22.901      866.067
08/30/2013  10:31:00       60.213       44.058        8.088       30.270       30.198       29.313      916.276      911.933      859.274        0.416        0.134       74.611       11.980        0.026      345.392       22.887      866.063
08/30/2013  10:32:00        9.182        9.181       30.912       34.724       52.830       39.327     1205.767     2790.967     1546.586        0.333        0.277       12.984       43.757       11.357      346.077       24.066      866.041
08/30/2013  10:33:00        9.603      -14.166       20.537       48.906       38.713       22.435     2391.826     1498.681      503.328        0.255        0.220       17.114       10.277        0.361      346.053       24.024      866.036
08/30/2013  10:34:00       35.094      -25.797       15.407       28.757       24.675       23.065      826.960      608.868      531.987        0.205        0.098       43.556       11.953        0.075      345.806       23.600      866.020
08/30/2013  10:35:00       15.670      -14.905       -5.657       19.742       53.783       25.491      389.746     2892.652      649.783        0.222        0.197       21.627       21.174        0.959      345.742       23.491      866.009
08/30/2013  10:36:00       54.468      -15.897        6.106       52.038       30.895       27.050     2707.967      954.526      731.693        0.382        0.220       56.740       21.415        0.142      345.722       23.456      865.993
08/30/2013  10:37:00       -6.614      -13.207       49.220       27.013       33.609       24.909      729.708     1129.584      620.443        0.256        0.124       14.770       15.158        1.053      346.477       24.752      865.977
08/30/2013  10:38:00       24.358       27.861       23.971       25.249       21.574       25.052      637.525      465.441      627.583        0.184        0.087       37.007       17.843        0.232      346.473       24.747      865.972
08/30/2013  10:39:00        4.371       26.876       14.129       15.577       27.112       22.747      242.637      735.088      517.435        0.122        0.075       27.229       18.019        0.438      346.728       25.186      865.977
08/30/2013  10:40:00        5.077       14.020       29.008       30.211       45.607       23.070      912.710     2080.033      532.229        0.229        0.176       14.911       21.748        2.127      346.745       25.215      865.960
08/30/2013  10:41:00       57.194       45.068       28.265       49.283       54.413       41.270     2428.798     2960.806     1703.250        0.660        0.355       72.817       33.624        0.213      346.374       24.575      865.957
08/30/2013  10:42:00      -16.639      -47.521        4.142       58.972       36.566       27.001     3477.680     1337.082      729.049        0.405        0.277       50.350       24.070        0.229      346.209       24.291      865.958
08/30/2013  10:43:00       55.822       -8.919       36.505       47.581       64.787       40.563     2263.905     4197.389     1645.390        0.632        0.405       56.530       38.569        0.465      346.332       24.503      865.962
08/30/2013  10:44:00       69.880       54.184        8.117       59.884       42.921       29.289     3586.118     1842.237      857.863        0.708        0.314       88.425       25.121        0.081      346.109       24.120      865.965
08/30/2013  10:45:00       88.574       46.354        3.023       37.579       36.693       24.404     1412.178     1346.362      595.536        0.668        0.168       99.970       16.410        0.027      346.180       24.242      865.967
08/30/2013  10:46:00       18.332       20.238       32.209       41.111       24.337       22.683     1690.133      592.273      514.517        0.229        0.140       27.306       20.856        0.583      346.857       25.406      865.963
08/30/2013  10:47:00       35.696       -6.108       48.673       51.852       59.973       39.927     2688.599     3596.727     1594.187        0.578        0.394       36.215       37.121        1.051      346.522       24.830      865.962
08/30/2013  10:48:00       12.539      -24.887       33.894       23.229       32.866       29.547      539.571     1080.156      873.036        0.221        0.125       27.867       20.318        0.532      346.441       24.691      865.968
08/30/2013  10:49:00      -21.537      -41.079        5.262       14.978       25.846       23.227      224.353      667.999      539.513        0.181        0.072       46.382        6.248        0.018      346.141       24.175      865.968
08/30/2013  10:50:00       94.161       61.430       37.118       69.376       47.403       39.153     4813.096     2247.065     1532.982        1.130        0.430      112.427       26.591        0.056      346.165       24.217      865.960
08/30/2013  10:51:00       37.682       48.639        7.999       28.578       32.558       26.268      816.690     1060.019      689.985        0.321        0.128       61.528       14.859        0.058      346.218       24.307      865.960
08/30/2013  10:52:00       68.324       30.845       24.100       46.985       39.212       33.257     2207.590     1537.560     1106.014        0.552        0.243       74.964       13.754        0.034      346.422       24.658      865.948
08/30/2013  10:53:00       86.676       65.078       20.479       45.596       49.190       37.207     2078.997     2419.665     1384.389        0.902        0.294      108.388       21.989        0.041      346.456       24.717      865.945
08/30/2013  10:54:00       59.855       47.063       20.576       53.992       43.107       33.053     2915.148     1858.237     1092.491        0.604        0.293       76.141       11.667        0.023      346.317       24.477      865.944
08/30/2013  10:55:00       42.680       39.500       -3.567       33.306       23.990       29.847     1109.281      575.507      890.871        0.298        0.129       58.154       16.588        0.081      346.397       24.614      865.951
08/30/2013  10:56:00       18.758        9.992       -8.964       18.626       20.490       14.839      346.925      419.860      220.211        0.076        0.049       21.253       10.854        0.261      346.557       24.890      865.945
08/30/2013  10:57:00       42.449       25.014       25.345       40.288       25.496       26.319     1623.131      650.066      692.666        0.302        0.148       49.271       14.821        0.090      346.839       25.376      865.941
08/30/2013  10:58:00       11.255        8.880       20.035       24.312       22.789       22.859      591.071      519.319      522.542        0.112        0.082       14.336       14.764        1.061      346.993       25.641      865.928
08/30/2013  10:59:00        8.508       10.835       23.208       19.816       42.630       21.175      392.660     1817.276      448.389        0.169        0.133       13.777       12.041        0.764      346.735       25.198      865.922
08/30/2013  11:00:00       11.062       36.190       48.054       28.187       30.324       17.462      794.527      919.549      304.923        0.288        0.101       37.843       11.798        0.097      346.983       25.624      865.905
08/30/2013  11:01:00        8.948       18.400       57.067       24.189       34.835       30.510      585.087     1213.462      930.861        0.320        0.136       20.461       23.221        1.288      347.183       25.966      865.899
08/30/2013  11:02:00       52.147      -19.973       32.153       44.046       34.979       40.726     1940.022     1223.514     1658.601        0.449        0.241       55.841       31.817        0.325      346.742       25.209      865.894
08/30/2013  11:03:00       38.980      -26.398       25.208       36.817       47.526       32.169     1355.459     2258.701     1034.823        0.375        0.232       47.077       28.125        0.357      346.625       25.007      865.888
08/30/2013  11:04:00       32.146      -25.646       14.603       33.299       23.194       27.558     1108.829      537.982      759.435        0.215        0.120       41.123       16.757        0.166      346.530       24.845      865.883
08/30/2013  11:05:00       68.615       37.787       25.556       39.775       31.362       24.429     1582.076      983.599      596.770        0.498        0.158       78.332        9.782        0.016      346.493       24.780      865.872
08/30/2013  11:06:00      110.280       76.934       50.768       47.895       29.015       31.814     2293.958      841.856     1012.126        1.240        0.207      134.464       19.419        0.021      346.386       24.597      865.856
08/30/2013  11:07:00       66.952       51.685       45.957       48.365       33.671       41.250     2339.203     1133.765     1701.582        0.722        0.259       84.581       16.537        0.038      346.591       24.948      865.851
08/30/2013  11:08:00       56.828       44.147        4.400       20.480       14.042       17.788      419.430      197.175      316.406        0.307        0.047       71.961        8.057        0.013      346.438       24.685      865.844
08/30/2013  11:09:00       17.956       -5.276       -1.063       22.825       24.300       20.908      520.968      590.471      437.142        0.095        0.077       18.715       16.964        0.822      346.963       25.590      865.831
08/30/2013  11:10:00       78.885       67.482       22.908       67.782       29.050       33.433     4594.426      843.929     1117.795        0.893        0.328      103.811       27.457        0.070      346.930       25.533      865.828
08/30/2013  11:11:00      133.112       97.042       16.399       44.769       48.755       29.039     2004.265     2377.084      843.255        1.631        0.261      164.730       18.048        0.012      346.769       25.254      865.815
08/30/2013  11:12:00       23.027        6.738       16.840       43.300       36.726       26.163     1874.932     1348.810      684.502        0.238        0.195       23.993       23.225        0.937      347.134       25.885      865.808
08/30/2013  11:13:00       -9.302        8.089       20.945       21.375       31.492       22.997      456.871      991.745      528.862        0.128        0.099       12.327       16.734        1.843      347.612       26.708      865.791
08/30/2013  11:14:00       57.569       64.218       53.325       33.701       25.630       30.455     1135.789      656.917      927.535        0.650        0.136       86.244       18.140        0.044      346.942       25.553      865.788
08/30/2013  11:15:00       18.167       33.854       59.914       32.655       37.214       23.083     1066.369     1384.857      532.847        0.402        0.149       38.420       16.496        0.184      347.480       26.479      865.767
08/30/2013  11:16:00       78.706       84.961       51.958       35.230       28.543       31.688     1241.134      814.727     1004.136        0.959        0.153      115.814       21.463        0.034      346.740       25.205      865.763
08/30/2013  11:17:00       77.890       65.510       29.132       33.004       23.765       21.648     1089.258      564.779      468.630        0.666        0.106      101.776       17.805        0.031      346.847       25.390      865.753
08/30/2013  11:18:00       74.815       76.031       16.513       52.786       26.360       30.533     2786.409      694.866      932.239        0.803        0.221      106.668       11.353        0.011      347.067       25.768      865.739
08/30/2013  11:19:00       52.138       55.272       25.207       41.029       35.089       33.312     1683.416     1231.226     1109.704        0.522        0.201       75.983       19.971        0.069      347.382       26.312      865.732
08/30/2013  11:20:00       -7.537       20.592       36.163       14.484       18.928       22.517      209.775      358.284      507.002        0.143        0.054       21.928        9.952        0.206      347.753       26.950      865.742
08/30/2013  11:21:00      -12.246        2.175       27.736       11.392       15.868       12.824      129.787      251.779      164.455        0.073        0.027       12.437        7.561        0.370      348.261       27.829      865.733
08/30/2013  11:22:00        0.911        5.941       38.224       23.336       16.193       17.316      544.573      262.212      299.839        0.130        0.055        6.010       16.772        7.787      347.891       27.189      865.733
08/30/2013  11:23:00      -19.354       -3.465       26.234       17.654       17.572       16.525      311.677      308.768      273.067        0.098        0.045       19.662       14.259        0.526      348.055       27.474      865.718
08/30/2013  11:24:00      -10.706       -0.431       29.016       16.414       22.757       21.106      269.421      517.861      445.458        0.109        0.062       10.715       17.305        2.608      348.293       27.884      865.715
08/30/2013  11:25:00        9.732        0.747       38.157       25.194       26.381       20.688      634.755      695.936      427.986        0.165        0.088        9.761       19.138        3.844      347.936       27.267      865.695
08/30/2013  11:26:00       61.661       62.934       53.497       61.167       42.803       32.263     3741.416     1832.055     1040.872        0.862        0.331       88.107       20.608        0.055      347.396       26.335      865.688
08/30/2013  11:27:00       89.708       77.516       44.464       60.507       36.170       45.605     3661.077     1308.287     2079.829        1.154        0.352      118.559       41.875        0.125      347.412       26.362      865.675
08/30/2013  11:28:00       83.768       71.037        1.987       27.704       19.615       23.086      767.528      384.748      532.966        0.688        0.084      109.833       20.392        0.034      347.175       25.955      865.675
08/30/2013  11:29:00       17.679       53.623        2.683       31.986       22.021       16.075     1023.116      484.915      258.407        0.248        0.088       56.462       16.575        0.086      347.715       26.885      865.663
08/30/2013  11:30:00       34.707       27.658       23.285       42.878       22.917       23.648     1838.552      525.178      559.230        0.272        0.146       44.380       12.433        0.078      348.050       27.464      865.659
08/30/2013  11:31:00       22.171       32.388       22.127       29.880       29.048       26.800      892.823      843.770      718.258        0.224        0.123       39.249       10.640        0.073      348.024       27.421      865.656
08/30/2013  11:32:00       89.865       64.303       14.757       43.849       34.351       38.501     1922.717     1180.013     1482.297        0.851        0.229      110.501       31.915        0.083      347.468       26.458      865.650
08/30/2013  11:33:00       44.004       34.980       13.891       20.383       25.945       21.119      415.459      673.123      446.026        0.244        0.077       56.213       13.976        0.062      347.463       26.451      865.649
08/30/2013  11:34:00        7.020       25.510       36.334       24.199       30.735       30.710      585.607      944.670      943.080        0.225        0.124       26.459       22.466        0.721      347.797       27.026      865.644
08/30/2013  11:35:00       -4.438        7.760        3.105       23.656       16.273       24.875      559.593      264.814      618.779        0.077        0.072        8.940       15.166        2.878      347.688       26.840      865.628
08/30/2013  11:36:00      -44.064       13.216       -4.015       15.469       16.617       11.542      239.283      276.135      133.218        0.139        0.032       46.003        9.653        0.044      347.571       26.637      865.608
08/30/2013  11:37:00      -35.077       -2.642       -1.723       22.454       15.414       13.017      504.181      237.592      169.438        0.108        0.046       35.177       12.154        0.119      347.703       26.864      865.589
08/30/2013  11:38:00        0.419       -8.946       19.887       26.859       19.995       19.681      721.395      399.792      387.351        0.099        0.075        8.956       12.928        2.084      348.278       27.858      865.568
08/30/2013  11:39:00       19.665       25.160       19.111       29.399       23.495       24.602      864.282      552.010      605.246        0.170        0.101       31.933       21.258        0.443      347.782       27.001      865.555
08/30/2013  11:40:00       56.518       43.557       31.323       45.389       34.694       33.385     2060.174     1203.672     1114.585        0.522        0.219       71.354       14.973        0.044      347.964       27.316      865.528
08/30/2013  11:41:00       69.040      116.810       -8.096       45.100       37.716       36.550     2033.966     1422.462     1335.876        1.163        0.240      135.688       26.208        0.037      347.565       26.627      865.520
08/30/2013  11:42:00       -1.168       56.239      -15.526       21.554       48.366       22.582      464.558     2339.279      509.958        0.336        0.166       56.251       26.180        0.217      347.693       26.847      865.492
08/30/2013  11:43:00        1.171       30.090       11.385       17.767       34.451       23.909      315.683     1186.852      571.617        0.155        0.104       30.113       26.149        0.754      348.383       28.039      865.485
08/30/2013  11:44:00      -16.013       79.106        6.972       26.563       57.164       26.108      705.576     3267.732      681.635        0.561        0.233       80.711       32.755        0.165      348.160       27.653      865.476
08/30/2013  11:45:00       53.028       36.098       15.804       45.505       29.626       30.523     2070.694      877.714      931.625        0.412        0.194       64.149       15.739        0.060      348.103       27.556      865.470
08/30/2013  11:46:00       22.087       25.302       26.270       39.250       19.059       25.552     1540.596      363.258      652.908        0.219        0.128       33.586       22.924        0.466      348.179       27.686      865.472
08/30/2013  11:47:00      -26.773        6.252       25.618       21.024       25.543       16.970      442.021      652.439      287.979        0.140        0.069       27.493       10.716        0.152      348.270       27.843      865.463
08/30/2013  11:48:00      -33.062       11.894       14.974       21.588       18.472       21.502      466.041      341.222      462.330        0.136        0.063       35.136       14.397        0.168      348.044       27.455      865.468
08/30/2013  11:49:00        7.979       17.735       16.217       17.734       18.049       21.969      314.489      325.771      482.628        0.088        0.056       19.448       13.648        0.492      348.676       28.546      865.456
08/30/2013  11:50:00       17.604       35.667       13.722       32.343       28.829       22.838     1046.067      831.100      521.585        0.208        0.120       39.774       21.317        0.287      348.613       28.437      865.455
08/30/2013  11:51:00       58.213       46.338       16.741       45.689       31.334       35.495     2087.514      981.830     1259.906        0.507        0.216       74.404       31.838        0.183      348.253       27.814      865.434
08/30/2013  11:52:00       72.327       65.458       43.330       35.168       32.578       27.293     1236.759     1061.313      744.910        0.722        0.152       97.549       10.933        0.013      347.827       27.078      865.426
08/30/2013  11:53:00        8.101       -1.321       27.055       38.483       28.505       18.393     1480.903      812.518      338.302        0.171        0.132        8.208       15.769        3.691      348.432       28.124      865.424
08/30/2013  11:54:00       66.143      -58.222       26.995       47.138       78.512       43.079     2221.993     6164.126     1855.779        0.937        0.512       88.117       44.804        0.259      348.110       27.567      865.416
08/30/2013  11:55:00       44.172     -111.902       -8.089       48.585       65.660       47.122     2360.536     4311.273     2220.477        1.171        0.445      120.305       50.012        0.173      348.010       27.395      865.407
08/30/2013  11:56:00       45.466      -57.352       -0.492       55.481       38.904       32.462     3078.141     1513.493     1053.803        0.550        0.282       73.187       24.180        0.109      347.547       26.594      865.408
08/30/2013  11:57:00        2.978       16.799       29.709       31.035       26.464       27.816      963.179      700.364      773.736        0.181        0.122       17.061       19.180        1.264      348.671       28.539      865.402
08/30/2013  11:58:00       14.225        3.023       10.045       19.548       25.491       31.565      382.111      649.792      996.356        0.117        0.101       14.543       16.478        1.284      348.448       28.152      865.395
08/30/2013  11:59:00       -1.296       30.769       38.485       15.021       21.415       14.569      225.617      458.620      212.260        0.166        0.045       30.796       13.066        0.180      348.490       28.227      865.380
08/30/2013  12:00:00       42.141       -1.290       17.878       31.589       21.805       21.948      997.895      475.464      481.710        0.203        0.098       42.160       10.138        0.058      347.904       27.212      865.372
08/30/2013  12:01:00       49.419       -3.039       15.285       63.409       69.839       38.006     4020.676     4877.445     1444.465        0.651        0.517       49.512       30.542        0.381      347.938       27.271      865.344
08/30/2013  12:02:00       98.861       50.637       67.106       67.241       68.909       46.800     4521.397     4748.419     2190.202        1.415        0.573      111.075       28.677        0.067      347.901       27.205      865.326
08/30/2013  12:03:00       69.540       57.121       84.968       82.921       78.913       65.579     6875.812     6227.336     4300.543        1.636        0.870       89.993       69.468        0.596      347.959       27.306      865.290
08/30/2013  12:04:00      100.835       55.105       52.383       55.274       50.125       38.472     3055.225     2512.486     1480.121        1.150        0.352      114.910       32.352        0.079      347.714       26.883      865.289
08/30/2013  12:05:00       55.863       31.178       39.669       39.817       61.433       34.299     1585.387     3774.061     1176.409        0.610        0.327       63.975       22.837        0.127      347.893       27.193      865.271
08/30/2013  12:06:00       20.550       46.926       77.968       42.010       62.532       37.915     1764.862     3910.239     1437.515        0.791        0.356       51.229       41.644        0.661      348.287       27.872      865.264
08/30/2013  12:07:00       43.727      -59.153       10.880       33.302       41.781       29.457     1108.993     1745.681      867.702        0.463        0.186       73.560       29.954        0.166      347.770       26.981      865.253
08/30/2013  12:08:00       59.087       60.032       25.809       62.326       30.671       40.501     3884.509      940.701     1640.355        0.711        0.323       84.233       32.205        0.146      348.163       27.658      865.245
08/30/2013  12:09:00      100.468       97.452        9.433       62.777       53.943       41.598     3940.947     2909.844     1730.395        1.413        0.429      139.967       26.011        0.035      348.348       27.979      865.231
08/30/2013  12:10:00       62.546       29.613       16.963       55.851       46.983       31.480     3119.313     2207.432      990.984        0.570        0.316       69.202       26.344        0.145      348.276       27.854      865.235
08/30/2013  12:11:00       73.189       -8.526       36.461       53.663       44.657       47.319     2879.707     1994.206     2239.059        0.693        0.356       73.684       36.557        0.246      348.249       27.807      865.238
08/30/2013  12:12:00       71.565      -12.510       19.225       34.365       22.389       24.994     1180.945      501.264      624.707        0.398        0.115       72.650       14.945        0.042      347.892       27.190      865.230
08/30/2013  12:13:00       31.734       37.699       39.145       39.867       30.693       28.111     1589.355      942.041      790.241        0.364        0.166       49.278       22.657        0.211      348.155       27.645      865.220
08/30/2013  12:14:00       50.768       56.944       73.998       50.343       41.949       40.768     2534.430     1759.693     1662.032        0.862        0.298       76.289       28.745        0.142      348.242       27.795      865.205
08/30/2013  12:15:00       98.472       75.582       55.239       55.400       52.305       46.076     3069.205     2735.863     2122.979        1.319        0.396      124.134       41.118        0.110      347.962       27.312      865.204
08/30/2013  12:16:00      114.255       90.334       36.822       54.568       44.564       44.146     2977.702     1985.946     1948.880        1.474        0.346      145.652       24.361        0.028      348.162       27.656      865.203
08/30/2013  12:17:00       37.579       15.301       15.813       30.476       26.720       17.994      928.798      713.962      323.780        0.193        0.098       40.575       19.411        0.229      348.480       28.206      865.197
08/30/2013  12:18:00       -0.733       47.151       14.136       38.572       30.914       25.719     1487.814      955.688      661.465        0.276        0.155       47.157       17.548        0.138      348.492       28.228      865.178
08/30/2013  12:19:00       15.060       23.790       11.042       33.627       25.835       37.047     1130.805      667.460     1372.492        0.204        0.159       28.156       24.078        0.731      348.796       28.754      865.155
08/30/2013  12:20:00       62.349      -33.653        0.699       40.924       57.975       26.361     1674.752     3361.050      694.899        0.537        0.287       70.852       17.570        0.061      347.811       27.050      865.135
08/30/2013  12:21:00       58.050        0.842       21.353       39.954       44.978       36.178     1596.294     2023.036     1308.880        0.438        0.246       58.057       30.916        0.284      348.408       28.081      865.117
08/30/2013  12:22:00       75.141       45.229       14.422       68.758       66.414       44.760     4727.595     4410.850     2003.475        0.952        0.557       87.703       13.802        0.025      348.447       28.150      865.084
08/30/2013  12:23:00       42.431      103.845       -5.610       40.293       82.512       37.931     1623.548     6808.299     1438.748        1.124        0.494      112.179       45.676        0.166      348.643       28.488      865.072
08/30/2013  12:24:00      113.266       50.294        8.918       78.845       67.707       45.320     6216.483     4584.284     2053.934        1.414        0.643      123.930       38.788        0.098      348.865       28.871      865.057
08/30/2013  12:25:00      103.340       76.349       25.822       61.007       49.109       52.562     3721.876     2411.703     2762.804        1.303        0.445      128.485       36.645        0.081      348.815       28.787      865.050
08/30/2013  12:26:00       54.031       69.218       93.005       48.189       58.432       39.426     2322.173     3414.247     1554.426        1.182        0.365       87.809       14.046        0.026      348.644       28.491      865.052
08/30/2013  12:27:00       41.006      -49.192        7.170       52.489       61.890       38.297     2755.110     3830.380     1466.634        0.610        0.403       64.042       20.269        0.100      348.415       28.094      865.060
08/30/2013  12:28:00       77.457     -110.145        5.353       47.990       39.638       32.301     2302.997     1571.173     1043.343        1.154        0.246      134.654       23.759        0.031      348.516       28.270      865.051
08/30/2013  12:29:00        3.284      -13.214       43.697       29.834       71.964       38.207      890.082     5178.878     1459.737        0.481        0.376       13.616       29.150        4.583      348.963       29.043      865.033
08/30/2013  12:30:00       21.292       25.666       52.517       37.556       45.400       36.053     1410.471     2061.140     1299.844        0.432        0.239       33.348       30.519        0.838      349.031       29.161      865.033
08/30/2013  12:31:00       -0.520      -11.583       -3.310       20.175       36.066       23.343      407.032     1300.783      544.878        0.120        0.113       11.595       23.163        3.991      348.710       28.606      865.026
08/30/2013  12:32:00        1.701       23.667       36.007       18.936       33.270       25.188      358.553     1106.884      634.459        0.198        0.105       23.728       24.640        1.078      349.122       29.318      865.003
08/30/2013  12:33:00       27.036       77.708       76.309       56.343       65.642       67.015     3174.535     4308.866     4491.035        1.228        0.599       82.277       52.736        0.411      348.709       28.602      864.987
08/30/2013  12:34:00       70.640       63.502       56.867       60.253       60.681       73.649     3630.402     3682.190     5424.233        1.249        0.637       94.987       62.450        0.432      348.514       28.265      864.955
08/30/2013  12:35:00       40.900       10.482       36.318       41.275       63.933       37.937     1703.605     4087.462     1439.202        0.516        0.362       42.221       39.097        0.857      348.501       28.242      864.937
08/30/2013  12:36:00       34.058       38.224       54.777       47.498       43.250       36.018     2256.047     1870.575     1297.300        0.552        0.271       51.196       22.056        0.186      348.883       28.905      864.914
08/30/2013  12:37:00      129.910       57.365       48.814      102.082       67.950       58.803    10420.767     4617.237     3457.833        2.052        0.925      142.012       44.359        0.098      348.644       28.489      864.894
08/30/2013  12:38:00       62.042       63.212       69.213       83.151       72.554       72.755     6914.123     5264.048     5293.239        1.505        0.874       88.571       52.571        0.352      348.354       27.988      864.886
08/30/2013  12:39:00       53.195       -9.011       31.522       60.309       44.681       35.819     3637.140     1996.375     1282.969        0.541        0.346       53.953       18.802        0.121      348.557       28.340      864.870
08/30/2013  12:40:00       76.386       32.021       57.548       94.104       83.650       51.672     8855.475     6997.404     2669.991        1.434        0.926       82.826       48.899        0.349      348.762       28.693      864.846
08/30/2013  12:41:00      123.477      106.832       40.315       75.208       58.549       53.424     5656.250     3428.013     2854.089        2.011        0.597      163.278       25.290        0.024      348.851       28.847      864.844
08/30/2013  12:42:00       65.642       45.760       27.632       64.392       40.751       55.293     4146.370     1660.663     3057.318        0.801        0.443       80.018       21.775        0.074      348.878       28.896      864.841
08/30/2013  12:43:00       72.686       60.448       19.841       45.344       39.531       23.227     2056.049     1562.697      539.485        0.674        0.208       94.536       26.826        0.081      348.612       28.437      864.830
08/30/2013  12:44:00      134.913       59.759       24.264       74.051       44.413       42.447     5483.516     1972.498     1801.784        1.581        0.463      147.556       18.700        0.016      348.803       28.764      864.800
08/30/2013  12:45:00       98.513        7.328       36.396       82.147       74.366       34.495     6748.060     5530.346     1189.920        1.227        0.673       98.785       22.527        0.052      348.444       28.144      864.792
08/30/2013  12:46:00       83.994       71.388       12.149       91.539       63.096       47.478     8379.451     3981.047     2254.142        1.345        0.731      110.232       27.815        0.064      348.663       28.523      864.771
08/30/2013  12:47:00       63.038       61.278       -4.560       56.518       42.525       31.011     3194.325     1808.417      961.701        0.686        0.298       87.913       28.102        0.102      348.824       28.802      864.763
08/30/2013  12:48:00       59.700       37.226       22.142       54.875       28.041       35.199     3011.297      786.312     1238.988        0.524        0.252       70.355       13.633        0.038      349.048       29.190      864.752
08/30/2013  12:49:00       84.968       50.653       15.274       52.492       35.215       26.990     2755.387     1240.099      728.480        0.737        0.236       98.920       14.865        0.023      349.184       29.425      864.737
08/30/2013  12:50:00       20.543      -17.232        0.055       59.760       36.237       25.776     3571.226     1313.138      664.391        0.313        0.277       26.814       11.397        0.181      349.109       29.296      864.717
08/30/2013  12:51:00       43.621      -64.491       20.294       37.252       33.227       27.566     1387.707     1104.051      759.908        0.486        0.163       77.858        4.313        0.003      348.735       28.647      864.719
08/30/2013  12:52:00       51.340      -45.338       26.663       25.579       32.648       27.089      654.299     1065.912      733.812        0.393        0.123       68.494       22.946        0.112      348.832       28.816      864.707
08/30/2013  12:53:00       23.307       15.148       44.851       29.310       42.267       22.670      859.083     1786.538      513.915        0.297        0.158       27.797       28.001        1.015      349.008       29.120      864.688
08/30/2013  12:54:00       32.948      -31.795        5.399       17.228       30.344       24.650      296.815      920.765      607.598        0.198        0.091       45.787       18.430        0.162      348.877       28.894      864.682
08/30/2013  12:55:00       22.081       25.584       37.647       23.633       20.856       20.674      558.536      434.983      427.417        0.199        0.071       33.795       16.779        0.246      349.179       29.418      864.674
08/30/2013  12:56:00        5.594       -0.459       33.723       15.113       28.993        9.537      228.409      840.594       90.964        0.116        0.058        5.613        8.016        2.040      349.320       29.662      864.657
08/30/2013  12:57:00      122.784       86.983       49.290       71.805       42.045       37.428     5155.927     1767.823     1400.829        1.670        0.416      150.473       25.782        0.029      348.731       28.640      864.643
08/30/2013  12:58:00      144.749       88.751       56.594       92.071       75.264       54.197     8477.065     5664.667     2937.349        2.455        0.854      169.791       40.593        0.057      349.239       29.518      864.634
08/30/2013  12:59:00      177.577      -14.340       57.126      147.146      117.205       73.378    21652.060    13736.965     5384.292        3.788        2.039      178.155       78.051        0.192      349.122       29.316      864.598
08/30/2013  13:00:00      140.692       44.631       96.451      126.783      163.485       93.664    16074.040    26727.431     8772.872        4.132        2.579      147.602      113.189        0.588      349.294       29.613      864.582
08/30/2013  13:01:00       86.281        0.763       63.561      105.451      135.115       86.576    11119.975    18256.049     7495.357        2.417        1.844       86.284       81.195        0.886      349.227       29.498      864.603
08/30/2013  13:02:00      110.831      -89.660       33.083       75.342       88.082       66.575     5676.407     7758.382     4432.258        1.964        0.893      142.557       63.200        0.197      349.258       29.552      864.615
08/30/2013  13:03:00      139.775     -118.334        5.528       76.565       96.362       48.095     5862.155     9285.596     2313.146        2.551        0.873      183.139       67.194        0.135      349.084       29.250      864.617
08/30/2013  13:04:00       55.372      -42.856       39.990       91.883      110.635       65.237     8442.441    12240.177     4255.918        1.572        1.247       70.019       75.606        1.166      349.180       29.419      864.595
08/30/2013  13:05:00       91.623      -32.328       38.034       48.443       47.350       43.104     2346.694     2242.037     1857.955        0.867        0.322       97.159       29.870        0.095      348.719       28.620      864.598
08/30/2013  13:06:00       49.142      -75.478       15.087       47.923       75.511       36.061     2296.638     5701.868     1300.376        0.882        0.465       90.065       24.637        0.075      349.004       29.114      864.585
08/30/2013  13:07:00       78.391      -59.112       11.384       59.983       77.041       31.774     3597.965     5935.358     1009.602        1.015        0.527       98.181       35.725        0.132      349.016       29.135      864.558
08/30/2013  13:08:00       43.725       18.860       25.437       56.597       53.856       35.139     3203.243     2900.463     1234.760        0.513        0.367       47.619       22.487        0.223      349.241       29.525      864.546
08/30/2013  13:09:00      -17.162      -35.593       26.875       46.281       69.987       50.253     2141.920     4898.209     2525.314        0.592        0.478       39.515       35.362        0.801      349.540       30.042      864.527
08/30/2013  13:10:00       71.437       50.895        7.463       65.226       59.949       36.934     4254.387     3593.917     1364.104        0.848        0.461       87.713       24.233        0.076      349.309       29.641      864.518
08/30/2013  13:11:00       76.357       57.236        9.265       60.656       62.259       41.795     3679.168     3876.232     1746.795        0.925        0.465       95.427       38.784        0.165      349.197       29.448      864.502
08/30/2013  13:12:00       30.482       23.582       78.922       56.590       82.630       45.006     3202.404     6827.646     2025.579        0.988        0.603       38.539       47.397        1.512      348.831       28.816      864.496
08/30/2013  13:13:00       28.688        2.947        9.838       24.068       19.304       31.822      579.273      372.661     1012.658        0.145        0.098       28.839       13.827        0.230      348.659       28.518      864.476
08/30/2013  13:14:00       41.471       20.377       14.161       36.267       42.074       31.013     1315.260     1770.181      961.788        0.319        0.202       46.207       14.439        0.098      348.753       28.679      864.448
08/30/2013  13:15:00      178.323       75.012       51.711      102.480       84.391       78.405    10502.212     7121.868     6147.268        3.193        1.189      193.458       57.931        0.090      348.822       28.797      864.431
08/30/2013  13:16:00      115.943       19.687       15.177       74.336       78.635       37.869     5525.809     6183.405     1434.049        1.360        0.657      117.602       31.077        0.070      348.985       29.080      864.413
08/30/2013  13:17:00      169.624       65.085       46.150      106.913      123.194       73.617    11430.495    15176.849     5419.480        3.358        1.601      181.682       29.617        0.027      349.051       29.194      864.363
08/30/2013  13:18:00      117.363      112.143      107.811      113.538      111.877      100.575    12890.866    12516.494    10115.415        3.674        1.776      162.327       73.366        0.204      349.375       29.755      864.348
08/30/2013  13:19:00      141.552       92.032      101.782      121.109       97.348       81.292    14667.470     9476.692     6608.430        3.480        1.538      168.840       65.206        0.149      349.036       29.167      864.370
08/30/2013  13:20:00      105.357       75.692       43.010       74.364       45.085       44.442     5529.973     2032.682     1975.109        1.411        0.477      129.728       34.977        0.073      349.217       29.482      864.368
08/30/2013  13:21:00      202.075      104.378       51.381       87.016       51.082       63.945     7571.749     2609.417     4088.963        3.432        0.714      227.440       42.383        0.035      349.089       29.259      864.366
08/30/2013  13:22:00       45.267       60.629        5.804       52.333       46.871       41.590     2738.745     2196.871     1729.728        0.621        0.333       75.664       29.113        0.148      349.319       29.660      864.348
08/30/2013  13:23:00       75.889       46.688       48.694       63.764       55.938       46.752     4065.884     3129.034     2185.750        0.984        0.469       89.101       33.224        0.139      349.536       30.036      864.328
08/30/2013  13:24:00      124.484       86.307       77.160      100.931       62.852       47.673    10187.150     3950.388     2272.695        2.265        0.821      151.477       40.464        0.071      349.473       29.925      864.317
08/30/2013  13:25:00       77.412      -44.294       32.869       49.729       65.973       42.002     2472.930     4352.488     1764.149        0.881        0.429       89.188       38.644        0.188      349.111       29.299      864.327
08/30/2013  13:26:00       63.544      -91.293       -3.554       61.883       55.894       52.524     3829.479     3124.181     2758.757        1.105        0.486      111.231       51.509        0.214      349.321       29.664      864.313
08/30/2013  13:27:00       38.425       36.829       69.414       50.693       71.728       52.406     2569.800     5144.974     2746.352        0.905        0.523       53.225       53.965        1.028      349.296       29.620      864.309
08/30/2013  13:28:00       61.976        0.317       36.443       39.926       30.272       29.526     1594.123      916.377      871.805        0.428        0.169       61.977       22.622        0.133      349.083       29.250      864.302
08/30/2013  13:29:00       29.405       20.240        7.744       28.427       37.314       23.861      808.071     1392.362      569.324        0.205        0.138       35.697       17.481        0.240      348.822       28.798      864.293
08/30/2013  13:30:00        1.193        1.644      -12.202       32.543       41.375       30.314     1059.066     1711.905      918.963        0.192        0.184        2.031       19.654       93.661      348.837       28.824      864.279
08/30/2013  13:31:00      162.364      -27.254       30.369      123.949       71.356       56.514    15363.231     5091.609     3193.776        2.583        1.182      164.636       50.401        0.094      349.175       29.407      864.261
08/30/2013  13:32:00       73.210      -95.072        1.618       61.522       89.023       40.793     3784.974     7925.103     1664.034        1.388        0.669      119.994       49.226        0.168      348.848       28.843      864.256
08/30/2013  13:33:00      154.103     -186.023      -28.327       41.549       49.837       27.185     1726.283     2483.762      738.998        3.205        0.247      241.563       22.304        0.009      349.210       29.468      864.245
08/30/2013  13:34:00       95.046      -92.483      -12.483       47.134       47.387       41.821     2221.587     2245.510     1749.011        1.198        0.311      132.615       35.290        0.071      349.285       29.602      864.222
08/30/2013  13:35:00       79.100     -175.161      -14.357       91.142       80.244       38.267     8306.878     6439.127     1464.339        2.667        0.811      192.193       45.696        0.057      349.439       29.866      864.206
08/30/2013  13:36:00       95.824     -127.341       -2.641       78.647      100.763       57.570     6185.344    10153.224     3314.353        2.253        0.983      159.368       54.024        0.115      349.791       30.477      864.182
08/30/2013  13:37:00      133.842     -150.108      -11.944       81.796       90.515       55.876     6690.622     8192.879     3122.134        2.929        0.900      201.112       59.239        0.087      349.538       30.037      864.186
08/30/2013  13:38:00      100.729     -180.669      -14.469       66.667       88.556       50.151     4444.474     7842.088     2515.143        2.890        0.740      206.851       38.376        0.034      349.401       29.799      864.174
08/30/2013  13:39:00       64.128     -166.042      -14.195       35.917       80.555       33.985     1290.016     6489.114     1154.947        2.041        0.447      177.996       36.516        0.042      349.420       29.831      864.171
08/30/2013  13:40:00        2.715       30.634       49.260       19.513       33.081       18.601      380.749     1094.339      346.012        0.260        0.091       30.754       15.853        0.266      349.878       30.631      864.155
08/30/2013  13:41:00       57.264       14.411       35.343       79.020       52.327       37.810     6244.149     2738.091     1429.633        0.757        0.521       59.049       33.569        0.323      349.572       30.099      864.146
08/30/2013  13:42:00       51.303       -6.538       25.515       60.611       47.375       46.090     3673.638     2244.363     2124.286        0.568        0.402       51.718       42.448        0.674      349.465       29.913      864.146
08/30/2013  13:43:00      120.331     -191.297      -30.195       67.877      104.415       45.015     4607.246    10902.543     2026.354        3.476        0.877      225.995       55.766        0.061      349.483       29.941      864.132
08/30/2013  13:44:00      155.714     -201.231      -33.401       54.122       51.365       27.869     2929.200     2638.331      776.684        3.610        0.317      254.442       29.877        0.014      349.366       29.736      864.126
08/30/2013  13:45:00      102.443     -121.230      -17.804       80.243       89.713       48.258     6438.904     8048.413     2328.801        2.116        0.841      158.718       56.984        0.129      349.698       30.314      864.106
08/30/2013  13:46:00       56.315      -41.858       47.571       87.054      155.732       76.470     7578.333    24252.373     5847.686        2.242        1.884       70.168      104.866        2.234      349.659       30.248      864.095
08/30/2013  13:47:00       33.270       33.293       81.581       50.848       86.813       47.235     2585.505     7536.476     2231.149        1.061        0.618       47.067       34.418        0.535      349.520       30.009      864.097
08/30/2013  13:48:00       39.578        0.975       29.738       30.553       29.824       25.201      933.473      889.454      635.073        0.245        0.123       39.590       13.579        0.118      349.685       30.296      864.095
08/30/2013  13:49:00       -0.055       20.409       37.305       20.485       21.207       14.145      419.631      449.724      200.089        0.144        0.053       20.409        9.618        0.222      349.584       30.121      864.083
08/30/2013  13:50:00       -1.529        7.190       22.498       27.393       18.481       20.335      750.394      341.565      413.497        0.103        0.075        7.351       12.445        2.866      349.705       30.331      864.065
08/30/2013  13:51:00        3.543        2.989       18.924       29.293       36.513       27.689      858.109     1333.209      766.661        0.167        0.148        4.636       16.861       13.228      349.207       29.466      864.038
08/30/2013  13:52:00       53.204       23.336      -10.616       38.110       37.093       22.384     1452.393     1375.919      501.033        0.341        0.166       58.097       16.137        0.077      349.685       30.293      864.018
08/30/2013  13:53:00       -4.400       33.794       -4.621       48.088       35.182       33.489     2312.468     1237.785     1121.501        0.293        0.234       34.080        8.767        0.066      350.014       30.866      864.002
08/30/2013  13:54:00       61.529       32.004       25.215       42.642       29.611       36.948     1818.317      876.839     1365.122        0.475        0.203       69.354       27.657        0.159      349.661       30.252      863.989
08/30/2013  13:55:00       55.513       32.031       15.022       25.715       26.081       23.076      661.268      680.195      532.520        0.310        0.094       64.091       12.378        0.037      349.231       29.508      863.982
08/30/2013  13:56:00       28.398      -15.233       20.087       27.085       31.558       27.281      733.609      995.888      744.273        0.196        0.124       32.226       23.488        0.531      349.536       30.037      863.973
08/30/2013  13:57:00       67.998      -70.968       23.664       27.811       47.649       32.522      773.438     2270.416     1057.661        0.716        0.205       98.286       26.238        0.071      349.610       30.165      863.956
08/30/2013  13:58:00       62.653      -96.692       -0.139       26.419       29.724       21.164      697.982      883.510      447.901        0.765        0.101      115.216       18.155        0.025      349.432       29.855      863.938
08/30/2013  13:59:00       48.579       -1.265       23.142       33.847       59.014       24.989     1145.610     3482.607      624.451        0.407        0.263       48.595       29.119        0.359      349.522       30.011      863.924
08/30/2013  14:00:00       54.784        5.590       15.076       28.847       29.621       25.279      832.125      877.404      639.012        0.280        0.117       55.068       12.303        0.050      349.253       29.547      863.909
08/30/2013  14:01:00       67.203       40.609        9.446       24.583       34.214       28.249      604.309     1170.614      797.988        0.441        0.129       78.520       12.469        0.025      349.092       29.267      863.902
08/30/2013  14:02:00       63.233      -45.502        0.661       35.302       43.699       26.405     1246.236     1909.626      697.249        0.496        0.193       77.903       16.937        0.047      349.037       29.172      863.885
08/30/2013  14:03:00       76.473       -5.910       55.878       72.719       58.757       53.823     5288.029     3452.426     2896.895        1.032        0.582       76.701       47.956        0.391      349.551       30.063      863.870
08/30/2013  14:04:00      102.209     -159.487       -3.527       58.798       97.866       46.125     3457.220     9577.756     2127.533        2.553        0.758      189.427       61.928        0.107      349.693       30.305      863.872
08/30/2013  14:05:00       73.700      -95.735       31.618       65.800      103.554       50.396     4329.580    10723.335     2539.753        1.659        0.880      120.817       59.839        0.245      350.001       30.842      863.857
08/30/2013  14:06:00      128.883       60.297       45.956       95.283       51.082       53.086     9078.798     2609.369     2818.083        1.843        0.725      142.290       53.286        0.140      349.675       30.276      863.844
08/30/2013  14:07:00       90.216       -9.323       13.744       82.058       87.588       44.465     6733.531     7671.579     1977.164        1.240        0.819       90.697       42.227        0.217      349.537       30.036      863.843
08/30/2013  14:08:00      -27.664      -23.539      -16.862       43.753       73.373       29.921     1914.309     5383.583      895.239        0.490        0.410       36.323       22.886        0.397      349.559       30.077      863.828
08/30/2013  14:09:00       20.326        6.936       22.387       32.139       30.984       21.597     1032.938      960.029      466.432        0.171        0.123       21.477       10.579        0.243      349.690       30.304      863.798
08/30/2013  14:10:00      -26.216       -1.175       14.769       33.268       45.773       22.674     1106.761     2095.211      514.108        0.231        0.186       26.243       20.235        0.595      350.161       31.122      863.779
08/30/2013  14:11:00       38.453       41.585       30.247       55.962       28.861       32.334     3131.709      832.985     1045.471        0.457        0.251       56.639       30.565        0.291      349.526       30.019      863.775
08/30/2013  14:12:00       67.117       11.006       54.877       56.008       71.934       55.739     3136.858     5174.461     3106.788        0.953        0.571       68.013       49.201        0.523      349.123       29.320      863.758
08/30/2013  14:13:00       63.233       67.365       82.989       74.098       64.710       51.764     5490.529     4187.345     2679.465        1.389        0.618       92.393       35.907        0.151      350.011       30.858      863.746
08/30/2013  14:14:00       99.799      -21.167       48.841       66.173       66.872       53.824     4378.868     4471.847     2896.998        1.227        0.587      102.019       47.009        0.212      349.774       30.448      863.741
08/30/2013  14:15:00       13.067        4.729       64.509       82.902       82.584       61.601     6872.693     6820.166     3794.638        1.092        0.874       13.896       59.701       18.457      349.987       30.819      863.721
08/30/2013  14:16:00       57.326     -121.680        0.812       53.737       96.577       52.530     2887.701     9327.136     2759.441        1.653        0.749      134.508       57.758        0.184      349.815       30.519      863.728
08/30/2013  14:17:00       31.517      -28.222       49.135       42.609       62.042       40.057     1815.522     3849.267     1604.541        0.574        0.363       42.305       36.036        0.726      350.045       30.920      863.719
08/30/2013  14:18:00       31.712       30.323       30.038       33.840       26.369       32.610     1145.172      695.342     1063.388        0.287        0.145       43.876       17.627        0.161      349.639       30.215      863.687
08/30/2013  14:19:00       17.465        8.802        2.829       33.483       13.459       16.651     1121.103      181.152      277.255        0.098        0.079       19.558        9.188        0.221      350.063       30.950      863.646
08/30/2013  14:20:00       43.446       39.771       -8.115       51.936       59.280       26.150     2697.340     3514.119      683.835        0.521        0.345       58.900       19.127        0.105      349.911       30.688      863.624
08/30/2013  14:21:00      133.583       65.398       24.380       52.273       44.738       35.344     2732.496     2001.475     1249.217        1.435        0.299      148.732       24.513        0.027      349.813       30.516      863.594
08/30/2013  14:22:00       71.592       45.158       38.962       54.921       67.864       31.281     3016.301     4605.487      978.507        0.864        0.430       84.644       14.259        0.028      349.542       30.048      863.576
08/30/2013  14:23:00       70.406        2.362       31.384       34.893       27.035       39.381     1217.544      730.917     1550.856        0.472        0.175       70.445       19.793        0.079      349.104       29.287      863.570
08/30/2013  14:24:00       50.735       40.823       34.149       54.617       56.293       36.753     2983.037     3168.851     1350.763        0.645        0.375       65.120       33.934        0.272      349.267       29.571      863.544
08/30/2013  14:25:00       29.892     -111.527       19.510       63.493       67.182       48.925     4031.331     4513.397     2393.607        1.232        0.547      115.463       42.396        0.135      349.981       30.809      863.508
08/30/2013  14:26:00       18.414      -75.051       19.359       41.571       58.307       40.108     1728.110     3399.725     1608.683        0.654        0.337       77.277       35.987        0.217      349.954       30.762      863.480
08/30/2013  14:27:00       56.050      -43.510        1.529       50.800       58.624       52.560     2580.652     3436.736     2762.502        0.691        0.439       70.956       49.580        0.488      349.900       30.667      863.460
08/30/2013  14:28:00       33.188      -92.911       -6.792       36.403       46.710       31.052     1325.165     2181.787      964.220        0.712        0.224       98.660       23.848        0.058      349.946       30.747      863.438
08/30/2013  14:29:00       33.911      -35.023       10.019       35.701       51.812       31.740     1274.547     2684.508     1007.404        0.372        0.248       48.750       28.411        0.340      349.536       30.036      863.400
08/30/2013  14:30:00       60.992       36.063       51.870       52.165       69.877       45.891     2721.166     4882.785     2105.948        0.871        0.485       70.856       40.265        0.323      349.580       30.112      863.376
08/30/2013  14:31:00       82.306      120.441      127.196       74.615       69.988       52.452     5567.437     4898.268     2751.173        2.534        0.661      145.878       44.851        0.095      349.838       30.559      863.354
08/30/2013  14:32:00       75.236       82.711       81.883       66.615       65.776       55.340     4437.522     4326.526     3062.469        1.551        0.591      111.810       48.061        0.185      350.125       31.057      863.323
08/30/2013  14:33:00       62.291       70.988       52.569       60.086       50.793       45.899     3610.318     2579.942     2106.755        0.999        0.415       94.443       26.188        0.077      350.382       31.504      863.302
08/30/2013  14:34:00       91.408       78.241       35.967       62.085       41.772       50.261     3854.584     1744.901     2526.147        1.195        0.406      120.320       29.435        0.060      349.712       30.341      863.294
08/30/2013  14:35:00       47.307        6.921       40.375       51.537       50.131       37.103     2656.027     2513.099     1376.609        0.523        0.327       47.810       26.810        0.314      349.530       30.025      863.276
08/30/2013  14:36:00       33.479       30.710       43.710       64.407       40.592       40.634     4148.278     1647.744     1651.109        0.571        0.372       45.431       41.937        0.852      349.806       30.505      863.260
08/30/2013  14:37:00       48.891      -28.485       14.249       46.509       65.273       34.600     2163.104     4260.609     1197.143        0.551        0.381       56.584       41.676        0.542      350.043       30.916      863.246
08/30/2013  14:38:00       66.375       50.006       12.505       63.127       56.378       35.789     3985.069     3178.523     1280.880        0.775        0.422       83.104       20.564        0.061      350.226       31.233      863.234
08/30/2013  14:39:00      -48.223      -41.857      -10.788       61.340       58.249       29.732     3762.626     3392.942      883.972        0.612        0.402       63.856       15.041        0.055      350.681       32.025      863.257
08/30/2013  14:40:00      103.895      -95.173       22.443      127.648      153.467       97.340    16294.017    23551.996     9475.049        3.483        2.466      140.897      102.888        0.533      350.383       31.505      863.217
08/30/2013  14:41:00       70.825     -104.206       45.045      117.793      160.552       92.252    13875.168    25777.063     8510.461        3.302        2.408      125.996      104.965        0.694      350.157       31.113      863.215
08/30/2013  14:42:00      -20.898     -168.800      -29.074      135.005       89.591       54.335    18226.332     8026.514     2952.288        2.948        1.460      170.088       45.718        0.072      350.275       31.316      863.230
08/30/2013  14:43:00       19.915     -115.129       11.738       62.065       82.322       44.299     3852.085     6776.948     1962.430        1.319        0.630      116.839       43.623        0.139      350.190       31.171      863.240
08/30/2013  14:44:00       29.722      -46.015       41.654       51.180       85.612       40.660     2619.403     7329.375     1653.269        0.817        0.580       54.780       45.028        0.676      350.288       31.340      863.218
08/30/2013  14:45:00      -19.441        7.814       25.980       35.755       25.656       24.107     1278.386      658.248      581.171        0.182        0.126       20.953       12.922        0.380      350.226       31.234      863.205
08/30/2013  14:46:00       -2.537      -72.122        4.705       45.822       53.912       24.125     2099.626     2906.493      582.022        0.541        0.279       72.167       15.164        0.044      350.206       31.199      863.217
08/30/2013  14:47:00       -4.755     -142.612        0.842       62.859       62.726       38.344     3951.266     3934.583     1470.291        1.486        0.468      142.691       31.018        0.047      350.193       31.176      863.208
08/30/2013  14:48:00        5.718      -86.801       -0.344       58.625       58.997       34.456     3436.885     3480.627     1187.191        0.783        0.405       86.990       11.690        0.018      350.535       31.773      863.192
08/30/2013  14:49:00      -28.607      -10.627       14.416       29.847       28.137       26.939      890.845      791.713      725.718        0.177        0.120       30.518       14.145        0.215      350.599       31.884      863.190
08/30/2013  14:50:00      -91.244      -60.811        7.514       92.791       64.948       33.565     8610.215     4218.280     1126.625        1.301        0.698      109.651       45.345        0.171      350.587       31.862      863.203
08/30/2013  14:51:00     -228.854      -99.002       -3.764      142.343       91.272       50.428    20261.633     8330.539     2543.003        4.666        1.557      249.350       47.849        0.037      350.454       31.629      863.216
08/30/2013  14:52:00     -210.496     -279.399      -13.301      115.414       95.042       61.285    13320.468     9032.945     3755.819        7.432        1.305      349.818       66.590        0.036      350.150       31.098      863.203
08/30/2013  14:53:00     -157.344     -164.123        3.226      122.872      111.339       54.253    15097.506    12396.292     2943.390        4.106        1.522      227.362       73.019        0.103      350.422       31.572      863.172
08/30/2013  14:54:00     -326.558     -199.273       -2.982      153.513      111.513       67.331    23566.243    12435.056     4533.433        9.344        2.027      382.557       74.675        0.038      350.303       31.364      863.163
08/30/2013  14:55:00     -193.205     -123.094       -6.053      117.916       86.954       50.737    13904.222     7560.927     2574.209        3.827        1.202      229.085       53.073        0.054      350.316       31.388      863.154
08/30/2013  14:56:00     -202.513      -98.563        1.162      131.431       97.137       53.918    17274.076     9435.558     2907.120        4.017        1.481      225.225       62.960        0.078      350.622       31.920      863.116
08/30/2013  14:57:00     -148.443     -167.718       -8.878      114.380       86.580       57.504    13082.753     7496.066     3306.659        3.706        1.194      223.975       49.849        0.050      350.493       31.696      863.112
08/30/2013  14:58:00     -332.756     -284.224      -15.480      133.981      134.593       65.752    17950.888    18115.271     4323.278       11.606        2.019      437.619       70.331        0.026      350.266       31.300      863.066
08/30/2013  14:59:00     -281.308     -217.036      -25.811      146.317      112.558       68.972    21408.688    12669.198     4757.181        8.286        1.942      355.301       60.055        0.029      350.415       31.559      863.035
08/30/2013  15:00:00     -162.988      -75.496       11.820      146.320      106.955       60.660    21409.598    11439.453     3679.655        3.446        1.826      179.624       72.056        0.161      350.663       31.992      863.017
08/30/2013  15:01:00     -320.088      -19.584       -7.316      174.272      106.425       66.756    30370.670    11326.311     4456.413        7.451        2.308      320.687       71.125        0.049      350.681       32.024      862.997
08/30/2013  15:02:00     -213.352     -140.678      -13.419      163.098      130.404       62.576    26600.959    17005.296     3915.756        5.650        2.376      255.557       76.152        0.089      350.658       31.983      862.982
08/30/2013  15:03:00     -401.945     -249.204       -9.716      195.535      171.520       87.930    38234.049    29419.282     7731.600       14.956        3.769      472.930      104.880        0.049      350.534       31.766      862.967
08/30/2013  15:04:00     -324.993     -200.887        3.015      161.992      134.318       89.793    26241.469    18041.193     8062.722        9.915        2.617      382.069       87.464        0.052      350.429       31.584      862.992
08/30/2013  15:05:00     -171.821      -76.135        0.954      143.237      107.106       42.300    20516.750    11471.725     1789.279        3.454        1.689      187.934       57.682        0.094      350.337       31.425      862.999
08/30/2013  15:06:00      -11.084       -4.626       16.175       46.899       38.101       22.159     2199.506     1451.650      491.043        0.227        0.207       12.011       25.001        4.333      350.479       31.674      862.952
08/30/2013  15:07:00     -150.364      -22.450      -11.266       90.898      120.807       48.696     8262.529    14594.432     2371.295        2.423        1.261      152.030       31.087        0.042      350.489       31.689      862.904
08/30/2013  15:08:00     -326.288      -97.888       -9.040      174.704      108.618       67.477    30521.553    11797.856     4553.101        8.149        2.344      340.655       69.698        0.042      350.750       32.143      862.904
08/30/2013  15:09:00     -341.804     -145.226      -14.643      137.369       96.698       66.777    18870.318     9350.586     4459.152        8.540        1.634      371.377       61.943        0.028      350.663       31.991      862.916
08/30/2013  15:10:00     -299.222     -260.919       -7.192      181.761      169.846       89.100    33037.096    28847.790     7938.801       11.373        3.491      397.005       90.844        0.052      350.491       31.691      862.910
08/30/2013  15:11:00     -261.474     -152.280       -7.299      172.944      175.112       88.144    29909.459    30664.040     7769.370        7.996        3.417      302.585       84.203        0.077      350.538       31.771      862.888
08/30/2013  15:12:00     -108.506     -126.132       24.734      119.511      117.526       65.199    14282.940    13812.294     4250.903        3.031        1.617      166.382       70.360        0.179      350.573       31.835      862.880
08/30/2013  15:13:00     -112.980     -106.875       -1.027       94.854       84.377       42.945     8997.247     7119.535     1844.245        2.107        0.898      155.520       31.844        0.042      350.757       32.155      862.862
08/30/2013  15:14:00     -382.810       -1.481      -11.529      158.934      134.225       73.419    25260.158    18016.245     5390.391        9.766        2.433      382.812       70.240        0.034      350.783       32.200      862.857
08/30/2013  15:15:00     -476.094      -27.894      -34.506      142.695      126.717       72.448    20361.777    16057.204     5248.740       13.514        2.083      476.910       68.391        0.021      350.528       31.756      862.853
08/30/2013  15:16:00     -338.990     -115.980      -24.435      133.120      143.915       66.052    17720.895    20711.408     4362.915        8.587        2.140      358.281       76.867        0.046      350.477       31.665      862.839
08/30/2013  15:17:00     -241.789      -44.228       -2.303      167.406       99.666       60.360    28024.646     9933.278     3643.388        5.100        2.080      245.801       81.216        0.109      350.656       31.979      862.809
08/30/2013  15:18:00     -451.452     -167.007      -21.102      217.742      171.645       92.369    47411.367    29462.010     8532.045       15.876        4.270      481.353       99.359        0.043      350.610       31.898      862.797
08/30/2013  15:19:00     -273.560     -119.197       -5.017      165.400      125.325       66.991    27357.279    15706.389     4487.761        6.830        2.378      298.401       62.291        0.044      350.660       31.986      862.799
08/30/2013  15:20:00     -310.389     -141.669      -24.982      171.453      141.511       70.060    29396.017    20025.434     4908.468        8.567        2.716      341.191       79.259        0.054      350.634       31.941      862.793
08/30/2013  15:21:00     -122.331      -17.745       17.598      129.770      122.367       59.896    16840.169    14973.718     3587.475        2.549        1.770      123.612       65.020        0.277      350.846       32.311      862.764
08/30/2013  15:22:00     -378.750      -68.936      -18.251      171.527      127.313       71.634    29421.517    16208.686     5131.392        9.964        2.538      384.972       82.123        0.046      350.698       32.051      862.768
08/30/2013  15:23:00     -419.886      -74.787       -3.125      199.669      197.208       92.835    39867.628    38891.104     8618.286       13.462        4.369      426.494       95.436        0.050      350.624       31.922      862.762
08/30/2013  15:24:00     -209.130     -135.564      -15.146      206.949      149.554       93.332    42828.030    22366.464     8710.801        6.811        3.695      249.225       93.798        0.142      350.521       31.743      862.756
08/30/2013  15:25:00     -143.598       16.586        9.214      107.246      115.453       49.901    11501.695    13329.454     2490.092        2.415        1.366      144.553       48.377        0.112      350.806       32.242      862.735
08/30/2013  15:26:00     -184.561     -117.942       14.910      191.309      129.599       80.654    36599.239    16795.884     6505.071        5.404        2.995      219.028       96.323        0.193      350.657       31.980      862.724
08/30/2013  15:27:00     -257.049     -191.166      -13.497      147.689      127.608       69.849    21812.020    16283.745     4878.885        7.288        2.149      320.342       71.230        0.049      350.627       31.928      862.719
08/30/2013  15:28:00     -251.891      -78.961      -13.979      149.224      107.892       63.256    22267.703    11640.744     4001.280        5.389        1.895      263.977       71.057        0.072      350.787       32.206      862.725
08/30/2013  15:29:00     -365.093      -50.870      -42.652       94.214      125.527       64.527     8876.252    15757.088     4163.709        8.324        1.440      368.620       52.208        0.020      350.594       31.869      862.700
08/30/2013  15:30:00     -306.326     -205.969       -4.399      185.608      172.902       94.999    34450.378    29894.955     9024.878       10.481        3.669      369.133       95.552        0.067      350.814       32.255      862.663
08/30/2013  15:31:00     -224.489      -32.023       16.385      204.650      122.409       85.886    41881.643    14984.068     7376.364        5.795        3.212      226.761      111.474        0.242      350.782       32.198      862.667
08/30/2013  15:32:00     -419.497      -40.633      -20.794      188.264      128.731       84.157    35443.300    16571.779     7082.419       11.857        2.955      421.460       97.018        0.053      350.716       32.082      862.669
08/30/2013  15:33:00     -523.316     -101.548      -23.475      172.984      120.841       83.485    29923.488    14602.517     6969.803       16.810        2.575      533.077       82.386        0.024      350.674       32.009      862.686
08/30/2013  15:34:00     -461.015     -121.644      -14.352      201.693      161.736       80.954    40680.056    26158.670     6553.505       15.045        3.670      476.794      100.189        0.044      350.728       32.103      862.661
08/30/2013  15:35:00     -390.439        0.205       -3.283      196.615      118.391       71.182    38657.533    14016.444     5066.936       10.509        2.887      390.439       88.896        0.052      350.645       31.959      862.689
08/30/2013  15:36:00     -343.806      -49.175      -20.980      157.308      147.936       71.452    24745.808    21884.933     5105.452        8.639        2.587      347.304       78.052        0.051      350.637       31.947      862.696
08/30/2013  15:37:00     -235.830      -57.024        3.962      158.572      145.816       66.109    25145.121    21262.420     4370.336        5.482        2.539      242.626       68.139        0.079      350.691       32.041      862.684
08/30/2013  15:38:00     -310.367      -62.294      -18.136      140.558       92.560       64.292    19756.456     8567.290     4133.417        6.649        1.623      316.556       66.185        0.044      350.569       31.827      862.675
08/30/2013  15:39:00     -320.213      -75.890      -30.446      156.144       89.546       52.452    24380.823     8018.491     2751.233        7.218        1.758      329.083       48.766        0.022      350.588       31.860      862.653
08/30/2013  15:40:00     -315.367      -76.354      -28.313      120.766       81.743       56.498    14584.340     6681.972     3192.034        6.527        1.223      324.479       57.694        0.032      350.650       31.968      862.649
08/30/2013  15:41:00     -260.124      -15.600      -22.861      176.377      129.458       54.501    31108.886    16759.408     2970.366        5.962        2.542      260.592       58.044        0.050      350.482       31.675      862.638
08/30/2013  15:42:00     -183.814        8.105        1.282       91.946       63.954       53.149     8454.060     4090.162     2824.767        2.461        0.768      183.992       49.877        0.073      350.650       31.970      862.626
08/30/2013  15:43:00     -149.566      -11.396       -7.674       94.787       86.398       40.882     8984.639     7464.606     1671.315        2.034        0.906      149.999       39.287        0.069      350.736       32.120      862.607
08/30/2013  15:44:00     -390.722      -95.377       -3.148      159.901      124.574       65.352    25568.354    15518.720     4270.850       10.356        2.268      402.195       72.700        0.033      350.716       32.083      862.589
08/30/2013  15:45:00     -307.341      -71.178       -4.783      148.518      108.899       66.532    22057.586    11858.960     4426.495        6.894        1.917      315.476       67.083        0.045      350.824       32.271      862.558
08/30/2013  15:46:00     -271.527      -76.955       12.023      155.329      109.663       66.326    24127.177    12026.052     4399.195        6.016        2.028      282.221       78.778        0.078      350.930       32.456      862.558
08/30/2013  15:47:00     -220.683     -206.539        0.849      166.293      154.137       78.092    27653.254    23758.224     6098.406        7.442        2.875      302.257       75.515        0.062      350.816       32.258      862.572
08/30/2013  15:48:00     -157.665     -169.466        7.127      168.692      111.598       71.786    28456.897    12454.086     5153.198        4.984        2.303      231.467       89.925        0.151      350.912       32.426      862.563
08/30/2013  15:49:00     -391.509     -199.946      -12.152      183.908      147.847       85.713    33822.313    21858.880     7346.789       12.820        3.151      439.611       83.250        0.036      350.672       32.006      862.565
08/30/2013  15:50:00     -297.194     -112.934      -15.883      125.360      103.629       50.559    15715.205    10739.033     2556.213        6.516        1.451      317.928       56.780        0.032      350.615       31.906      862.575
08/30/2013  15:51:00     -297.840     -113.749      -15.817      137.291      103.331       58.928    18848.866    10677.274     3472.480        6.744        1.650      318.822       65.570        0.042      350.747       32.138      862.542
08/30/2013  15:52:00     -271.568     -100.296        5.091      184.959      166.825       79.470    34209.986    27830.488     6315.483        7.608        3.418      289.497       92.306        0.102      350.839       32.298      862.530
08/30/2013  15:53:00     -357.961      -75.578      -11.558      165.570      134.825       64.285    27413.324    18177.723     4132.570        9.184        2.486      365.853       80.530        0.048      350.930       32.457      862.512
08/30/2013  15:54:00     -327.904      -89.728       -7.529      187.174      144.060       82.978    35034.205    20753.140     6885.312        8.914        3.134      339.960       88.471        0.068      350.869       32.348      862.502
08/30/2013  15:55:00     -305.726     -155.612       -0.829      233.726      158.204       85.537    54627.710    25028.442     7316.571       10.231        4.349      343.051      116.932        0.116      350.784       32.202      862.506
08/30/2013  15:56:00     -220.129     -223.756        8.897      189.245      164.232       82.274    35813.823    26972.098     6769.045        8.406        3.478      313.885       88.910        0.080      350.727       32.102      862.483
08/30/2013  15:57:00     -385.755      -81.520       13.205      238.305      172.963       87.561    56789.193    29916.147     7666.945       12.498        4.719      394.274      109.895        0.078      350.837       32.294      862.492
08/30/2013  15:58:00     -331.940      -58.542       -0.004      192.485      133.434       84.058    37050.306    17804.668     7065.717        8.775        3.096      337.063       94.897        0.079      350.673       32.007      862.547
08/30/2013  15:59:00     -193.101      -65.070       -6.511      138.565      101.071       61.816    19200.269    10215.291     3821.265        3.739        1.662      203.770       66.793        0.107      350.683       32.027      862.501
08/30/2013  16:00:00     -238.301      -89.472      -20.151      134.911      112.419       52.746    18201.084    12638.009     2782.165        4.940        1.681      254.544       40.981        0.026      350.715       32.081      862.485
08/30/2013  16:01:00     -421.829       50.047      -38.554      199.341      128.519       69.447    39736.801    16517.253     4822.851       12.149        3.054      424.787       88.142        0.043      350.727       32.101      862.485
08/30/2013  16:02:00     -290.594      -67.830      -15.460      105.058       80.789       60.889    11037.106     6526.838     3707.447        5.527        1.064      298.405       52.094        0.030      350.882       32.373      862.483
08/30/2013  16:03:00     -252.696        5.138       -1.780      145.998      137.469       70.211    21315.321    18897.598     4929.575        5.450        2.257      252.748       63.876        0.064      350.939       32.472      862.477
08/30/2013  16:04:00     -246.450      -82.614        8.711      196.578      109.954       71.418    38642.905    12089.881     5100.466        6.172        2.792      259.928       85.482        0.108      350.968       32.522      862.485
08/30/2013  16:05:00     -310.266     -100.372      -10.846      173.811      145.679       88.295    30210.360    21222.494     7795.993        8.283        2.961      326.097       80.607        0.061      350.822       32.268      862.461
08/30/2013  16:06:00     -206.089     -185.678       10.563      194.602      152.217       88.713    37870.072    23169.965     7869.973        7.297        3.446      277.397       99.160        0.128      350.817       32.259      862.463
08/30/2013  16:07:00     -408.864     -142.382      -12.359      145.812      124.295       71.695    21261.041    15449.270     5140.116       11.471        2.093      432.946       68.838        0.025      350.843       32.305      862.482
08/30/2013  16:08:00     -519.810      -68.184      -50.910      161.713      153.433       74.826    26151.230    23541.755     5598.971       16.636        2.765      524.263       83.728        0.026      350.586       31.856      862.460
08/30/2013  16:09:00     -323.084       15.572      -12.464      186.577      143.513       73.618    34811.027    20595.988     5419.589        8.279        3.041      323.459       95.927        0.088      350.732       32.111      862.445
08/30/2013  16:10:00     -487.512     -111.052      -35.176      204.544      127.881       77.864    41838.395    16353.672     6062.810       15.773        3.213      500.001       90.456        0.033      350.747       32.137      862.457
08/30/2013  16:11:00     -372.718     -102.873        2.914      217.049      159.192       89.047    47110.151    25342.206     7929.434       11.493        4.019      386.654       91.295        0.056      350.653       31.973      862.473
08/30/2013  16:12:00     -382.085     -156.984      -19.837      234.626      124.617       67.701    55049.533    15529.413     4583.431       12.308        3.758      413.078       89.858        0.047      350.600       31.883      862.467
08/30/2013  16:13:00     -353.287     -162.544      -25.186      140.036      122.887       70.177    19610.119    15101.322     4924.743        9.574        1.982      388.886       51.462        0.018      350.645       31.959      862.468
08/30/2013  16:14:00     -279.715       -2.321       11.719      230.545      166.615       90.644    53151.018    27760.538     8216.365        8.374        4.456      279.725      105.782        0.143      350.731       32.109      862.487
08/30/2013  16:15:00     -152.583      -19.264        4.290      170.774      100.243       60.523    29163.785    10048.687     3663.085        3.326        2.144      153.794       66.117        0.185      350.719       32.090      862.470
08/30/2013  16:16:00     -444.948     -191.738      -16.381      195.926      129.695       85.818    38386.945    16820.801     7364.720       14.878        3.129      484.502       81.727        0.028      350.593       31.866      862.478
08/30/2013  16:17:00     -394.929      -94.536       -2.162      188.452      132.679       57.087    35514.325    17603.661     3258.874       11.063        2.819      406.086       65.462        0.026      350.625       31.924      862.462
08/30/2013  16:18:00     -341.602      -86.094      -16.045      177.044      138.523       68.000    31344.437    19188.559     4623.973        8.975        2.758      352.284       74.030        0.044      350.599       31.879      862.430
08/30/2013  16:19:00     -338.600      -79.409       -6.200      184.480      165.475       83.752    34032.778    27381.952     7014.370        9.470        3.421      347.787       82.503        0.056      350.566       31.822      862.392
08/30/2013  16:20:00     -402.573     -256.065      -10.573      192.869      164.690       87.105    37198.486    27122.923     7587.288       14.981        3.595      477.110       95.493        0.040      350.514       31.731      862.433
08/30/2013  16:21:00     -362.968     -240.784      -19.946      178.968      161.935       91.803    32029.705    26222.933     8427.820       12.839        3.334      435.572      105.148        0.058      350.539       31.775      862.417
08/30/2013  16:22:00     -391.646     -153.487      -24.604      155.477      160.765       70.286    24173.162    25845.357     4940.089       11.624        2.748      420.648       71.734        0.029      350.605       31.889      862.425
08/30/2013  16:23:00     -236.320     -216.941        1.967      189.335      162.937       73.918    35847.602    26548.581     5463.925        8.537        3.393      320.796       80.583        0.063      350.587       31.858      862.416
08/30/2013  16:24:00     -245.944     -126.253       -5.332      120.848      114.618       59.983    14604.263    13137.292     3597.903        5.389        1.567      276.457       61.029        0.049      350.632       31.936      862.398
08/30/2013  16:25:00     -249.888      -93.604       -9.920      121.467      114.531       54.819    14754.255    13117.366     3005.144        5.108        1.544      266.844       53.767        0.041      350.822       32.267      862.413
08/30/2013  16:26:00     -456.798      -60.211      -41.527      156.487      159.686       76.851    24488.272    25499.753     5906.087       13.494        2.795      460.749       80.170        0.030      350.745       32.132      862.401
08/30/2013  16:27:00     -288.401      -89.249       -8.482      215.642      141.970       84.928    46501.678    20155.456     7212.776        8.253        3.693      301.895      101.886        0.114      350.704       32.062      862.388
08/30/2013  16:28:00     -509.678      -99.759      -48.037      172.019      206.539       84.869    29590.705    42658.202     7202.829       17.573        3.973      519.349       73.676        0.020      350.599       31.879      862.362
08/30/2013  16:29:00     -520.544     -108.284      -38.896      223.325      160.640       95.540    49874.097    25805.236     9127.909       18.449        4.240      531.687      118.204        0.049      350.505       31.716      862.342
08/30/2013  16:30:00     -278.922      -76.646       -4.568      144.060      126.511       68.854    20753.261    16004.996     4740.812        6.259        2.075      289.261       65.061        0.051      350.612       31.900      862.380
08/30/2013  16:31:00     -359.189      -99.927       -0.323      170.078      152.661       83.862    28926.599    23305.488     7032.802        9.912        2.963      372.830       85.633        0.053      350.632       31.936      862.366
08/30/2013  16:32:00     -285.551     -122.640       18.766      193.629      163.075       87.448    37492.227    26593.526     7647.202        8.432        3.587      310.773      107.251        0.119      350.660       31.986      862.376
08/30/2013  16:33:00     -348.326     -211.292      -10.364      208.086      204.216       99.589    43299.672    41704.365     9917.900       13.048        4.746      407.401      104.063        0.065      350.536       31.769      862.369
08/30/2013  16:34:00     -532.280     -168.720      -29.628      166.450      204.515       78.773    27705.641    41826.522     6205.157       19.419        3.787      558.380       86.287        0.024      350.343       31.434      862.395
08/30/2013  16:35:00     -256.951     -117.839      -16.746       94.230       96.013       44.267     8879.215     9218.568     1959.554        5.012        1.003      282.683       32.663        0.013      350.466       31.647      862.384
08/30/2013  16:36:00     -167.699      -50.711       14.438      120.164      130.013       68.252    14439.304    16903.294     4658.314        3.344        1.800      175.199       72.365        0.171      350.588       31.862      862.379
08/30/2013  16:37:00     -469.127      -21.128      -42.496      297.247      179.168       89.063    88355.992    32101.093     7932.217       17.533        6.419      469.602      125.704        0.072      350.487       31.685      862.348
08/30/2013  16:38:00     -229.450      -60.794       -2.755      102.261      116.576       57.129    10457.340    13589.999     3263.688        4.183        1.366      237.367       51.582        0.047      350.684       32.027      862.345
08/30/2013  16:39:00     -307.510      -58.120      -11.711      143.840      115.092       62.555    20689.825    13246.262     3913.094        6.796        1.892      312.954       63.036        0.041      350.683       32.024      862.335
08/30/2013  16:40:00     -387.711       33.976      -26.145      137.899      146.577       62.615    19016.043    21484.788     3920.597        9.828        2.221      389.197       69.064        0.031      350.583       31.849      862.331
08/30/2013  16:41:00     -361.293       18.095      -23.755      174.427      139.319       76.078    30424.866    19409.812     5787.840        9.351        2.781      361.746       76.191        0.044      350.630       31.932      862.299
08/30/2013  16:42:00     -526.170       13.940      -32.694      169.013      178.159       73.278    28565.292    31740.581     5369.693       17.188        3.284      526.355       64.899        0.015      350.542       31.778      862.307
08/30/2013  16:43:00     -311.502      -32.247       -0.059      162.069      121.043       82.014    26266.413    14651.303     6726.377        7.285        2.382      313.166       90.823        0.084      350.627       31.927      862.298
08/30/2013  16:44:00     -264.943     -103.270        7.664      194.662      197.938       88.714    37893.400    39179.555     7870.211        8.291        4.247      284.358      101.623        0.128      350.627       31.928      862.300
08/30/2013  16:45:00     -340.065     -112.254      -21.693      327.215      150.310      106.704   107069.521    22593.030    11385.748       13.485        7.052      358.113      136.110        0.144      350.484       31.680      862.279
08/30/2013  16:46:00     -282.797      -79.675       23.437      208.176      146.779       75.652    43337.119    21544.020     5723.164        7.872        3.530      293.807       94.073        0.103      350.579       31.844      862.297
08/30/2013  16:47:00     -469.226     -105.736        5.431      160.864      114.267       82.566    25877.120    13056.854     6817.097       13.856        2.288      480.992       76.651        0.025      350.506       31.718      862.290
08/30/2013  16:48:00     -454.113     -229.347      -17.382      196.472      181.480       88.930    38601.378    32934.930     7908.544       16.927        3.972      508.742      102.757        0.041      350.439       31.600      862.257
08/30/2013  16:49:00     -277.576     -168.566       -0.778      220.239      144.388       90.944    48505.410    20848.034     8270.798        9.153        3.881      324.751      112.306        0.120      350.559       31.809      862.241
08/30/2013  16:50:00     -390.305     -122.485        7.136      234.210      145.371       88.802    54854.304    21132.867     7885.838       12.562        4.194      409.073      104.085        0.065      350.425       31.576      862.237
08/30/2013  16:51:00     -279.240     -135.386       -8.971      211.124      129.518       71.758    44573.480    16774.804     5149.275        8.143        3.325      310.329       76.922        0.061      350.533       31.765      862.223
08/30/2013  16:52:00     -340.456     -124.587       -5.308      180.192      110.198       81.379    32469.292    12143.547     6622.622        9.134        2.562      362.535       87.918        0.059      350.561       31.813      862.237
08/30/2013  16:53:00     -204.461      -53.584      -12.355      118.028       97.250       54.712    13930.724     9457.565     2993.403        3.560        1.319      211.366       49.403        0.055      350.748       32.141      862.236
08/30/2013  16:54:00     -192.006      -68.660       -0.231      153.841      113.647       61.883    23667.156    12915.648     3829.518        4.099        2.021      203.913       68.819        0.114      350.719       32.089      862.234
08/30/2013  16:55:00     -291.549     -175.440       -1.056      189.821      153.939       92.538    36032.132    23697.288     8563.310        9.202        3.415      340.265       92.407        0.074      350.446       31.612      862.210
08/30/2013  16:56:00     -246.218     -226.381       13.288      171.045      124.745       72.286    29256.468    15561.259     5225.310        8.104        2.502      334.472       83.596        0.062      350.456       31.629      862.223
08/30/2013  16:57:00     -318.508     -211.316       -6.052      165.201      163.236       74.400    27291.231    26645.881     5535.341       10.279        2.974      382.233       80.469        0.044      350.565       31.819      862.233
08/30/2013  16:58:00     -384.102     -188.979       -6.864      245.628      196.190       90.375    60333.206    38490.450     8167.638       14.512        5.350      428.074      115.256        0.072      350.469       31.654      862.223
08/30/2013  16:59:00     -387.917     -168.406       -0.504      195.509      142.141       85.152    38223.963    20203.983     7250.849       12.225        3.284      422.895       88.970        0.044      350.465       31.648      862.248
08/30/2013  17:00:00     -226.631      -56.681       20.810      179.044      130.230       84.653    32056.601    16959.868     7166.191        5.558        2.809      233.611       86.866        0.138      350.532       31.762      862.247
08/30/2013  17:01:00     -352.642     -293.281      -17.004      224.724      160.012       97.987    50500.729    25603.795     9601.443       14.817        4.285      458.661      113.945        0.062      350.348       31.444      862.242
08/30/2013  17:02:00     -549.776     -230.855      -27.110      234.246      180.585       94.540    54871.154    32610.991     8937.818       22.633        4.821      596.278      105.002        0.031      350.363       31.468      862.231
08/30/2013  17:03:00     -338.967     -154.317      -14.414      165.707      184.294       84.153    27458.761    33964.425     7081.662       10.370        3.425      372.441       88.684        0.057      350.492       31.692      862.241
08/30/2013  17:04:00     -396.451     -112.676       -1.296      218.470      144.141       90.868    47729.013    20776.510     8256.975       12.330        3.838      412.152      105.007        0.065      350.460       31.636      862.259
08/30/2013  17:05:00     -402.169      -55.656      -18.490      201.014      134.273       79.635    40406.748    18029.135     6341.717       11.497        3.239      406.002       98.420        0.059      350.389       31.513      862.252
08/30/2013  17:06:00     -266.123      -18.162       -6.855      152.121      108.927       53.052    23140.661    11865.133     2814.543        5.450        1.891      266.742       52.572        0.039      350.493       31.695      862.237
08/30/2013  17:07:00     -155.424      -37.942       -0.832       79.620       82.227       47.159     6339.323     6761.257     2224.006        2.046        0.766      159.988       39.132        0.060      350.541       31.780      862.233
08/30/2013  17:08:00     -309.115        8.176      -12.417      145.511      121.138       57.456    21173.368    14674.477     3301.231        6.745        1.957      309.224       41.148        0.018      350.595       31.873      862.245
08/30/2013  17:09:00     -309.218      -79.134       -3.734      173.559      116.744       67.587    30122.801    13629.196     4568.004        7.510        2.416      319.183       77.910        0.060      350.499       31.706      862.243
08/30/2013  17:10:00     -323.573     -145.786       -7.141      212.760      140.262       67.111    45266.838    19673.461     4503.864        9.771        3.472      354.899       82.207        0.054      350.503       31.713      862.245
08/30/2013  17:11:00     -381.130     -259.454      -15.173      226.601      157.139       90.121    51347.932    24692.519     8121.804       14.847        4.208      461.060      104.888        0.052      350.378       31.496      862.239
08/30/2013  17:12:00     -442.600     -156.644       -6.612      172.946      205.111       88.783    29910.395    42070.433     7882.341       15.015        3.993      469.502       91.479        0.038      350.358       31.461      862.217
08/30/2013  17:13:00     -410.061     -172.267      -25.152      227.961      191.232       81.789    51966.110    36569.818     6689.423       14.682        4.761      444.776      100.487        0.051      350.363       31.470      862.195
08/30/2013  17:14:00     -440.475      -84.730       -2.779      248.463      141.133       92.542    61733.909    19918.596     8563.982       14.569        4.511      448.550      111.553        0.062      350.369       31.480      862.195
08/30/2013  17:15:00     -391.974      -93.400      -10.356      163.581      146.135       82.710    26758.628    21355.315     6841.009       10.870        2.748      402.948       93.112        0.053      350.381       31.500      862.199
08/30/2013  17:16:00     -329.979      -66.783      -26.699      194.785      101.868       69.190    37941.289    10377.017     4787.318        8.357        2.655      336.670       46.667        0.019      350.446       31.612      862.191
08/30/2013  17:17:00     -478.498      -95.704      -30.586      173.208      134.367       77.476    30000.846    18054.576     6002.501       14.655        2.703      487.975       88.476        0.033      350.337       31.424      862.190
08/30/2013  17:18:00     -350.887      -98.963      -10.179      152.743      160.487       63.296    23330.454    25756.085     4006.435        9.305        2.655      364.575       55.895        0.024      350.366       31.475      862.202
08/30/2013  17:19:00     -267.070        1.362       -6.612      158.385      121.478       57.793    25085.650    14757.025     3340.085        5.727        2.159      267.073       72.873        0.074      350.443       31.608      862.191
08/30/2013  17:20:00     -351.111     -133.168      -12.013      125.119      136.312       67.329    15654.658    18581.090     4533.192        8.995        1.938      375.516       59.052        0.025      350.345       31.439      862.187
08/30/2013  17:21:00     -191.147      -35.842       11.659      111.674       93.689       58.504    12471.087     8777.646     3422.738        3.131        1.234      194.478       63.079        0.105      350.411       31.554      862.183
08/30/2013  17:22:00     -218.339     -182.384       -5.850      149.564      145.432       76.684    22369.532    21150.443     5880.402        6.518        2.470      284.492       83.188        0.086      350.454       31.627      862.201
08/30/2013  17:23:00     -423.355     -242.497      -14.006      181.179      108.568       75.987    32825.925    11786.957     5774.049       14.430        2.519      487.888       82.560        0.029      350.248       31.269      862.208
08/30/2013  17:24:00     -281.093     -207.593        1.973      171.327      132.204       95.017    29353.015    17477.837     9028.218        8.897        2.793      349.439      106.216        0.092      350.344       31.438      862.204
08/30/2013  17:25:00     -341.897     -103.872      -12.155      130.049      146.965       71.118    16912.719    21598.661     5057.777        8.569        2.178      357.327       67.334        0.036      350.363       31.469      862.214
08/30/2013  17:26:00     -409.909      -31.761      -30.871      126.024      112.414       57.174    15881.987    12636.919     3268.872       10.088        1.589      411.138       47.490        0.013      350.354       31.453      862.204
08/30/2013  17:27:00     -318.152     -100.810      -15.587      215.047      166.994       89.852    46245.181    27887.156     8073.383        9.690        4.110      333.741       97.553        0.085      350.337       31.424      862.191
08/30/2013  17:28:00     -506.281      -92.272      -28.411      170.372      168.547       81.154    29026.620    28408.031     6585.921       16.482        3.201      514.620       85.407        0.028      350.319       31.391      862.152
08/30/2013  17:29:00     -334.446     -105.020      -11.071      150.457      113.233       68.699    22637.433    12821.722     4719.576        8.158        2.009      350.547       73.786        0.044      350.388       31.513      862.192
08/30/2013  17:30:00     -330.486      -33.122      -15.004      144.024      104.043       75.325    20742.797    10824.910     5673.860        7.388        1.862      332.142       70.175        0.045      350.413       31.557      862.184
08/30/2013  17:31:00     -159.880     -131.495       24.537      228.446      123.912       93.649    52187.467    15354.077     8770.175        5.987        3.816      207.008      118.894        0.330      350.397       31.529      862.183
08/30/2013  17:32:00     -386.113     -120.888      -12.107      247.427      136.664       83.977    61219.928    18677.026     7052.146       12.538        4.347      404.595      115.598        0.082      350.346       31.438      862.199
08/30/2013  17:33:00     -261.217     -132.552      -20.884      123.224      134.259       69.731    15184.120    18025.420     4862.374        6.215        1.904      292.924       64.278        0.048      350.297       31.354      862.182
08/30/2013  17:34:00     -281.124      -47.520      -14.107      102.809      118.932       62.039    10569.689    14144.792     3848.842        5.502        1.428      285.112       46.273        0.026      350.340       31.429      862.179
08/30/2013  17:35:00     -177.987      -87.945       -5.923       75.203       84.807       50.964     5655.554     7192.249     2597.292        2.744        0.772      198.529       40.271        0.041      350.376       31.494      862.165
08/30/2013  17:36:00     -178.034      -76.928        1.349      129.530      123.983       67.772    16778.110    15371.847     4592.989        3.717        1.837      193.943       73.478        0.144      350.376       31.492      862.171
08/30/2013  17:37:00     -268.899     -148.116        8.368      187.320      153.795       97.887    35088.799    23652.804     9581.824        8.131        3.416      306.994      105.671        0.118      350.237       31.250      862.150
08/30/2013  17:38:00     -312.106     -173.732       -6.555      175.960      109.159       76.242    30961.882    11915.636     5812.917        8.815        2.435      357.201       75.477        0.045      350.244       31.263      862.166
08/30/2013  17:39:00     -408.624     -198.746      -14.661      249.993      143.554       88.797    62496.323    20607.734     7884.868       14.882        4.549      454.394       98.747        0.047      350.131       31.064      862.155
08/30/2013  17:40:00     -480.204     -125.686      -30.428      184.860      133.433       74.286    34173.077    17804.394     5518.351       15.240        2.875      496.380       78.580        0.025      350.156       31.107      862.157
08/30/2013  17:41:00     -311.368      -92.340      -12.192      161.913      139.583       64.889    26215.833    19483.405     4210.547        7.776        2.495      324.772       69.903        0.046      350.170       31.134      862.167
08/30/2013  17:42:00     -317.452      -15.718       -0.041      155.960      138.675       80.439    24323.382    19230.765     6470.498        7.551        2.501      317.841       83.375        0.069      350.158       31.112      862.174
08/30/2013  17:43:00     -384.360     -175.014      -10.800      173.099      138.661       80.034    29963.153    19226.969     6405.462       11.703        2.780      422.330       81.219        0.037      350.194       31.174      862.162
08/30/2013  17:44:00     -328.976      -96.040      -19.994      199.844      144.969       75.367    39937.549    21016.040     5680.151        9.223        3.332      342.708       95.511        0.078      350.232       31.242      862.163
08/30/2013  17:45:00     -199.507      -74.206        4.705      132.682      124.253       51.735    17604.559    15438.900     2676.500        4.052        1.786      212.860       60.987        0.082      350.290       31.344      862.149
08/30/2013  17:46:00     -395.911     -214.032       -6.813      206.305      155.453       84.262    42561.801    24165.566     7100.006       13.820        3.691      450.062       95.695        0.045      350.150       31.098      862.165
08/30/2013  17:47:00     -234.082        7.155       -1.787      167.358      120.358       71.120    28008.579    14486.024     5058.016        5.119        2.378      234.192       64.806        0.077      350.215       31.213      862.166
08/30/2013  17:48:00     -427.570      -35.715      -19.548      147.053      141.934       75.461    21624.532    20145.153     5694.378       11.596        2.373      429.059       86.152        0.040      350.146       31.091      862.161
08/30/2013  17:49:00     -457.867      -96.751      -12.120      213.858      150.032       79.733    45735.196    22509.602     6357.342       14.686        3.730      467.978       87.638        0.035      350.068       30.956      862.158
08/30/2013  17:50:00     -408.558     -112.035      -16.093      236.278      141.711       83.728    55827.337    20081.917     7010.402       13.131        4.146      423.641      100.401        0.056      350.073       30.963      862.170
08/30/2013  17:51:00     -456.982     -127.356        4.257      228.730      152.964       86.788    52317.435    23398.050     7532.111       15.414        4.162      474.396      102.851        0.047      350.015       30.864      862.162
08/30/2013  17:52:00     -295.530      -50.981        0.978      188.887      118.549       75.850    35678.442    14053.870     5753.167        7.270        2.774      299.895       98.507        0.108      350.098       31.007      862.176
08/30/2013  17:53:00     -354.626     -193.535      -21.587      226.967      119.395       81.887    51513.989    14255.259     6705.516       11.806        3.624      404.000       82.693        0.042      350.043       30.912      862.188
08/30/2013  17:54:00     -312.610       -0.189      -15.395      142.562      151.329       73.692    20324.048    22900.524     5430.530        7.330        2.433      312.610       76.999        0.061      350.095       31.001      862.209
08/30/2013  17:55:00     -384.027      -22.650      -27.261      157.276      151.113       68.406    24735.736    22835.183     4679.335       10.048        2.613      384.695       69.013        0.032      350.055       30.932      862.210
08/30/2013  17:56:00     -201.838      -45.297        0.625      158.853      137.746       74.126    25234.289    18974.091     5494.720        4.624        2.485      206.859       73.863        0.127      350.094       31.001      862.208
08/30/2013  17:57:00     -521.116     -125.966      -30.640      216.694      133.476       84.895    46956.321    17815.795     7207.221       18.016        3.599      536.124       86.991        0.026      350.040       30.907      862.205
08/30/2013  17:58:00     -495.347     -158.114      -27.094      186.078      155.429       75.889    34625.052    24158.310     5759.095       16.781        3.227      519.970       87.997        0.029      349.993       30.827      862.172
08/30/2013  17:59:00     -361.510      -98.649       -8.676      248.769      182.740       94.874    61886.162    33393.845     9001.152       12.237        5.214      374.728       94.951        0.064      350.019       30.871      862.180
08/30/2013  18:00:00     -495.342     -146.779       -6.453      197.197      156.595       84.852    38886.484    24521.903     7199.799       16.876        3.530      516.631       90.567        0.031      349.973       30.791      862.164
08/30/2013  18:01:00     -441.360      -51.263      -18.827      170.797      152.064       78.799    29171.563    23123.465     6209.216       12.813        2.925      444.327       68.138        0.024      349.974       30.792      862.168
08/30/2013  18:02:00     -222.332      -67.551        1.586      158.325      130.560       63.808    25066.774    17046.011     4071.473        5.008        2.309      232.367       70.536        0.092      350.032       30.894      862.181
08/30/2013  18:03:00     -215.813      -65.695      -10.655      119.590       95.963       45.993    14301.703     9208.812     2115.331        3.831        1.281      225.590       38.618        0.029      350.055       30.933      862.202
08/30/2013  18:04:00     -319.169     -165.989       -3.261      160.473      130.064       67.323    25751.533    16916.639     4532.369        8.831        2.360      359.752       68.279        0.036      349.968       30.784      862.209
08/30/2013  18:05:00     -236.214     -104.701       -4.706      137.461      101.588       60.862    18895.655    10320.200     3704.180        4.984        1.646      258.378       47.125        0.033      349.925       30.708      862.207
08/30/2013  18:06:00     -278.055     -175.716       -8.828      184.880      133.117       72.716    34180.442    17720.137     5287.620        8.272        2.859      328.923       71.393        0.047      349.885       30.638      862.206
08/30/2013  18:07:00     -252.393     -113.143      -15.901      147.015      117.018       68.371    21613.432    13693.121     4674.599        5.836        1.999      276.593       72.893        0.069      349.904       30.671      862.193
08/30/2013  18:08:00     -333.666     -113.700       -4.716      238.961      137.223       65.426    57102.456    18830.140     4280.526       10.223        4.011      352.507       89.342        0.064      349.818       30.523      862.196
08/30/2013  18:09:00     -292.816      -60.979       -8.600      129.657      103.536       68.726    16811.007    10719.679     4723.311        6.089        1.613      299.098       60.450        0.041      349.888       30.644      862.204
08/30/2013  18:10:00     -411.434       34.741      -19.629      178.866      131.908       69.205    31992.881    17399.720     4789.334       11.252        2.709      412.898       66.411        0.026      349.917       30.694      862.189
08/30/2013  18:11:00     -369.650     -116.718      -34.255      138.893      117.173       72.857    19291.140    13729.625     5308.096        9.488        1.916      387.640       65.910        0.029      349.889       30.646      862.200
08/30/2013  18:12:00     -246.089      -39.778        0.336      123.537       80.143       57.086    15261.380     6422.874     3258.815        4.354        1.247      249.283       56.685        0.052      349.892       30.652      862.208
08/30/2013  18:13:00     -330.452      -65.443        0.820      155.747       91.933       67.553    24257.191     8451.683     4563.388        7.537        1.864      336.870       79.600        0.056      349.871       30.614      862.205
08/30/2013  18:14:00     -194.342      -37.466        4.067      113.718       92.837       60.253    12931.789     8618.763     3630.364        3.218        1.259      197.921       58.922        0.089      349.920       30.700      862.201
08/30/2013  18:15:00     -217.670      -32.606        1.841      119.142       83.748       53.358    14194.721     7013.697     2847.086        3.625        1.203      220.099       52.043        0.056      349.927       30.712      862.222
08/30/2013  18:16:00     -294.836      -47.804        2.007      132.024      118.992       67.893    17430.453    14159.198     4609.460        6.270        1.810      298.686       63.935        0.046      349.859       30.593      862.225
08/30/2013  18:17:00     -326.583      -74.541      -12.740      180.397      121.293       72.408    32543.069    14712.042     5242.980        8.243        2.625      334.982       81.294        0.059      349.798       30.487      862.230
08/30/2013  18:18:00     -293.564      -14.484        4.678      163.634       99.077       73.062    26776.198     9816.348     5338.077        6.416        2.097      293.921       79.607        0.073      349.774       30.445      862.235
08/30/2013  18:19:00     -475.398     -132.081      -17.480      155.230      160.114       82.685    24096.219    25636.416     6836.818       15.015        2.828      493.405       84.422        0.029      349.717       30.345      862.229
08/30/2013  18:20:00     -290.903      -95.588       -9.455      143.504      130.130       74.247    20593.431    16933.724     5512.659        6.844        2.152      306.205       80.757        0.070      349.713       30.337      862.225
08/30/2013  18:21:00     -330.795     -101.078        3.258      169.284      133.395       67.497    28656.912    17794.241     4555.891        8.532        2.550      345.893       81.869        0.056      349.715       30.341      862.223
08/30/2013  18:22:00     -327.834      -66.171      -21.156      116.740      105.242       55.251    13628.146    11075.908     3052.649        7.002        1.388      334.446       49.732        0.022      349.770       30.438      862.226
08/30/2013  18:23:00     -269.162       56.229       -1.587      147.654      100.936       64.844    21801.730    10188.139     4204.734        5.590        1.810      274.973       75.050        0.074      349.700       30.317      862.234
08/30/2013  18:24:00     -209.685      -47.706       10.163      121.594       89.989       61.227    14785.091     8097.943     3748.763        3.648        1.332      215.044       69.209        0.104      349.683       30.287      862.238
08/30/2013  18:25:00     -288.606      -33.527      -12.530      110.636       95.714       57.915    12240.374     9161.132     3354.122        5.466        1.238      290.547       51.173        0.031      349.735       30.375      862.255
08/30/2013  18:26:00     -231.360      -32.996       -0.858      115.674      113.089       61.019    13380.375    12789.132     3723.303        4.225        1.495      233.701       53.673        0.053      349.740       30.386      862.253
08/30/2013  18:27:00     -227.189      -45.174       -8.332       82.517      111.790       47.406     6809.029    12496.936     2247.341        3.763        1.078      231.637       40.777        0.031      349.738       30.382      862.255
08/30/2013  18:28:00     -399.597     -106.661      -27.045      136.623      122.183       61.353    18665.781    14928.641     3764.181       10.456        1.868      413.587       61.976        0.022      349.652       30.234      862.237
08/30/2013  18:29:00     -475.724       32.655      -37.161      120.957      180.864       70.269    14630.517    32711.903     4937.793       14.051        2.614      476.843       62.195        0.017      349.645       30.221      862.226
08/30/2013  18:30:00     -326.521      -90.275      -12.497      206.899      158.482       75.132    42807.151    25116.632     5644.833        9.423        3.678      338.770       71.664        0.045      349.661       30.249      862.193
08/30/2013  18:31:00     -359.284     -133.967      -12.265      126.001      130.729       65.916    15876.207    17090.013     4344.874        9.224        1.866      383.448       59.510        0.024      349.620       30.178      862.226
08/30/2013  18:32:00     -298.158     -125.283      -18.510      115.042      102.587       54.887    13234.703    10524.176     3012.631        6.585        1.339      323.411       54.354        0.028      349.590       30.127      862.216
08/30/2013  18:33:00     -230.293      -81.622       -8.416      122.107      104.055       53.423    14910.181    10827.381     2854.025        4.417        1.430      244.330       52.819        0.047      349.550       30.055      862.206
08/30/2013  18:34:00     -172.621      -11.548        0.010      156.904      122.546       69.874    24618.972    15017.408     4882.421        3.722        2.226      173.007       71.813        0.172      349.554       30.067      862.193
08/30/2013  18:35:00     -493.370     -112.204       -6.084      184.429      153.407       81.370    34014.009    23533.793     6621.095       16.009        3.208      505.968       82.742        0.027      349.507       29.983      862.187
08/30/2013  18:36:00     -340.963      -81.768       -0.167      150.964      141.407       71.966    22790.242    19995.890     5179.125        8.544        2.398      350.630       59.964        0.029      349.519       30.003      862.171
08/30/2013  18:37:00     -510.757     -114.346      -25.670      159.774      128.322       71.441    25527.849    16466.639     5103.881       16.084        2.355      523.400       73.554        0.020      349.499       29.968      862.185
08/30/2013  18:38:00     -368.606      -93.573       -5.011      168.110      163.064       78.762    28260.979    26589.973     6203.477       10.284        3.053      380.297       83.615        0.048      349.513       29.993      862.174
08/30/2013  18:39:00     -445.252      -92.819      -43.430      230.917      122.943       76.584    53322.614    15115.074     5865.033       14.151        3.715      454.824      102.935        0.051      349.511       29.989      862.176
08/30/2013  18:40:00     -290.144      -31.854      -11.197      120.362      107.317       59.278    14487.031    11516.892     3513.844        5.741        1.476      291.887       67.442        0.053      349.477       29.932      862.189
08/30/2013  18:41:00     -162.974      -72.104        9.643      115.390      105.140       56.649    13314.796    11054.360     3209.141        2.971        1.379      178.212       55.296        0.096      349.429       29.847      862.195
08/30/2013  18:42:00     -293.763      -13.550      -24.295      139.464      116.789       72.208    19450.210    13639.644     5214.051        6.268        1.915      294.075       72.266        0.060      349.471       29.920      862.197
08/30/2013  18:43:00     -325.630      -21.014      -13.870      167.495      121.042       66.558    28054.607    14651.268     4429.925        7.689        2.357      326.308       65.365        0.040      349.418       29.826      862.200
08/30/2013  18:44:00     -313.266      -53.826      -17.772      178.273      144.320       71.867    31781.381    20828.369     5164.825        7.955        2.889      317.857       82.322        0.067      349.397       29.791      862.191
08/30/2013  18:45:00     -380.926     -122.151      -12.436      127.123      117.670       53.629    16160.204    13846.120     2876.050        9.652        1.644      400.032       55.273        0.019      349.349       29.705      862.201
08/30/2013  18:46:00     -397.626      -75.022      -14.881      171.782      133.019       68.360    29508.956    17694.059     4673.096       10.791        2.594      404.641       68.395        0.029      349.366       29.738      862.208
08/30/2013  18:47:00     -272.150      -60.976       -6.278      108.442       92.948       52.017    11759.603     8639.273     2705.761        5.046        1.155      278.897       48.890        0.031      349.330       29.675      862.235
08/30/2013  18:48:00     -214.384      -64.783       -4.896      102.905       70.783       42.846    10589.401     5010.251     1835.756        3.380        0.872      223.959       46.717        0.044      349.296       29.617      862.251
08/30/2013  18:49:00     -217.933       19.364       -9.923      101.632       91.678       49.741    10329.151     8404.898     2474.120        3.458        1.060      218.792       55.364        0.064      349.258       29.551      862.255
08/30/2013  18:50:00     -192.576      -38.925        3.737       79.896       88.243       51.875     6383.376     7786.820     2691.034        2.773        0.843      196.470       39.936        0.041      349.282       29.593      862.245
08/30/2013  18:51:00     -135.216       -7.897       -0.466       85.437       74.996       47.243     7299.534     5624.431     2231.917        1.675        0.758      135.446       41.128        0.092      349.239       29.520      862.249
08/30/2013  18:52:00     -402.786      -42.676      -24.340      155.298      127.023       67.999    24117.599    16134.938     4623.846       10.475        2.244      405.040       64.423        0.025      349.262       29.559      862.242
08/30/2013  18:53:00     -292.791       -8.568       -5.130      115.659       96.775       60.324    13376.996     9365.370     3638.934        5.610        1.319      292.917       56.723        0.037      349.221       29.486      862.249
08/30/2013  18:54:00     -310.016      -30.059       -6.574      135.430      105.061       67.181    18341.152    11037.781     4513.268        6.547        1.695      311.470       72.296        0.054      349.221       29.487      862.242
08/30/2013  18:55:00     -300.158      -76.108       -7.422      172.160      130.367       62.007    29639.226    16995.568     3844.876        7.320        2.524      309.656       79.043        0.065      349.144       29.354      862.238
08/30/2013  18:56:00     -286.796      -97.350       -2.976      179.829      109.762       75.229    32338.592    12047.734     5659.442        7.088        2.502      302.868       94.531        0.097      349.118       29.309      862.245
08/30/2013  18:57:00     -429.088      -72.778       -7.353      152.416       92.583       67.818    23230.705     8571.697     4599.324       11.293        1.820      435.216       76.899        0.031      349.192       29.436      862.253
08/30/2013  18:58:00     -276.216      -21.277       -2.315      143.851      111.239       61.217    20693.075    12374.226     3747.510        5.678        1.841      277.034       63.309        0.052      349.137       29.342      862.248
08/30/2013  18:59:00     -269.379      -19.198       -7.134      172.874       89.196       63.514    29885.353     7955.980     4034.001        5.742        2.094      270.062       77.620        0.083      349.162       29.385      862.256
08/30/2013  19:00:00     -507.470      -88.872      -32.585      188.396      108.838       80.622    35493.091    11845.754     6499.924       16.015        2.692      515.194       88.702        0.030      349.144       29.353      862.233
08/30/2013  19:01:00     -339.133     -110.614       -5.436      161.408      139.451       75.699    26052.690    19446.622     5730.370        8.924        2.561      356.716       84.467        0.056      349.104       29.284      862.231
08/30/2013  19:02:00     -414.052     -113.901      -20.409      151.684      154.085       69.369    23007.930    23742.085     4812.119       11.819        2.578      429.433       62.479        0.021      349.118       29.308      862.236
08/30/2013  19:03:00     -387.864      -75.765      -22.527      161.366      132.903       67.615    26038.913    17663.269     4571.802       10.247        2.414      395.195       74.032        0.035      349.083       29.246      862.251
08/30/2013  19:04:00     -331.072     -102.002      -11.448      156.767      123.555       63.257    24575.797    15265.777     4001.385        8.198        2.192      346.429       58.604        0.029      349.047       29.185      862.256
08/30/2013  19:05:00     -314.077     -166.172       -6.722      198.333      130.151       77.084    39336.123    16939.272     5941.954        9.425        3.111      355.327       75.087        0.045      348.990       29.087      862.252
08/30/2013  19:06:00     -224.605      -72.170        6.100      101.768      117.472       59.804    10356.808    13799.762     3576.476        4.171        1.387      235.915       62.364        0.070      348.972       29.055      862.275
08/30/2013  19:07:00     -293.924     -133.712      -13.200      145.624      132.125       72.754    21206.494    17457.127     5293.091        7.419        2.198      322.909       64.944        0.040      348.967       29.046      862.284
08/30/2013  19:08:00     -325.389      -40.633       -9.404      167.167      116.379       66.606    27944.905    13544.057     4436.364        7.676        2.296      327.917       83.517        0.065      348.942       29.003      862.297
08/30/2013  19:09:00     -297.240     -119.184      -15.833      132.773      151.241       61.978    17628.559    22873.791     3841.232        7.357        2.217      320.244       62.604        0.038      348.936       28.993      862.296
08/30/2013  19:10:00     -335.763     -152.484       -7.390      149.046      122.011       54.067    22214.761    14886.767     2923.246        8.803        2.001      368.765       64.602        0.031      348.915       28.958      862.300
08/30/2013  19:11:00     -287.335      -19.828      -19.886      145.169      109.071       64.034    21074.097    11896.444     4100.358        6.020        1.854      288.019       75.532        0.069      348.874       28.886      862.291
08/30/2013  19:12:00     -533.851     -139.545      -13.928      193.374      140.953       80.103    37393.696    19867.611     6416.426       18.416        3.184      551.788       82.559        0.022      348.950       29.017      862.293
08/30/2013  19:13:00     -280.420      -53.917        1.548      198.434      120.805       79.897    39376.221    14593.758     6383.547        7.094        3.018      285.556       85.816        0.090      348.878       28.892      862.284
08/30/2013  19:14:00     -306.749     -118.071      -14.403       91.162      109.079       54.692     8310.586    11898.262     2991.270        6.572        1.160      328.688       46.426        0.020      348.888       28.909      862.295
08/30/2013  19:15:00     -352.003     -103.510       -6.357      140.940      129.453       68.784    19864.103    16758.056     4731.201        8.800        2.068      366.907       61.581        0.028      348.892       28.914      862.296
08/30/2013  19:16:00     -305.412     -132.826      -13.498      162.767      115.235       64.131    26493.078    13279.219     4112.767        7.748        2.194      333.045       66.746        0.040      348.823       28.796      862.295
08/30/2013  19:17:00     -226.696       -1.936       12.110      229.268      112.472       72.852    52563.732    12649.952     5307.432        6.102        3.526      226.704       94.727        0.175      348.723       28.624      862.298
08/30/2013  19:18:00     -403.515      -66.817      -24.971      184.893      108.834       73.353    34185.400    11844.919     5380.672       10.965        2.571      409.009       89.038        0.047      348.827       28.804      862.300
08/30/2013  19:19:00     -329.291     -141.521       -5.440      181.544      143.641       83.943    32958.399    20632.797     7046.445        9.455        3.032      358.414       95.220        0.071      348.765       28.695      862.314
08/30/2013  19:20:00     -291.882      -48.891        3.188      176.990      132.545       70.465    31325.361    17568.262     4965.340        7.072        2.693      295.948       70.084        0.056      348.762       28.690      862.344
08/30/2013  19:21:00     -374.503     -106.994      -15.620      166.566      156.101       71.876    27744.200    24367.561     5166.111       10.460        2.864      389.487       79.587        0.042      348.780       28.723      862.354
08/30/2013  19:22:00     -341.946      -14.230       -9.549      172.279      159.825       78.176    29679.987    25544.159     6111.542        8.927        3.067      342.242       85.568        0.063      348.698       28.581      862.355
08/30/2013  19:23:00     -433.213      -89.820       -9.729      179.073      161.153       68.736    32067.222    25970.156     4724.584       12.929        3.138      442.427       65.816        0.022      348.758       28.684      862.378
08/30/2013  19:24:00     -352.279     -105.928       -7.202      157.816      166.863       71.189    24905.880    27843.421     5067.944        9.658        2.891      367.861       78.018        0.045      348.728       28.633      862.369
08/30/2013  19:25:00     -179.506      -32.804       13.750      174.891      101.286       69.056    30586.816    10258.830     4768.786        3.954        2.281      182.479       86.107        0.223      348.617       28.442      862.374
08/30/2013  19:26:00     -134.571      -58.180       16.990      170.706      124.818       70.793    29140.513    15579.450     5011.632        3.575        2.487      146.609       88.121        0.361      348.606       28.425      862.381
08/30/2013  19:27:00     -207.727      -62.193       -0.206      123.730      113.071       51.611    15309.198    12784.947     2663.736        3.888        1.538      216.837       58.117        0.072      348.609       28.426      862.401
08/30/2013  19:28:00     -306.612      -62.588      -10.435      107.958       97.737       58.257    11654.832     9552.468     3393.838        6.131        1.230      312.935       54.341        0.030      348.614       28.434      862.400
08/30/2013  19:29:00     -349.759      -59.575      -29.357      149.145      137.731       65.896    22244.195    18969.774     4342.289        8.614        2.278      354.796       74.624        0.044      348.589       28.391      862.391
08/30/2013  19:30:00     -367.355      -68.418      -11.719      162.030      124.724       74.229    26253.795    15556.056     5509.983        9.353        2.366      373.672       82.130        0.048      348.579       28.374      862.398
08/30/2013  19:31:00     -384.553      -57.752      -24.756      148.984      130.026       80.367    22196.270    16906.855     6458.877        9.869        2.278      388.866       79.918        0.042      348.572       28.360      862.411
08/30/2013  19:32:00     -415.773     -101.710      -16.048      167.688      127.339       75.970    28119.428    16215.270     5771.411       11.678        2.505      428.033       84.258        0.039      348.548       28.318      862.407
08/30/2013  19:33:00     -482.924      -87.392      -26.789      181.896      166.009       71.935    33086.123    27559.088     5174.676       15.368        3.291      490.768       69.485        0.020      348.600       28.410      862.413
08/30/2013  19:34:00     -364.205      -30.719      -22.843      153.121      127.103       62.295    23445.935    16155.166     3880.721        8.879        2.174      365.498       68.343        0.035      348.571       28.359      862.440
08/30/2013  19:35:00     -360.079       -0.153      -20.612      123.586       95.706       62.130    15273.601     9159.614     3860.141        7.918        1.415      360.079       62.983        0.031      348.559       28.338      862.461
08/30/2013  19:36:00     -305.728      -56.216        1.002      134.656       94.766       65.037    18132.118     8980.545     4229.780        6.398        1.567      310.853       68.658        0.049      348.541       28.308      862.489
08/30/2013  19:37:00     -409.803      -21.126      -16.532      182.865      171.588       81.114    33439.711    29442.368     6579.424       11.905        3.473      410.348       86.932        0.045      348.552       28.328      862.487
08/30/2013  19:38:00     -354.960       25.684      -18.361      229.050      106.362       72.210    52463.841    11312.970     5214.356        9.798        3.450      355.888      107.323        0.091      348.499       28.236      862.497
08/30/2013  19:39:00     -298.648      -39.468       -6.983      135.424      100.668       67.916    18339.766    10134.011     4612.592        6.194        1.654      301.245       68.680        0.052      348.471       28.189      862.526
08/30/2013  19:40:00     -357.002     -175.651       -6.455      133.127      130.339       70.309    17722.736    16988.311     4943.360        9.899        1.983      397.874       77.906        0.038      348.474       28.193      862.527
08/30/2013  19:41:00     -253.620      -71.667       -1.051      140.943       81.438       55.916    19864.970     6632.136     3126.599        4.954        1.481      263.551       66.286        0.063      348.401       28.065      862.530
08/30/2013  19:42:00     -295.518      -58.561      -26.223      129.125      115.786       62.714    16673.342    13406.503     3933.079        6.272        1.701      301.265       67.288        0.050      348.438       28.130      862.544
08/30/2013  19:43:00     -257.285        0.605      -11.861      118.552       92.178       46.947    14054.469     8496.841     2204.051        4.554        1.238      257.286       53.834        0.044      348.352       27.983      862.542
08/30/2013  19:44:00     -160.761      -46.836       -4.053      154.799       77.009       52.108    23962.777     5930.454     2715.255        3.032        1.630      167.445       70.182        0.176      348.292       27.881      862.524
08/30/2013  19:45:00     -241.163      -24.290        3.015      138.137      100.258       68.793    19081.732    10051.648     4732.490        4.631        1.693      242.383       70.858        0.085      348.306       27.901      862.517
08/30/2013  19:46:00     -199.507      -21.137       -0.516      135.399      104.921       51.394    18332.846    11008.428     2641.373        3.611        1.599      200.623       55.679        0.077      348.250       27.807      862.499
08/30/2013  19:47:00     -361.444      -72.012       -8.288      166.664      129.774       75.882    27776.950    16841.248     5758.139        9.313        2.519      368.548       86.278        0.055      348.283       27.860      862.506
08/30/2013  19:48:00     -382.594     -104.730      -15.225      159.977      138.045       72.337    25592.745    19056.399     5232.579       10.372        2.494      396.669       70.612        0.032      348.298       27.887      862.513
08/30/2013  19:49:00     -386.858      -74.050      -23.813      133.021      123.009       60.892    17694.614    15131.206     3707.809        9.611        1.827      393.882       60.722        0.024      348.300       27.892      862.522
08/30/2013  19:50:00     -410.598      -75.192      -32.215      152.819      107.853       68.735    23353.579    11632.228     4724.479       10.749        1.986      417.426       74.344        0.032      348.308       27.906      862.536
08/30/2013  19:51:00     -342.818      -69.536      -19.581      200.169      162.690       78.842    40067.445    26467.917     6216.130        9.773        3.638      349.799       63.832        0.033      348.356       27.989      862.528
08/30/2013  19:52:00     -389.930      -40.662      -27.330      122.444       98.802       59.975    14992.459     9761.858     3596.986        9.139        1.418      392.044       62.454        0.025      348.352       27.982      862.544
08/30/2013  19:53:00     -289.614      -52.161       -3.684      103.977      118.282       66.575    10811.229    13990.602     4432.233        5.792        1.462      294.274       54.959        0.035      348.320       27.923      862.540
08/30/2013  19:54:00     -452.576      -97.314      -24.791      194.030      107.629       69.288    37647.535    11583.957     4800.771       13.446        2.702      462.920       72.641        0.025      348.336       27.954      862.543
08/30/2013  19:55:00     -364.932      -84.016      -31.194      130.840      120.707       66.413    17119.076    14570.214     4410.677        8.865        1.805      374.479       60.713        0.026      348.318       27.922      862.550
08/30/2013  19:56:00     -361.302     -112.313      -15.102      166.350      148.718       69.688    27672.263    22117.159     4856.408        9.900        2.732      378.356       79.698        0.044      348.268       27.837      862.574
08/30/2013  19:57:00     -378.706     -134.954      -15.090      210.369       98.121       62.567    44255.239     9627.812     3914.666       10.982        2.890      402.033       55.593        0.019      348.292       27.877      862.600
08/30/2013  19:58:00     -368.514     -111.622       -8.278      223.667      123.900       78.298    50026.717    15351.103     6130.611       10.991        3.575      385.048       93.054        0.058      348.256       27.816      862.618
08/30/2013  19:59:00     -273.486      -69.743      -17.482      113.795       97.017       55.123    12949.307     9412.247     3038.527        5.268        1.270      282.239       54.970        0.038      348.256       27.815      862.674
08/30/2013  20:00:00     -341.956      -73.164       -1.218      226.564      125.381       85.608    51331.178    15720.416     7328.710        9.832        3.719      349.696      109.779        0.099      348.283       27.864      862.705
08/30/2013  20:01:00     -456.594      -58.479      -17.386      170.574      123.338       72.598    29095.554    15212.335     5270.517       13.088        2.479      460.324       83.084        0.033      348.317       27.920      862.725
08/30/2013  20:02:00     -563.885      -95.486      -29.975      169.921      143.420       80.509    28873.221    20569.339     6481.697       19.194        2.796      571.913       86.464        0.023      348.394       28.055      862.747
08/30/2013  20:03:00     -389.733      -88.495      -22.019      101.389      121.151       58.785    10279.651    14677.541     3455.689        9.430        1.421      399.653       52.172        0.017      348.349       27.976      862.748
08/30/2013  20:04:00     -307.549     -106.600       -4.674      156.706      115.707       65.093    24556.757    13388.154     4237.146        7.407        2.109      325.500       79.887        0.060      348.295       27.884      862.754
08/30/2013  20:05:00     -191.599       -0.994        3.663      113.847       84.174       57.160    12961.224     7085.309     3267.260        3.001        1.166      191.601       55.337        0.083      348.236       27.783      862.760
08/30/2013  20:06:00     -225.643      -50.921       -7.373      103.258       83.792       49.876    10662.235     7021.088     2487.583        3.686        1.009      231.317       48.895        0.045      348.219       27.752      862.765
08/30/2013  20:07:00     -288.966      -73.186       -3.609      148.119      103.084       69.305    21939.181    10626.400     4803.125        6.311        1.868      298.090       68.529        0.053      348.162       27.654      862.769
08/30/2013  20:08:00     -285.954      -37.782       -5.594      157.649      103.519       50.685    24853.076    10716.128     2568.982        6.068        1.907      288.440       58.961        0.042      348.196       27.714      862.762
08/30/2013  20:09:00     -345.842      -96.435      -10.152      121.991       94.274       62.738    14881.797     8887.567     3936.044        7.835        1.385      359.035       56.888        0.025      348.186       27.696      862.743
08/30/2013  20:10:00     -293.205     -136.134        9.329      161.426      111.030       67.277    26058.318    12327.650     4526.190        7.374        2.146      323.268       76.254        0.056      348.088       27.525      862.764
08/30/2013  20:11:00     -314.119      -90.470      -16.076      144.479      127.365       82.412    20874.102    16221.930     6791.753        7.549        2.194      326.887       87.835        0.072      348.141       27.616      862.801
08/30/2013  20:12:00     -251.933      -56.937      -16.954      120.129       90.227       64.248    14430.867     8140.832     4127.840        4.684        1.335      258.287       59.401        0.053      348.093       27.533      862.826
08/30/2013  20:13:00     -303.435     -107.140      -19.280      172.204      129.220       69.571    29654.146    16697.759     4840.118        7.755        2.560      321.795       79.320        0.061      348.147       27.628      862.825
08/30/2013  20:14:00     -454.177      -71.787      -26.925      192.024      124.980       71.643    36873.146    15620.125     5132.681       13.488        2.881      459.815       81.440        0.031      348.166       27.661      862.832
08/30/2013  20:15:00     -456.369      -65.189      -22.210      173.231      147.322       69.525    30008.949    21703.856     4833.665       13.477        2.827      461.001       74.754        0.026      348.150       27.633      862.856
08/30/2013  20:16:00     -447.541      -90.639      -13.245      144.634      148.630       80.691    20918.966    22090.898     6511.105       12.909        2.476      456.627       81.302        0.032      348.156       27.642      862.873
08/30/2013  20:17:00     -390.868     -127.983       -3.796      197.876      118.423       69.490    39154.754    14024.113     4828.822       11.358        2.900      411.287       86.871        0.045      348.111       27.564      862.868
08/30/2013  20:18:00     -395.697      -78.082       -8.616      172.734      112.866       64.867    29837.187    12738.655     4207.738       10.476        2.339      403.327       66.605        0.027      348.151       27.634      862.876
08/30/2013  20:19:00     -452.485      -59.778      -15.895      179.328      122.966       77.472    32158.427    15120.668     6001.979       13.091        2.664      456.416       92.338        0.041      348.084       27.518      862.903
08/30/2013  20:20:00     -309.138      -33.035       -4.288      154.027      121.992       64.721    23724.464    14882.160     4188.856        6.973        2.140      310.898       72.849        0.055      348.042       27.447      862.905
08/30/2013  20:21:00     -312.188      -48.169      -14.239      146.506      114.100       60.332    21464.129    13018.737     3639.895        6.905        1.906      315.882       73.354        0.054      348.052       27.464      862.915
08/30/2013  20:22:00     -122.334        6.978       28.493      118.400      129.225       68.065    14018.629    16699.107     4632.869        2.558        1.768      122.533       82.227        0.450      347.881       27.169      862.913
08/30/2013  20:23:00     -242.957      -15.134      -11.404      145.321       81.672       57.207    21118.308     6670.351     3272.667        4.522        1.553      243.427       66.773        0.075      348.002       27.377      862.921
08/30/2013  20:24:00     -247.376       14.043      -15.777      118.311       77.166       58.873    13997.594     5954.629     3466.035        4.252        1.171      247.774       45.386        0.034      348.004       27.381      862.926
08/30/2013  20:25:00     -368.821     -100.671       -6.860      134.565       98.958       58.649    18107.856     9792.614     3439.708        8.877        1.567      382.313       55.984        0.021      348.013       27.396      862.930
08/30/2013  20:26:00     -281.817      -44.352      -10.829      125.608       91.521       55.329    15777.265     8376.125     3061.263        5.435        1.361      285.286       59.852        0.044      347.972       27.325      862.941
08/30/2013  20:27:00     -314.121      -41.068      -10.344      158.360      121.199       67.411    25077.761    14689.267     4544.223        7.238        2.216      316.794       81.493        0.066      347.966       27.317      862.937
08/30/2013  20:28:00     -298.720      -86.153       -6.485      141.728      117.652       62.524    20086.798    13842.032     3909.231        6.726        1.892      310.895       64.781        0.043      347.956       27.298      862.935
08/30/2013  20:29:00     -339.926      -72.217      -10.792      173.158      127.675       66.422    29983.731    16300.817     4411.866        8.578        2.535      347.513       80.879        0.054      347.985       27.347      862.937
08/30/2013  20:30:00     -135.088      -82.388       31.079      150.452      104.226       76.535    22635.859    10863.019     5857.589        3.267        1.968      158.230       86.409        0.298      347.842       27.102      862.971
08/30/2013  20:31:00     -188.384      -68.240        2.688      116.278       97.783       67.252    13520.481     9561.561     4522.770        3.387        1.380      200.363       70.806        0.125      347.897       27.197      862.986
08/30/2013  20:32:00     -274.560      -52.039      -24.951       95.664       87.132       46.187     9151.556     7592.050     2133.247        4.879        0.944      279.448       43.254        0.024      347.910       27.219      863.005
08/30/2013  20:33:00     -453.768      -95.030      -23.006      106.651       84.988       55.863    11374.468     7222.992     3120.685       11.859        1.086      463.612       53.913        0.014      347.948       27.284      863.012
08/30/2013  20:34:00     -191.596      -73.828       -7.491       90.707       82.411       45.880     8227.842     6791.576     2104.933        2.967        0.856      205.328       48.984        0.057      347.839       27.096      863.005
08/30/2013  20:35:00     -305.680      -84.169      -14.846      159.419       97.902       61.484    25414.290     9584.820     3780.265        6.975        1.939      317.056       70.012        0.049      347.891       27.188      863.009
08/30/2013  20:36:00     -134.726     -101.510       15.336      116.236       96.312       50.366    13510.700     9276.041     2536.755        2.700        1.266      168.687       56.406        0.112      347.872       27.152      863.027
08/30/2013  20:37:00     -265.803      -10.083        0.363      139.650      126.588       51.494    19502.165    16024.477     2651.676        5.446        1.909      265.994       51.506        0.037      347.853       27.120      863.029
08/30/2013  20:38:00     -132.089      -66.085       14.641      129.979       87.242       63.054    16894.516     7611.253     3975.861        2.525        1.424      147.699       69.040        0.218      347.817       27.058      863.043
08/30/2013  20:39:00     -278.124     -140.858       -9.375       92.582       96.447       61.561     8571.426     9302.080     3789.755        5.947        1.083      311.760       52.698        0.029      347.850       27.113      863.046
08/30/2013  20:40:00     -229.600      -82.478      -10.913       75.624       94.154       43.684     5718.914     8864.936     1908.262        3.806        0.825      243.965       40.704        0.028      347.863       27.135      863.050
08/30/2013  20:41:00     -209.898        6.892        2.888      142.606       98.892       58.995    20336.529     9779.543     3480.468        3.885        1.680      210.011       64.041        0.093      347.828       27.077      863.039
08/30/2013  20:42:00     -316.165     -107.267      -11.041      110.796      129.173       55.232    12275.825    16685.634     3050.564        7.179        1.601      333.866       53.117        0.025      347.812       27.048      863.035
08/30/2013  20:43:00     -284.947     -109.251       -2.394       96.143       78.332       42.395     9243.517     6135.848     1797.317        5.515        0.859      305.173       47.900        0.025      347.772       26.980      863.068
08/30/2013  20:44:00     -194.553     -104.642       -4.664       78.204       77.174       42.860     6115.891     5955.838     1836.939        3.136        0.695      220.910       40.153        0.033      347.708       26.870      863.086
08/30/2013  20:45:00     -260.135     -134.834       -8.752      155.328       93.912       57.885    24126.871     8819.477     3350.683        6.110        1.815      293.003       66.879        0.052      347.775       26.985      863.096
08/30/2013  20:46:00     -239.187     -126.891       -3.969      132.644       90.604       48.368    17594.397     8209.110     2339.483        5.073        1.407      270.761       56.581        0.044      347.747       26.936      863.111
08/30/2013  20:47:00     -257.632     -154.020       -2.927       91.832       96.473       60.045     8433.177     9306.963     3605.351        5.572        1.067      300.161       53.826        0.032      347.767       26.971      863.120
08/30/2013  20:48:00     -239.864      -79.992        5.886      115.661       66.710       51.163    13377.578     4450.289     2617.690        4.220        1.022      252.850       46.878        0.034      347.762       26.962      863.126
08/30/2013  20:49:00     -193.009     -116.982       -2.417       84.916       85.551       50.945     7210.769     7318.961     2595.438        3.403        0.856      225.693       43.050        0.036      347.768       26.974      863.131
08/30/2013  20:50:00     -255.376      -22.886       -8.741       94.771       72.066       52.741     8981.544     5193.482     2781.562        4.138        0.848      256.399       56.226        0.048      347.725       26.900      863.146
08/30/2013  20:51:00     -182.526     -103.953        6.201       99.655       83.448       42.922     9931.039     6963.538     1842.280        3.144        0.937      210.052       34.174        0.026      347.676       26.816      863.154
08/30/2013  20:52:00     -143.465      -65.887       -5.878       97.026       99.917       44.329     9413.986     9983.377     1965.081        2.316        1.068      157.871       45.595        0.083      347.744       26.932      863.133
08/30/2013  20:53:00     -176.878      -93.801       -8.220       92.673       72.748       47.638     8588.214     5292.284     2269.362        2.815        0.807      200.210       51.502        0.066      347.705       26.865      863.138
08/30/2013  20:54:00     -171.982      -51.818        5.752      118.781      104.267       50.051    14108.874    10871.677     2505.096        2.989        1.374      179.618       59.841        0.111      347.599       26.683      863.122
08/30/2013  20:55:00      -98.055       -1.925       19.974       93.107       81.827       59.440     8668.935     6695.665     3533.123        1.445        0.945       98.074       53.554        0.298      347.490       26.497      863.132
08/30/2013  20:56:00     -247.055     -101.824      -20.133      106.756       99.522       55.303    11396.911     9904.685     3058.401        4.808        1.218      267.216       60.661        0.052      347.624       26.725      863.148
08/30/2013  20:57:00     -220.256     -152.685       -8.579      110.567       92.305       52.440    12225.128     8520.270     2749.914        4.769        1.175      268.003       51.761        0.037      347.728       26.904      863.146
08/30/2013  20:58:00     -213.477      -62.828        3.014       96.820       94.352       46.536     9374.061     8902.312     2165.628        3.498        1.022      222.530       44.761        0.040      347.685       26.832      863.154
08/30/2013  20:59:00     -230.123     -110.286       -8.007      129.265      114.170       48.706    16709.456    13034.811     2372.319        4.864        1.606      255.185       59.469        0.054      347.644       26.760      863.157
08/30/2013  21:00:00     -232.582      -51.215       -6.211      100.484       64.434       53.057    10097.065     4151.727     2815.096        3.691        0.853      238.154       55.693        0.055      347.635       26.744      863.165
08/30/2013  21:01:00     -183.528      -43.896       -5.449       66.486       79.413       37.685     4420.328     6306.489     1420.147        2.389        0.607      188.704       32.698        0.030      347.550       26.599      863.166
08/30/2013  21:02:00     -249.075      -92.579        1.066       99.556       76.928       49.834     9911.437     5917.846     2483.425        4.446        0.916      265.724       48.754        0.034      347.491       26.494      863.178
08/30/2013  21:03:00     -203.586      -29.432       -2.768      111.936       87.705       48.243    12529.595     7692.187     2327.407        3.243        1.127      205.703       45.508        0.049      347.478       26.474      863.173
08/30/2013  21:04:00     -225.684     -103.936        0.418      113.893       75.863       47.732    12971.544     5755.183     2278.362        4.137        1.050      248.467       48.755        0.039      347.524       26.552      863.177
08/30/2013  21:05:00     -224.763      -76.495       -2.045      103.937       73.973       45.375    10802.946     5471.982     2058.857        3.735        0.917      237.424       49.704        0.044      347.507       26.523      863.174
08/30/2013  21:06:00     -296.091      -95.508      -14.735       55.271       59.018       36.257     3054.868     3483.164     1314.540        5.243        0.393      311.114       23.994        0.006      347.514       26.535      863.179
08/30/2013  21:07:00     -353.867     -128.782      -20.799      102.736       91.327       55.758    10554.696     8340.596     3108.998        8.212        1.100      376.572       36.724        0.010      347.515       26.536      863.185
08/30/2013  21:08:00     -312.013      -74.994       -5.326      131.985       87.395       59.834    17419.990     7637.895     3580.165        6.582        1.432      320.899       70.347        0.048      347.537       26.572      863.211
08/30/2013  21:09:00     -198.237      -95.267        8.763      112.570      111.021       47.454    12672.092    12325.673     2251.912        3.784        1.362      219.940       56.283        0.065      347.526       26.557      863.225
08/30/2013  21:10:00     -173.251      -72.036        0.531      106.169       74.937       43.448    11271.931     5615.551     1887.740        2.699        0.939      187.630       43.477        0.054      347.522       26.548      863.218
08/30/2013  21:11:00     -151.879      -55.345       -5.165      108.217       97.959       45.210    11710.914     9596.016     2043.925        2.475        1.168      161.649       48.285        0.089      347.507       26.524      863.223
08/30/2013  21:12:00     -176.752      -29.250       -4.193       58.994       64.235       36.338     3480.328     4126.160     1320.465        2.052        0.446      179.156       34.789        0.038      347.487       26.491      863.247
08/30/2013  21:13:00     -149.916      -53.225        9.613      122.297      137.867       49.546    14956.549    19007.259     2454.782        3.090        1.821      159.084       53.368        0.113      347.416       26.367      863.263
08/30/2013  21:14:00     -228.235      -44.615      -20.294      103.420       52.606       52.226    10695.664     2767.435     2727.551        3.534        0.810      232.554       57.688        0.062      347.477       26.471      863.265
08/30/2013  21:15:00     -216.658      -38.377      -13.137      137.500       82.704       52.476    18906.314     6839.988     2753.780        3.854        1.425      220.030       63.405        0.083      347.468       26.456      863.278
08/30/2013  21:16:00     -192.420      -81.863       -1.944       89.594       73.992       47.535     8027.049     5474.884     2259.578        2.974        0.788      209.110       42.168        0.041      347.513       26.534      863.303
08/30/2013  21:17:00      -98.603        6.306       -1.298       67.922       42.708       30.721     4613.333     1823.988      943.807        0.857        0.369       98.804       34.439        0.121      347.368       26.287      863.327
08/30/2013  21:18:00      -68.472       15.147        3.584       57.135       30.666       25.063     3264.398      940.397      628.150        0.488        0.242       70.127       19.564        0.078      347.358       26.268      863.334
08/30/2013  21:19:00      -67.270        0.065       -3.897       55.484       49.691       26.086     3078.521     2469.223      680.481        0.538        0.311       67.270       29.010        0.186      347.314       26.193      863.351
08/30/2013  21:20:00      -11.772       35.651        9.480       44.503       29.818       17.595     1980.492      889.085      309.567        0.234        0.159       37.544       17.110        0.208      347.001       25.654      863.360
08/30/2013  21:21:00       -3.289       82.858       -6.808       34.280       39.079       21.269     1175.117     1527.150      452.373        0.504        0.158       82.923       20.477        0.061      347.192       25.984      863.368
08/30/2013  21:22:00       19.204       48.209        6.091       17.722       25.842       21.804      314.086      667.819      475.424        0.209        0.073       51.893       11.048        0.045      347.111       25.844      863.376
08/30/2013  21:23:00       -0.979       75.378       -2.274       29.584       15.815       15.454      875.189      250.120      238.832        0.353        0.068       75.385       12.247        0.026      347.232       26.052      863.403
08/30/2013  21:24:00        0.981       70.618        3.593       17.437       38.913       23.198      304.054     1514.230      538.127        0.368        0.118       70.625       17.949        0.065      346.937       25.546      863.428
08/30/2013  21:25:00       38.278      131.793      -21.664       28.864       53.651       27.345      833.117     2878.414      747.759        1.188        0.223      137.239       28.116        0.042      347.266       26.110      863.432
08/30/2013  21:26:00       64.603       68.342       -2.559       43.735       26.507       22.171     1912.773      702.606      491.556        0.598        0.155       94.044       18.158        0.037      347.220       26.031      863.435
08/30/2013  21:27:00       49.699       53.667       -1.311       24.930       26.460       23.456      621.529      700.119      550.207        0.361        0.094       73.145       14.924        0.042      347.136       25.887      863.448
08/30/2013  21:28:00       49.111       27.629      -10.899       33.953       35.276       19.957     1152.773     1244.391      398.269        0.304        0.140       56.350        6.828        0.015      346.414       24.644      863.457
08/30/2013  21:29:00        8.520       25.230        5.997       39.509       26.055       19.919     1560.946      678.875      396.771        0.169        0.132       26.630        6.879        0.067      346.310       24.466      863.465
08/30/2013  21:30:00       51.038       92.484        8.419       55.989       21.716       17.442     3134.778      471.602      304.221        0.757        0.196      105.633       13.896        0.017      346.622       25.003      863.475
08/30/2013  21:31:00       92.137       92.342       -2.761       44.570       48.485       29.194     1986.458     2350.809      852.279        1.111        0.259      130.446       23.892        0.034      347.099       25.824      863.473
08/30/2013  21:32:00       96.708       90.789        8.833       39.871       33.685       34.904     1589.680     1134.709     1218.299        1.081        0.197      132.647       22.757        0.029      346.910       25.498      863.465
08/30/2013  21:33:00       57.909       68.213        7.210       40.086       47.027       28.291     1606.917     2211.502      800.391        0.634        0.231       89.479       23.283        0.068      346.928       25.529      863.479
08/30/2013  21:34:00       59.235       28.412        1.906       37.446       23.317       22.372     1402.171      543.700      500.500        0.338        0.122       65.696        7.128        0.012      346.514       24.817      863.512
08/30/2013  21:35:00       -5.579      156.126       -7.324       54.834       81.112       37.871     3006.794     6579.137     1434.248        1.774        0.551      156.226       31.510        0.041      346.751       25.221      863.525
08/30/2013  21:36:00      -44.505      124.295       -7.556       74.877       69.220       33.081     5606.605     4791.421     1094.353        1.449        0.575      132.022       29.647        0.050      347.169       25.945      863.547
08/30/2013  21:37:00      -35.963       48.413       -2.406       60.932       31.465       32.908     3712.723      990.053     1082.937        0.471        0.289       60.308       17.870        0.088      346.964       25.591      863.548
08/30/2013  21:38:00      -22.212       82.712      -12.248       42.092       67.372       22.768     1771.695     4538.959      518.374        0.716        0.341       85.643       24.295        0.080      346.909       25.496      863.569
08/30/2013  21:39:00      -30.501      124.191      -16.630       33.645       40.547       23.568     1132.012     1644.034      555.451        0.998        0.167      127.881       21.608        0.029      346.989       25.635      863.584
08/30/2013  21:40:00      -16.365       23.276        1.845       15.709       24.525       12.270      246.761      601.487      150.552        0.091        0.050       28.453       12.428        0.191      346.924       25.523      863.581
08/30/2013  21:41:00       11.965       16.071       10.908       26.287       21.555       19.910      691.018      464.635      396.415        0.104        0.078       20.036       14.330        0.512      346.891       25.463      863.582
08/30/2013  21:42:00       19.504      110.446      -14.076       43.037       66.487       25.637     1852.187     4420.566      657.237        0.985        0.346      112.155       27.216        0.059      346.989       25.634      863.574
08/30/2013  21:43:00        8.894      177.491      -22.021       46.311       59.816       26.573     2144.692     3577.984      706.114        1.925        0.321      177.713       29.912        0.028      347.141       25.893      863.578
08/30/2013  21:44:00        3.659      113.369       -0.278       57.348       78.533       40.369     3288.749     6167.386     1629.676        1.197        0.554      113.428       42.421        0.140      347.129       25.874      863.571
08/30/2013  21:45:00       16.409      132.771       -5.343       57.711       61.000       41.023     3330.515     3721.046     1682.849        1.333        0.437      133.781       37.979        0.081      347.056       25.749      863.571
08/30/2013  21:46:00      -19.297      176.108      -14.548       57.706       89.611       39.789     3329.969     8030.111     1583.148        2.227        0.647      177.162       42.352        0.057      346.970       25.598      863.573
08/30/2013  21:47:00      -13.911      263.528       -5.806       82.648      128.987       69.082     6830.653    16637.603     4772.263        4.895        1.412      263.894       76.139        0.083      347.125       25.865      863.559
08/30/2013  21:48:00     -112.292      353.587      -42.619       75.266       89.204       41.726     5664.992     7957.423     1741.043        7.740        0.768      370.989       29.029        0.006      347.291       26.150      863.573
08/30/2013  21:49:00     -128.192      300.312      -39.897       61.768       88.818       37.318     3815.339     7888.612     1392.606        6.065        0.655      326.528       37.559        0.013      347.416       26.364      863.596
08/30/2013  21:50:00     -144.524      179.089      -39.208       60.611       57.969       35.450     3673.679     3360.356     1256.716        3.139        0.415      230.131       34.191        0.022      347.329       26.215      863.609
08/30/2013  21:51:00      -35.736      111.628       -7.802       46.818       53.789       26.398     2191.900     2893.228      696.881        0.979        0.289      117.208       25.302        0.047      347.316       26.197      863.623
08/30/2013  21:52:00       -1.930      157.190       -6.049       36.188       54.631       36.521     1309.561     2984.496     1333.820        1.519        0.281      157.202       33.915        0.047      347.240       26.066      863.618
08/30/2013  21:53:00      -67.007      178.950      -16.128       55.064       63.537       36.950     3032.047     4036.990     1365.328        2.260        0.422      191.084       37.502        0.039      347.209       26.011      863.599
08/30/2013  21:54:00      -96.073      102.659      -15.436       47.557       65.837       34.313     2261.666     4334.515     1177.385        1.389        0.389      140.602       26.904        0.037      347.119       25.856      863.620
08/30/2013  21:55:00      -80.554      208.270      -35.468       38.029       53.882       30.054     1446.174     2903.278      903.251        2.819        0.263      223.306       25.319        0.013      347.669       26.801      863.660
08/30/2013  21:56:00      -18.181      122.900       -7.846       51.791       62.697       28.177     2682.346     3930.959      793.943        1.145        0.370      124.238       25.952        0.044      347.373       26.295      863.649
08/30/2013  21:57:00       14.298      195.015      -29.154       39.280       47.417       22.824     1542.954     2248.398      520.930        2.170        0.216      195.538       22.167        0.013      347.393       26.328      863.626
08/30/2013  21:58:00      -92.027      104.143      -20.212       67.010       50.021       31.876     4490.379     2502.111     1016.048        1.386        0.400      138.977       30.746        0.049      347.283       26.139      863.614
08/30/2013  21:59:00     -128.998      186.994      -35.633       74.820       63.033       44.683     5598.058     3973.204     1996.606        3.222        0.578      227.172       44.866        0.039      347.274       26.119      863.646
08/30/2013  22:00:00     -104.176       77.696      -17.379       47.957       61.675       31.304     2299.870     3803.808      979.913        1.214        0.354      129.959       30.203        0.054      347.239       26.064      863.657
08/30/2013  22:01:00     -153.932       78.129      -16.436       80.948       58.724       32.024     6552.656     3448.546     1025.526        2.055        0.551      172.625       33.295        0.037      347.512       26.534      863.663
08/30/2013  22:02:00     -140.176      -19.556      -15.842       44.261       45.080       29.517     1959.046     2032.237      871.270        1.257        0.243      141.534       25.726        0.033      347.605       26.695      863.657
08/30/2013  22:03:00      -80.952       22.800       -3.761       27.791       34.603       22.925      772.328     1197.387      525.552        0.479        0.125       84.101       14.769        0.031      347.344       26.246      863.671
08/30/2013  22:04:00      -99.804       60.585      -19.123       40.416       47.499       26.765     1633.452     2256.201      716.382        0.930        0.230      116.754       27.939        0.057      347.328       26.219      863.694
08/30/2013  22:05:00      -89.479        2.492       -9.738       18.875       23.158       11.376      356.259      536.290      129.405        0.456        0.051       89.514        9.433        0.011      347.259       26.099      863.709
08/30/2013  22:06:00      -70.557      -23.583       -3.280       25.284       25.593       12.795      639.274      654.991      163.707        0.350        0.073       74.394        7.218        0.009      347.203       26.004      863.717
08/30/2013  22:07:00      -69.091      -37.922       -2.557       34.544       25.500       14.232     1193.270      650.273      202.537        0.413        0.102       78.814       15.722        0.040      347.315       26.196      863.719
08/30/2013  22:08:00      -45.059       12.090       -3.736       27.377       33.993       25.983      749.494     1155.550      675.128        0.238        0.129       46.652       13.649        0.086      347.290       26.152      863.715
08/30/2013  22:09:00      -57.987       48.430       -6.328       29.379       45.435       18.304      863.152     2064.311      335.030        0.450        0.163       75.551       12.882        0.029      347.245       26.075      863.716
08/30/2013  22:10:00      -32.666       33.389      -14.117       30.741       20.028       14.036      944.982      401.106      197.005        0.196        0.077       46.711        8.281        0.031      347.249       26.080      863.705
08/30/2013  22:11:00        0.478       16.633        0.599       17.808       12.607       11.781      317.116      158.933      138.802        0.045        0.031       16.640        7.472        0.202      347.142       25.896      863.706
08/30/2013  22:12:00      -22.356      -25.610      -11.247       28.452       28.039        8.848      809.526      786.194       78.289        0.148        0.084       33.995        2.767        0.007      347.053       25.745      863.713
08/30/2013  22:13:00       26.718       -8.750        5.075       28.228       14.663       21.070      796.823      215.002      443.924        0.114        0.073       28.114       11.984        0.182      346.748       25.221      863.705
08/30/2013  22:14:00       12.058       -2.276        3.216       14.064        8.124        8.638      197.802       65.998       74.618        0.025        0.017       12.271        6.280        0.262      346.723       25.177      863.697
08/30/2013  22:15:00      -30.325      -29.770        0.106       23.455       21.033       11.665      550.119      442.398      136.080        0.147        0.056       42.495       12.536        0.087      347.038       25.717      863.699
08/30/2013  22:16:00      -28.820      -36.653        7.356       40.938       26.729       18.633     1675.930      714.448      347.179        0.248        0.137       46.626       22.894        0.241      346.888       25.458      863.715
08/30/2013  22:17:00     -104.777      -19.697        0.303       41.836       28.308       20.281     1750.240      801.329      411.301        0.716        0.148      106.613       23.142        0.047      347.158       25.924      863.723
08/30/2013  22:18:00      -14.546       -9.554       15.888       23.704       24.074       16.491      561.883      579.556      271.953        0.098        0.071       17.403       11.163        0.411      346.662       25.072      863.725
08/30/2013  22:19:00       48.129      -23.955        9.511       29.726       21.879       22.065      883.650      478.690      486.854        0.241        0.092       53.761       18.067        0.113      346.116       24.132      863.743
08/30/2013  22:20:00      -24.311      -11.165       16.617       28.912       29.571       14.441      835.881      874.456      208.534        0.145        0.096       26.752       17.231        0.415      346.385       24.595      863.763
08/30/2013  22:21:00      -15.044       10.936        3.206       29.049       27.391       13.033      843.820      750.266      169.855        0.106        0.088       18.599       14.130        0.577      346.422       24.659      863.792
08/30/2013  22:22:00       28.031       18.902       -5.685       18.539       18.663       12.852      343.704      348.313      165.162        0.102        0.043       33.808       11.714        0.120      346.017       23.961      863.813
08/30/2013  22:23:00       24.574       43.858        3.544       13.963       18.372       11.158      194.967      337.525      124.498        0.160        0.033       50.273        7.227        0.021      346.332       24.505      863.830
08/30/2013  22:24:00       37.206       21.204        7.302       13.158       12.691       10.636      173.138      161.064      113.114        0.117        0.022       42.824        5.888        0.019      346.584       24.937      863.832
08/30/2013  22:25:00       -6.414      -12.812        3.101       20.848       10.398       12.971      434.656      108.124      168.254        0.046        0.036       14.328       15.284        1.138      346.833       25.364      863.853
08/30/2013  22:26:00       18.010      -25.364        1.738       15.375       11.935        8.450      236.380      142.447       71.394        0.071        0.023       31.108        6.605        0.045      346.764       25.248      863.860
08/30/2013  22:27:00       61.459       20.860        1.794       19.065       24.161       15.885      363.491      583.751      252.320        0.271        0.060       64.903        7.638        0.014      346.235       24.336      863.868
08/30/2013  22:28:00       54.776       30.876       14.281       24.258       27.917       21.651      588.453      779.383      468.773        0.300        0.092       62.879       15.965        0.064      346.403       24.625      863.868
08/30/2013  22:29:00       32.615       41.379       -4.916       25.972       25.576       19.698      674.536      654.150      388.007        0.226        0.086       52.688       19.014        0.130      346.517       24.821      863.860
08/30/2013  22:30:00       30.513       46.124       -8.739       18.499       32.224       12.995      342.198     1038.379      168.881        0.234        0.077       55.304       15.469        0.078      346.740       25.203      863.853
08/30/2013  22:31:00       31.840       54.630      -14.173       33.856       20.765       12.874     1146.208      431.199      165.734        0.297        0.087       63.232       13.919        0.048      346.890       25.462      863.854
08/30/2013  22:32:00      -14.360       29.154      -10.975       22.863       16.059        8.556      522.734      257.878       73.212        0.102        0.043       32.499        7.518        0.054      346.915       25.503      863.845
08/30/2013  22:33:00      -38.877       39.718      -10.704       14.932       21.165        6.416      222.954      447.969       41.160        0.196        0.036       55.578        6.061        0.012      346.812       25.328      863.836
08/30/2013  22:34:00      -52.581      -23.712       -7.312       12.861       16.122        8.670      165.397      259.931       75.162        0.194        0.025       57.681        7.432        0.017      346.472       24.743      863.827
08/30/2013  22:35:00      -55.027      -30.845      -10.716       14.064       12.007        9.083      197.807      144.163       82.493        0.226        0.021       63.082        3.321        0.003      346.252       24.366      863.824
08/30/2013  22:36:00      -34.665      -42.113        1.638       22.861       18.781       14.993      522.630      352.735      224.794        0.204        0.055       54.545        9.699        0.032      346.212       24.299      863.821
08/30/2013  22:37:00      -45.177      -38.888        8.460       25.844       22.631       19.212      667.928      512.161      369.114        0.259        0.077       59.609       16.928        0.081      346.350       24.534      863.809
08/30/2013  22:38:00      -67.250      -57.245        1.450       19.032       19.870       15.199      362.232      394.829      231.016        0.439        0.049       88.315       12.104        0.019      346.539       24.860      863.798
08/30/2013  22:39:00      -57.122      -46.039        1.964       23.859       22.169       13.142      569.229      491.451      172.724        0.331        0.062       73.366       12.714        0.030      346.586       24.940      863.793
08/30/2013  22:40:00      -53.896      -18.021       -2.633       13.047       19.389        9.935      170.228      375.940       98.698        0.194        0.032       56.829       10.200        0.032      346.624       25.007      863.787
08/30/2013  22:41:00      -47.989      -12.946       -8.161        8.499        7.143        6.728       72.236       51.027       45.259        0.135        0.008       49.704        5.770        0.013      346.536       24.855      863.779
08/30/2013  22:42:00      -38.521      -13.797       -8.443        5.854        4.370        4.576       34.274       19.099       20.944        0.091        0.004       40.917        1.553        0.001      346.516       24.823      863.774
08/30/2013  22:43:00      -32.177      -19.612       -3.762        7.050        6.773        4.673       49.698       45.872       21.835        0.078        0.006       37.683        3.326        0.008      346.521       24.827      863.769
08/30/2013  22:44:00      -37.021      -22.824       -2.235        5.059        3.676        3.089       25.598       13.515        9.541        0.097        0.002       43.492        1.407        0.001      346.658       25.066      863.757
08/30/2013  22:45:00      -25.552      -27.123       -3.122        6.379        4.643        3.486       40.689       21.557       12.150        0.074        0.004       37.263        2.068        0.003      346.627       25.011      863.769
08/30/2013  22:46:00      -32.873      -36.106       -5.168       11.568       21.170        9.053      133.822      448.186       81.950        0.154        0.033       48.829        4.130        0.007      346.815       25.334      863.780
08/30/2013  22:47:00      -18.843      -33.868       -2.846        8.660        9.797       10.403       74.990       95.991      108.222        0.089        0.014       38.757        6.500        0.028      346.772       25.261      863.788
08/30/2013  22:48:00       -4.276      -46.687        1.623       11.240       10.532        8.643      126.335      110.915       74.694        0.126        0.016       46.883        4.591        0.010      346.174       24.232      863.797
08/30/2013  22:49:00      -31.621      -35.118       -4.537       10.681       18.971       11.194      114.078      359.905      125.312        0.143        0.030       47.256        8.547        0.033      346.315       24.472      863.798
08/30/2013  22:50:00      -61.310      -13.460       -6.461       17.814       12.110        8.918      317.322      146.650       79.528        0.226        0.027       62.770        5.018        0.006      346.164       24.217      863.791
08/30/2013  22:51:00      -74.740       11.072      -10.296       11.561        8.425        6.231      133.647       70.975       38.822        0.303        0.012       75.555        5.169        0.005      346.064       24.043      863.789
08/30/2013  22:52:00      -46.008       -2.196      -10.821       10.815        4.854        5.683      116.975       23.558       32.299        0.121        0.009       46.060        3.485        0.006      345.866       23.702      863.792
08/30/2013  22:53:00      -74.393       20.008      -10.628       24.758       11.722        8.051      612.966      137.408       64.818        0.343        0.041       77.037        4.366        0.003      345.909       23.778      863.792
08/30/2013  22:54:00      -84.743       22.238       -8.509       13.797       12.996        8.121      190.358      168.896       65.945        0.409        0.021       87.613        7.136        0.007      346.083       24.075      863.790
08/30/2013  22:55:00      -86.262        9.763      -12.939        7.672        9.575        7.002       58.861       91.679       49.031        0.395        0.010       86.812        4.623        0.003      346.135       24.167      863.791
08/30/2013  22:56:00      -76.490       10.088       -7.100       13.951       12.817        6.140      194.643      164.287       37.695        0.320        0.020       77.153        5.186        0.005      346.163       24.212      863.797
08/30/2013  22:57:00      -57.861       -4.461       -4.815       17.215       19.217       10.072      296.366      369.277      101.451        0.208        0.038       58.033        8.388        0.021      346.011       23.953      863.806
08/30/2013  22:58:00      -52.985      -26.287      -11.914       32.627       16.638       12.476     1064.512      276.809      155.656        0.257        0.075       59.147        6.505        0.012      345.841       23.661      863.828
08/30/2013  22:59:00      -63.476      -39.280        2.563       38.558       23.266       16.930     1486.682      541.287      286.610        0.395        0.116       74.647       14.890        0.040      345.697       23.413      863.841
08/30/2013  23:00:00      -82.256       -1.104       -7.698       24.250       22.223        8.473      588.051      493.841       71.799        0.399        0.058       82.264       10.692        0.017      345.813       23.615      863.844
08/30/2013  23:01:00      -37.877       27.103       -2.207        7.747        8.554        6.062       60.019       73.166       36.748        0.117        0.008       46.575        1.455        0.001      345.954       23.853      863.843
08/30/2013  23:02:00      -41.273       15.456       -5.582        5.319        5.714        4.959       28.289       32.652       24.594        0.103        0.004       44.072        4.093        0.009      346.031       23.987      863.857
08/30/2013  23:03:00       11.148       -7.746        7.706       27.984       13.288       16.569      783.078      176.563      274.532        0.074        0.062       13.575       17.183        1.602      345.557       23.174      863.862
08/30/2013  23:04:00       -4.900        8.623       10.652       15.517       13.526       13.731      240.769      182.960      188.530        0.041        0.031        9.917        9.226        0.865      345.214       22.585      863.862
08/30/2013  23:05:00       -4.154       14.836        5.892       13.903       15.247       17.344      193.292      232.468      300.817        0.050        0.036       15.407       11.006        0.510      345.059       22.320      863.870
08/30/2013  23:06:00       10.669       -3.988        7.797       26.979       13.053       16.789      727.878      170.386      281.863        0.069        0.059       11.390       14.438        1.607      344.841       21.945      863.872
08/30/2013  23:07:00        9.350       -1.557        2.669       16.081       14.383       15.527      258.605      206.866      241.092        0.040        0.035        9.479        4.107        0.188      345.246       22.641      863.861
08/30/2013  23:08:00       21.816       -6.212       -4.149       36.853       18.062       12.709     1358.141      326.226      161.528        0.119        0.092       22.683       14.519        0.410      345.621       23.284      863.852
08/30/2013  23:09:00       20.683        1.042        6.799       27.503       13.811       17.795      756.429      190.742      316.655        0.087        0.063       20.709       14.615        0.498      345.250       22.648      863.864
08/30/2013  23:10:00      -18.825        7.730        2.186        8.941        9.135        7.133       79.948       83.446       50.882        0.032        0.011       20.350        6.338        0.097      345.375       22.861      863.873
08/30/2013  23:11:00      -39.408       -2.095       -4.896        7.491        9.185        5.309       56.118       84.358       28.186        0.087        0.008       39.464        1.317        0.001      345.468       23.021      863.876
08/30/2013  23:12:00      -51.719       -8.383       -3.575        5.757       11.148        4.437       33.145      124.283       19.685        0.147        0.009       52.394        4.021        0.006      345.472       23.026      863.879
08/30/2013  23:13:00      -55.027      -24.250       -9.544        7.649        6.657        5.681       58.507       44.314       32.276        0.192        0.007       60.134        3.295        0.003      345.377       22.863      863.897
08/30/2013  23:14:00      -55.552      -14.233       -7.315        5.644        6.777        4.888       31.857       45.931       23.896        0.172        0.005       57.346        1.474        0.001      345.287       22.709      863.895
08/30/2013  23:15:00      -54.329       11.487       -6.973       18.190       15.637        8.434      330.887      244.504       71.133        0.189        0.032       55.530        7.815        0.020      345.351       22.819      863.893
08/30/2013  23:16:00       14.792       15.520        9.420       26.725       17.535       15.549      714.209      307.463      241.766        0.091        0.063       21.440       10.569        0.243      344.735       21.764      863.892
08/30/2013  23:17:00       21.034       -9.872        9.939       21.147       13.077       13.339      447.194      171.006      177.940        0.072        0.040       23.235        9.292        0.160      344.457       21.290      863.891
08/30/2013  23:18:00       38.483       -8.773       12.657       14.717       15.857       14.451      216.581      251.451      208.823        0.120        0.034       39.470        1.918        0.002      345.054       22.310      863.899
08/30/2013  23:19:00       34.456        4.177       16.325       22.003       16.837       19.253      484.134      283.483      370.676        0.130        0.057       34.709       15.310        0.195      344.817       21.905      863.918
08/30/2013  23:20:00       27.578        7.545       17.475       12.855       11.177       13.203      165.250      124.931      174.330        0.079        0.023       28.591        5.874        0.042      344.700       21.705      863.932
08/30/2013  23:21:00       16.481       12.081       25.708       27.939       18.209       15.963      780.583      331.584      254.821        0.122        0.068       20.434        8.987        0.193      344.487       21.340      863.958
08/30/2013  23:22:00       41.743        4.762       21.188       37.575       18.760       21.608     1411.912      351.950      466.910        0.222        0.112       42.014       12.863        0.094      344.623       21.574      863.954
08/30/2013  23:23:00       29.023       10.969       22.847       19.140       16.701       20.429      366.328      278.930      417.339        0.127        0.053       31.027        7.500        0.058      344.876       22.006      863.964
08/30/2013  23:24:00       46.718       11.540       14.274       18.566       23.515       25.343      344.679      552.937      642.288        0.203        0.077       48.122       12.286        0.065      345.319       22.766      863.964
08/30/2013  23:25:00       27.657        2.729       14.025       22.322       12.787       14.100      498.271      163.516      198.810        0.091        0.043       27.791       11.846        0.182      345.215       22.588      863.965
08/30/2013  23:26:00        6.960       13.381        5.999       14.320        8.094        6.966      205.053       65.509       48.530        0.029        0.016       15.082        4.218        0.078      345.069       22.337      863.964
08/30/2013  23:27:00      -30.621        2.385       -5.217       14.131        6.645        4.721      199.690       44.151       22.290        0.062        0.013       30.713        5.205        0.029      345.187       22.539      863.957
08/30/2013  23:28:00      -23.811        3.028        2.613       16.037        8.381        4.146      257.182       70.244       17.192        0.046        0.017       24.002        5.737        0.057      345.222       22.599      863.949
08/30/2013  23:29:00       23.290       16.662       18.278       29.975       16.853       19.268      898.495      284.034      371.249        0.135        0.078       28.637       11.170        0.152      344.822       21.914      863.938
08/30/2013  23:30:00      -16.059       -8.923       -7.957       50.702       23.722       14.344     2570.657      562.742      205.758        0.187        0.167       18.372       12.444        0.459      345.077       22.349      863.936
08/30/2013  23:31:00     -111.253      -35.882      -13.901       16.278       12.364       10.056      264.978      152.869      101.126        0.719        0.026      116.896        3.245        0.001      345.015       22.244      863.941
08/30/2013  23:32:00      -64.852      -19.625       -9.299       20.058       15.123       12.522      402.329      228.710      156.805        0.273        0.039       67.756        9.388        0.019      344.988       22.197      863.932
08/30/2013  23:33:00      -68.040       18.300      -10.076       24.635       16.084       10.149      606.869      258.697      103.004        0.302        0.048       70.458        9.172        0.017      344.873       22.000      863.942
08/30/2013  23:34:00      -60.429       12.500       -9.069       21.886       17.105        9.698      479.014      292.596       94.053        0.238        0.043       61.708        5.075        0.007      344.863       21.984      863.930
08/30/2013  23:35:00      -52.865       -4.290      -10.395        9.304        8.362        8.687       86.568       69.919       75.471        0.158        0.012       53.039        6.345        0.014      344.862       21.984      863.932
08/30/2013  23:36:00      -31.052       -4.223        0.926       14.899       10.308        8.402      221.972      106.261       70.585        0.069        0.020       31.337        8.497        0.074      344.888       22.027      863.940
08/30/2013  23:37:00      -58.310      -14.892       -8.178       15.970       10.032        9.321      255.050      100.641       86.879        0.207        0.022       60.181        9.624        0.026      344.887       22.025      863.935
08/30/2013  23:38:00      -88.718      -17.016       -6.784       17.884       17.396       13.954      319.848      302.628      194.708        0.451        0.041       90.335       11.909        0.017      344.810       21.893      863.945
08/30/2013  23:39:00      -82.687      -30.329       -9.745       15.520       17.263       13.048      240.877      298.016      170.262        0.428        0.035       88.074        5.355        0.004      344.852       21.964      863.950
08/30/2013  23:40:00      -78.693      -12.005       -9.839       18.194       20.878       12.175      331.021      435.895      148.240        0.367        0.046       79.604        8.798        0.012      344.795       21.869      863.943
08/30/2013  23:41:00      -76.565       -0.234       -8.581       18.163       18.809       11.602      329.897      353.784      134.607        0.338        0.041       76.566        9.976        0.017      344.790       21.860      863.930
08/30/2013  23:42:00      -69.246       -8.398      -12.418       18.522       18.174       13.757      343.066      330.282      189.244        0.294        0.043       69.753       12.794        0.034      344.740       21.774      863.930
08/30/2013  23:43:00      -76.769      -14.034      -15.222       12.666       18.211       12.367      160.422      331.636      152.943        0.348        0.032       78.041        9.516        0.015      344.678       21.666      863.922
08/30/2013  23:44:00      -72.031      -24.548       -7.967       30.509       28.509       16.760      930.812      812.735      280.905        0.394        0.101       76.099        9.783        0.017      344.721       21.740      863.936
08/30/2013  23:45:00      -78.934      -20.568       -9.694       48.565       35.991       16.450     2358.597     1295.352      270.595        0.534        0.196       81.570       14.250        0.031      344.608       21.547      863.942
08/30/2013  23:46:00      -91.905      -17.818      -16.879       34.572       31.983       20.183     1195.223     1022.920      407.346        0.584        0.131       93.616        8.649        0.009      344.591       21.520      863.950
08/30/2013  23:47:00     -105.271      -16.867       -1.983       32.275       34.278       26.043     1041.674     1175.015      678.264        0.713        0.145      106.613       21.890        0.042      344.514       21.386      863.972
08/30/2013  23:48:00      -62.056       -3.747      -11.134       23.718       29.873       17.389      562.566      892.399      302.363        0.287        0.088       62.169       10.900        0.031      344.476       21.321      863.977
08/30/2013  23:49:00      -54.238      -20.930      -23.246       16.708       18.444       13.876      279.150      340.185      192.538        0.237        0.041       58.137       10.297        0.031      344.558       21.462      863.983
08/30/2013  23:50:00      -59.171      -32.249      -15.451       22.564       22.218       19.032      509.122      493.655      362.216        0.307        0.068       67.388        9.696        0.021      344.580       21.500      864.002
08/30/2013  23:51:00      -30.923      -27.533       -4.233       44.030       25.893       27.706     1938.628      670.448      767.596        0.255        0.169       41.404       26.033        0.395      344.492       21.350      864.013
08/30/2013  23:52:00      -83.691      -16.911        0.723       33.402       26.210       18.376     1115.717      686.941      337.679        0.472        0.107       85.382       16.811        0.039      344.497       21.357      864.013
08/30/2013  23:53:00      -80.627        2.057       -4.263       44.091       25.536       18.056     1944.049      652.091      326.020        0.472        0.146       80.654       15.306        0.036      344.431       21.244      864.028
08/30/2013  23:54:00      -50.279       -0.560       -5.926       22.666       24.062       16.364      513.749      578.965      267.775        0.196        0.068       50.282       11.657        0.054      344.353       21.111      864.021
08/30/2013  23:55:00      -54.622       -2.615       -3.086       32.353       29.409       19.212     1046.718      864.875      369.084        0.264        0.114       54.685       16.491        0.091      344.473       21.316      864.012
08/30/2013  23:56:00       -6.523        3.402        5.195       29.399       25.743       14.160      864.318      662.718      200.520        0.090        0.086        7.357        9.882        1.804      344.451       21.278      864.016
08/30/2013  23:57:00      -46.477       18.157       -3.974       26.789       31.954       24.668      717.653     1021.061      608.527        0.243        0.117       49.898       19.429        0.152      344.540       21.431      864.024
08/30/2013  23:58:00      -79.506        6.501      -16.677       28.091       28.065       16.510      789.081      787.663      272.567        0.425        0.092       79.771       12.141        0.023      344.669       21.650      864.032
08/30/2013  23:59:00      -80.792       25.085      -11.375       32.390       32.430       17.810     1049.124     1051.712      317.207        0.485        0.121       84.596       14.835        0.031      344.562       21.469      864.049
